Time,TemperatureF,DewpointF,PressureIn,WindDirection,WindDirectionDegrees,WindSpeedMPH,WindSpeedGustMPH,Humidity,HourlyPrecipIn,Conditions,Clouds,dailyrainin,SoftwareType,DateUTC
2013-09-20 00:00:00,55.0,52.8,29.47,WSW,248,10.5,13.4,92,0.00,,,0.00,VWS V14.01,2013-09-20 07:00:00,
2013-09-20 00:01:00,55.0,52.8,29.47,SW,225,15.4,15.4,92,0.00,,,0.00,VWS V14.01,2013-09-20 07:01:00,
2013-09-20 00:02:00,55.0,52.8,29.47,West,270,14.1,15.4,92,0.00,,,0.00,VWS V14.01,2013-09-20 07:02:00,
2013-09-20 00:03:00,54.9,52.6,29.47,SSW,202,13.2,15.4,92,0.00,,,0.00,VWS V14.01,2013-09-20 07:03:00,
2013-09-20 00:04:00,54.9,52.6,29.47,WSW,248,10.1,15.4,92,0.00,,,0.00,VWS V14.01,2013-09-20 07:04:00,
2013-09-20 00:05:00,54.9,52.9,29.47,SW,225,7.8,15.4,93,0.00,,,0.00,VWS V14.01,2013-09-20 07:05:00,
2013-09-20 00:06:00,54.9,52.9,29.47,WSW,248,11.4,11.4,93,0.00,,,0.00,VWS V14.01,2013-09-20 07:06:00,
2013-09-20 00:07:00,54.9,52.9,29.47,WSW,248,10.1,11.4,93,0.00,,,0.00,VWS V14.01,2013-09-20 07:07:00,
2013-09-20 00:08:00,54.9,52.9,29.47,WSW,248,7.8,11.4,93,0.00,,,0.00,VWS V14.01,2013-09-20 07:08:00,
2013-09-20 00:09:00,54.9,52.9,29.47,West,270,8.5,11.4,93,0.00,,,0.00,VWS V14.01,2013-09-20 07:09:00,
2013-09-20 00:10:00,54.9,52.9,29.47,WNW,292,10.5,10.5,93,0.00,,,0.00,VWS V14.01,2013-09-20 07:10:00,
2013-09-20 00:11:00,54.9,52.9,29.47,WSW,248,7.4,10.5,93,0.00,,,0.00,VWS V14.01,2013-09-20 07:11:00,
2013-09-20 00:12:00,54.9,52.9,29.47,WNW,292,7.8,10.5,93,0.00,,,0.00,VWS V14.01,2013-09-20 07:12:00,
2013-09-20 00:13:00,54.9,52.9,29.47,WNW,292,7.8,10.5,93,0.00,,,0.00,VWS V14.01,2013-09-20 07:13:00,
2013-09-20 00:14:00,54.9,52.9,29.47,WSW,248,7.8,10.5,93,0.00,,,0.00,VWS V14.01,2013-09-20 07:14:00,
2013-09-20 00:15:00,54.9,52.9,29.47,WSW,248,12.8,12.8,93,0.00,,,0.00,VWS V14.01,2013-09-20 07:15:00,
2013-09-20 00:16:00,54.9,52.9,29.47,WSW,248,13.9,13.9,93,0.00,,,0.00,VWS V14.01,2013-09-20 07:16:00,
2013-09-20 00:17:00,54.9,52.9,29.47,West,270,7.2,13.9,93,0.00,,,0.00,VWS V14.01,2013-09-20 07:17:00,
2013-09-20 00:18:00,54.9,52.9,29.47,WSW,248,12.1,13.9,93,0.00,,,0.00,VWS V14.01,2013-09-20 07:18:00,
2013-09-20 00:19:00,54.7,52.7,29.47,WSW,248,7.8,13.9,93,0.00,,,0.00,VWS V14.01,2013-09-20 07:19:00,
2013-09-20 00:20:00,54.7,52.7,29.47,WSW,248,10.3,12.1,93,0.00,,,0.00,VWS V14.01,2013-09-20 07:20:00,
2013-09-20 00:21:00,54.7,52.7,29.47,WSW,248,10.3,13.0,93,0.00,,,0.00,VWS V14.01,2013-09-20 07:21:00,
2013-09-20 00:22:00,54.7,52.7,29.47,West,270,7.6,13.0,93,0.00,,,0.00,VWS V14.01,2013-09-20 07:22:00,
2013-09-20 00:23:00,54.7,52.7,29.47,SW,225,5.8,13.0,93,0.00,,,0.00,VWS V14.01,2013-09-20 07:23:00,
2013-09-20 00:24:00,54.7,52.7,29.47,SW,225,5.8,13.0,93,0.00,,,0.00,VWS V14.01,2013-09-20 07:24:00,
2013-09-20 00:25:00,54.7,52.7,29.47,SW,225,5.8,10.3,93,0.00,,,0.00,VWS V14.01,2013-09-20 07:25:00,
2013-09-20 00:26:00,54.7,52.7,29.47,SW,225,5.8,7.6,93,0.00,,,0.00,VWS V14.01,2013-09-20 07:26:00,
2013-09-20 00:27:00,54.7,53.0,29.47,WSW,248,10.5,10.5,94,0.00,,,0.00,VWS V14.01,2013-09-20 07:27:00,
2013-09-20 00:28:00,54.7,53.0,29.47,WSW,248,6.3,10.5,94,0.00,,,0.00,VWS V14.01,2013-09-20 07:28:00,
2013-09-20 00:29:00,54.7,53.0,29.47,West,270,10.5,10.5,94,0.00,,,0.00,VWS V14.01,2013-09-20 07:29:00,
2013-09-20 00:30:00,54.7,53.0,29.47,WSW,248,10.5,10.5,94,0.00,,,0.00,VWS V14.01,2013-09-20 07:30:00,
2013-09-20 00:31:00,54.7,53.0,29.47,WSW,248,12.8,12.8,94,0.00,,,0.00,VWS V14.01,2013-09-20 07:31:00,
2013-09-20 00:32:00,54.7,53.0,29.47,WSW,248,10.1,12.8,94,0.00,,,0.00,VWS V14.01,2013-09-20 07:32:00,
2013-09-20 00:33:00,54.9,53.2,29.47,SW,225,8.1,12.8,94,0.00,,,0.00,VWS V14.01,2013-09-20 07:33:00,
2013-09-20 00:34:00,54.9,53.2,29.47,WSW,248,12.8,12.8,94,0.00,,,0.00,VWS V14.01,2013-09-20 07:34:00,
2013-09-20 00:35:00,54.7,53.0,29.47,WSW,248,12.1,12.8,94,0.00,,,0.00,VWS V14.01,2013-09-20 07:35:00,
2013-09-20 00:36:00,54.9,53.2,29.47,WSW,248,12.3,13.2,94,0.00,,,0.00,VWS V14.01,2013-09-20 07:36:00,
2013-09-20 00:37:00,54.9,53.2,29.47,WSW,248,12.3,13.2,94,0.00,,,0.00,VWS V14.01,2013-09-20 07:37:00,
2013-09-20 00:38:00,54.7,53.0,29.47,SSW,202,9.6,13.2,94,0.00,,,0.00,VWS V14.01,2013-09-20 07:38:00,
2013-09-20 00:39:00,54.7,53.0,29.47,WSW,248,13.2,13.2,94,0.00,,,0.00,VWS V14.01,2013-09-20 07:39:00,
2013-09-20 00:40:00,54.7,53.0,29.47,WSW,248,7.6,13.2,94,0.00,,,0.00,VWS V14.01,2013-09-20 07:40:00,
2013-09-20 00:41:00,54.7,53.0,29.47,WSW,248,10.1,13.2,94,0.00,,,0.00,VWS V14.01,2013-09-20 07:41:00,
2013-09-20 00:42:00,54.7,53.0,29.47,WSW,248,10.1,13.2,94,0.00,,,0.00,VWS V14.01,2013-09-20 07:42:00,
2013-09-20 00:44:00,54.7,53.0,29.47,WSW,248,8.7,10.1,94,0.00,,,0.00,VWS V14.01,2013-09-20 07:44:00,
2013-09-20 00:45:00,54.7,53.0,29.47,SW,225,7.6,10.1,94,0.00,,,0.00,VWS V14.01,2013-09-20 07:45:00,
2013-09-20 00:46:00,54.7,53.0,29.47,WSW,248,13.2,13.2,94,0.00,,,0.00,VWS V14.01,2013-09-20 07:46:00,
2013-09-20 00:47:00,54.7,53.0,29.47,WSW,248,8.7,13.2,94,0.00,,,0.00,VWS V14.01,2013-09-20 07:47:00,
2013-09-20 00:48:00,54.7,53.0,29.47,WSW,248,8.7,13.2,94,0.00,,,0.00,VWS V14.01,2013-09-20 07:48:00,
2013-09-20 00:49:00,54.7,53.0,29.47,SW,225,7.8,13.2,94,0.00,,,0.00,VWS V14.01,2013-09-20 07:49:00,
2013-09-20 00:50:00,54.7,53.0,29.47,West,270,9.8,13.2,94,0.00,,,0.00,VWS V14.01,2013-09-20 07:50:00,
2013-09-20 00:51:00,54.7,53.0,29.47,West,270,9.6,9.8,94,0.00,,,0.00,VWS V14.01,2013-09-20 07:51:00,
2013-09-20 00:52:00,54.7,53.0,29.47,SSW,202,10.1,10.1,94,0.00,,,0.00,VWS V14.01,2013-09-20 07:52:00,
2013-09-20 00:53:00,54.7,53.0,29.47,WSW,248,10.1,10.1,94,0.00,,,0.00,VWS V14.01,2013-09-20 07:53:00,
2013-09-20 00:54:00,54.7,53.0,29.47,WNW,292,12.1,12.1,94,0.00,,,0.00,VWS V14.01,2013-09-20 07:54:00,
2013-09-20 00:55:00,54.7,53.0,29.47,WNW,292,12.1,12.1,94,0.00,,,0.00,VWS V14.01,2013-09-20 07:55:00,
2013-09-20 00:56:00,54.7,53.0,29.47,West,270,12.5,12.5,94,0.00,,,0.00,VWS V14.01,2013-09-20 07:56:00,
2013-09-20 00:57:00,54.7,53.0,29.47,West,270,12.5,12.5,94,0.00,,,0.00,VWS V14.01,2013-09-20 07:57:00,
2013-09-20 00:58:00,54.7,53.0,29.47,West,270,12.5,12.5,94,0.00,,,0.00,VWS V14.01,2013-09-20 07:58:00,
2013-09-20 00:59:00,54.7,53.0,29.47,West,270,12.5,12.5,94,0.00,,,0.00,VWS V14.01,2013-09-20 07:59:00,
2013-09-20 01:00:00,54.7,53.0,29.47,West,270,12.5,12.5,94,0.00,,,0.00,VWS V14.01,2013-09-20 08:00:00,
2013-09-20 01:01:00,54.7,53.0,29.47,West,270,12.5,12.5,94,0.00,,,0.00,VWS V14.01,2013-09-20 08:01:00,
2013-09-20 01:02:00,54.7,53.0,29.47,West,270,12.5,12.5,94,0.00,,,0.00,VWS V14.01,2013-09-20 08:02:00,
2013-09-20 01:03:00,54.7,53.0,29.47,West,270,12.5,12.5,94,0.00,,,0.00,VWS V14.01,2013-09-20 08:03:00,
2013-09-20 01:04:00,54.7,53.0,29.47,West,270,12.5,12.5,94,0.00,,,0.00,VWS V14.01,2013-09-20 08:04:00,
2013-09-20 01:05:00,54.7,53.0,29.47,West,270,12.5,12.5,94,0.00,,,0.00,VWS V14.01,2013-09-20 08:05:00,
2013-09-20 01:06:00,54.7,53.0,29.47,West,270,12.5,12.5,94,0.00,,,0.00,VWS V14.01,2013-09-20 08:06:00,
2013-09-20 01:07:00,54.7,53.0,29.47,West,270,12.5,12.5,94,0.00,,,0.00,VWS V14.01,2013-09-20 08:07:00,
2013-09-20 01:08:00,54.7,53.0,29.47,West,270,12.5,12.5,94,0.00,,,0.00,VWS V14.01,2013-09-20 08:08:00,
2013-09-20 01:09:00,54.7,53.0,29.47,West,270,12.5,12.5,94,0.00,,,0.00,VWS V14.01,2013-09-20 08:09:00,
2013-09-20 01:10:00,54.5,52.8,29.50,West,270,12.5,12.5,94,0.00,,,0.00,VWS V14.01,2013-09-20 08:10:00,
2013-09-20 01:11:00,54.5,52.8,29.50,West,270,12.5,12.5,94,0.00,,,0.00,VWS V14.01,2013-09-20 08:11:00,
2013-09-20 01:12:00,54.5,52.8,29.50,West,270,12.5,12.5,94,0.00,,,0.00,VWS V14.01,2013-09-20 08:12:00,
2013-09-20 01:13:00,54.5,52.8,29.50,West,270,12.5,12.5,94,0.00,,,0.00,VWS V14.01,2013-09-20 08:13:00,
2013-09-20 01:14:00,54.5,52.8,29.50,West,270,6.0,12.5,94,0.00,,,0.00,VWS V14.01,2013-09-20 08:14:00,
2013-09-20 01:15:00,54.5,52.8,29.50,West,270,6.0,12.5,94,0.00,,,0.00,VWS V14.01,2013-09-20 08:15:00,
2013-09-20 01:16:00,54.5,52.8,29.50,West,270,6.0,12.5,94,0.00,,,0.00,VWS V14.01,2013-09-20 08:16:00,
2013-09-20 01:17:00,54.5,52.8,29.50,West,270,6.0,12.5,94,0.00,,,0.00,VWS V14.01,2013-09-20 08:17:00,
2013-09-20 01:18:00,54.5,52.8,29.50,West,270,6.0,12.5,94,0.00,,,0.00,VWS V14.01,2013-09-20 08:18:00,
2013-09-20 01:19:00,54.5,52.8,29.50,West,270,6.0,6.0,94,0.00,,,0.00,VWS V14.01,2013-09-20 08:19:00,
2013-09-20 01:20:00,54.5,52.8,29.50,West,270,6.0,6.0,94,0.00,,,0.00,VWS V14.01,2013-09-20 08:20:00,
2013-09-20 01:21:00,54.5,52.8,29.50,West,270,6.0,6.0,94,0.00,,,0.00,VWS V14.01,2013-09-20 08:21:00,
2013-09-20 01:22:00,54.5,52.8,29.50,West,270,6.0,6.0,94,0.00,,,0.00,VWS V14.01,2013-09-20 08:22:00,
2013-09-20 01:23:00,54.5,52.8,29.50,West,270,6.0,6.0,94,0.00,,,0.00,VWS V14.01,2013-09-20 08:23:00,
2013-09-20 01:24:00,54.5,52.8,29.50,West,270,6.0,6.0,94,0.00,,,0.00,VWS V14.01,2013-09-20 08:24:00,
2013-09-20 01:25:00,54.5,52.8,29.50,West,270,6.0,6.0,94,0.00,,,0.00,VWS V14.01,2013-09-20 08:25:00,
2013-09-20 01:26:00,54.5,52.8,29.50,West,270,6.0,6.0,94,0.00,,,0.00,VWS V14.01,2013-09-20 08:26:00,
2013-09-20 01:27:00,54.5,52.8,29.50,West,270,6.0,6.0,94,0.00,,,0.00,VWS V14.01,2013-09-20 08:27:00,
2013-09-20 01:28:00,54.5,52.8,29.50,West,270,6.0,6.0,94,0.00,,,0.00,VWS V14.01,2013-09-20 08:28:00,
2013-09-20 01:29:00,54.5,52.8,29.50,West,270,6.0,6.0,94,0.00,,,0.00,VWS V14.01,2013-09-20 08:29:00,
2013-09-20 01:30:00,54.5,52.8,29.50,West,270,6.0,6.0,94,0.00,,,0.00,VWS V14.01,2013-09-20 08:30:00,
2013-09-20 01:31:00,54.5,52.8,29.50,West,270,6.0,6.0,94,0.00,,,0.00,VWS V14.01,2013-09-20 08:31:00,
2013-09-20 01:32:00,54.5,52.8,29.50,West,270,6.0,6.0,94,0.00,,,0.00,VWS V14.01,2013-09-20 08:32:00,
2013-09-20 01:33:00,54.5,52.8,29.50,West,270,6.0,6.0,94,0.00,,,0.00,VWS V14.01,2013-09-20 08:33:00,
2013-09-20 01:34:00,54.5,52.8,29.50,West,270,6.0,6.0,94,0.00,,,0.00,VWS V14.01,2013-09-20 08:34:00,
2013-09-20 01:35:00,54.5,52.8,29.50,West,270,6.0,6.0,94,0.00,,,0.00,VWS V14.01,2013-09-20 08:35:00,
2013-09-20 01:36:00,54.5,52.8,29.50,West,270,6.0,6.0,94,0.00,,,0.00,VWS V14.01,2013-09-20 08:36:00,
2013-09-20 01:37:00,54.5,52.8,29.50,West,270,6.0,6.0,94,0.00,,,0.00,VWS V14.01,2013-09-20 08:37:00,
2013-09-20 01:38:00,54.5,52.8,29.50,West,270,6.0,6.0,94,0.00,,,0.00,VWS V14.01,2013-09-20 08:38:00,
2013-09-20 01:39:00,54.5,52.8,29.50,West,270,6.0,6.0,94,0.00,,,0.00,VWS V14.01,2013-09-20 08:39:00,
2013-09-20 01:40:00,54.5,52.8,29.50,West,270,6.0,6.0,94,0.00,,,0.00,VWS V14.01,2013-09-20 08:40:00,
2013-09-20 01:41:00,54.5,52.8,29.50,West,270,6.0,6.0,94,0.00,,,0.00,VWS V14.01,2013-09-20 08:41:00,
2013-09-20 01:42:00,54.5,52.8,29.50,West,270,6.0,6.0,94,0.00,,,0.00,VWS V14.01,2013-09-20 08:42:00,
2013-09-20 01:43:00,54.5,52.8,29.50,West,270,6.0,6.0,94,0.00,,,0.00,VWS V14.01,2013-09-20 08:43:00,
2013-09-20 01:44:00,54.5,52.8,29.50,West,270,6.0,6.0,94,0.00,,,0.00,VWS V14.01,2013-09-20 08:44:00,
2013-09-20 01:45:00,54.5,52.8,29.50,West,270,6.0,6.0,94,0.00,,,0.00,VWS V14.01,2013-09-20 08:45:00,
2013-09-20 01:46:00,54.5,52.8,29.50,West,270,6.0,6.0,94,0.00,,,0.00,VWS V14.01,2013-09-20 08:46:00,
2013-09-20 01:47:00,54.5,52.8,29.50,West,270,6.0,6.0,94,0.00,,,0.00,VWS V14.01,2013-09-20 08:47:00,
2013-09-20 01:48:00,54.5,52.8,29.50,West,270,6.0,6.0,94,0.00,,,0.00,VWS V14.01,2013-09-20 08:48:00,
2013-09-20 01:49:00,54.5,52.8,29.50,West,270,6.0,6.0,94,0.00,,,0.00,VWS V14.01,2013-09-20 08:49:00,
2013-09-20 01:50:00,54.5,52.8,29.50,West,270,6.0,6.0,94,0.00,,,0.00,VWS V14.01,2013-09-20 08:50:00,
2013-09-20 01:51:00,54.5,52.8,29.47,West,270,6.0,6.0,94,0.00,,,0.00,VWS V14.01,2013-09-20 08:51:00,
2013-09-20 01:52:00,54.5,52.8,29.47,West,270,6.0,6.0,94,0.00,,,0.00,VWS V14.01,2013-09-20 08:52:00,
2013-09-20 01:53:00,54.5,52.8,29.47,SSW,202,13.0,13.0,94,0.00,,,0.00,VWS V14.01,2013-09-20 08:53:00,
2013-09-20 01:54:00,54.5,52.8,29.47,SSW,202,13.0,13.0,94,0.00,,,0.00,VWS V14.01,2013-09-20 08:54:00,
2013-09-20 01:55:00,54.5,52.8,29.47,SSW,202,13.0,13.0,94,0.00,,,0.00,VWS V14.01,2013-09-20 08:55:00,
2013-09-20 01:56:00,54.7,52.7,29.47,WSW,248,10.5,13.2,93,0.00,,,0.00,VWS V14.01,2013-09-20 08:56:00,
2013-09-20 01:57:00,54.7,52.7,29.47,WSW,248,10.5,13.2,93,0.00,,,0.00,VWS V14.01,2013-09-20 08:57:00,
2013-09-20 01:58:00,54.7,52.7,29.47,WSW,248,16.6,16.6,93,0.00,,,0.00,VWS V14.01,2013-09-20 08:58:00,
2013-09-20 01:59:00,54.7,52.7,29.47,WNW,292,8.5,16.6,93,0.00,,,0.00,VWS V14.01,2013-09-20 08:59:00,
2013-09-20 02:00:00,54.7,52.7,29.47,WSW,248,12.1,16.6,93,0.00,,,0.00,VWS V14.01,2013-09-20 09:00:00,
2013-09-20 02:01:00,54.7,52.7,29.47,WNW,292,14.8,16.6,93,0.00,,,0.00,VWS V14.01,2013-09-20 09:01:00,
2013-09-20 02:02:00,54.7,52.7,29.47,WSW,248,13.0,16.6,93,0.00,,,0.00,VWS V14.01,2013-09-20 09:02:00,
2013-09-20 02:03:00,54.7,52.7,29.47,WSW,248,8.7,14.8,93,0.00,,,0.00,VWS V14.01,2013-09-20 09:03:00,
2013-09-20 02:04:00,54.7,52.7,29.47,WSW,248,13.6,14.8,93,0.00,,,0.00,VWS V14.01,2013-09-20 09:04:00,
2013-09-20 02:05:00,54.7,52.7,29.47,WSW,248,13.6,14.8,93,0.00,,,0.00,VWS V14.01,2013-09-20 09:05:00,
2013-09-20 02:06:00,54.7,52.7,29.47,WSW,248,13.4,13.6,93,0.00,,,0.00,VWS V14.01,2013-09-20 09:06:00,
2013-09-20 02:07:00,54.7,52.7,29.47,WSW,248,13.4,13.6,93,0.00,,,0.00,VWS V14.01,2013-09-20 09:07:00,
2013-09-20 02:08:00,54.7,52.7,29.47,WSW,248,12.5,13.6,93,0.00,,,0.00,VWS V14.01,2013-09-20 09:08:00,
2013-09-20 02:09:00,54.7,52.7,29.47,SSW,202,16.6,16.6,93,0.00,,,0.00,VWS V14.01,2013-09-20 09:09:00,
2013-09-20 02:10:00,54.7,52.7,29.47,WSW,248,17.0,17.0,93,0.00,,,0.00,VWS V14.01,2013-09-20 09:10:00,
2013-09-20 02:11:00,54.5,52.5,29.47,WSW,248,13.0,17.0,93,0.00,,,0.00,VWS V14.01,2013-09-20 09:11:00,
2013-09-20 02:12:00,54.5,52.5,29.47,SSW,202,10.5,17.0,93,0.00,,,0.00,VWS V14.01,2013-09-20 09:12:00,
2013-09-20 02:13:00,54.5,52.8,29.47,SSW,202,9.8,17.0,94,0.00,,,0.00,VWS V14.01,2013-09-20 09:13:00,
2013-09-20 02:14:00,54.5,52.8,29.47,SSW,202,13.0,13.0,94,0.00,,,0.00,VWS V14.01,2013-09-20 09:14:00,
2013-09-20 02:15:00,54.5,52.8,29.47,WSW,248,13.0,13.0,94,0.00,,,0.00,VWS V14.01,2013-09-20 09:15:00,
2013-09-20 02:16:00,54.5,52.8,29.47,WSW,248,15.4,15.4,94,0.00,,,0.00,VWS V14.01,2013-09-20 09:16:00,
2013-09-20 02:17:00,54.5,52.8,29.47,WSW,248,15.4,15.4,94,0.00,,,0.00,VWS V14.01,2013-09-20 09:17:00,
2013-09-20 02:18:00,54.5,52.8,29.47,WSW,248,15.2,15.4,94,0.00,,,0.00,VWS V14.01,2013-09-20 09:18:00,
2013-09-20 02:19:00,54.5,52.8,29.47,WSW,248,14.5,15.4,94,0.00,,,0.00,VWS V14.01,2013-09-20 09:19:00,
2013-09-20 02:20:00,54.5,52.8,29.47,WSW,248,15.4,15.4,94,0.00,,,0.00,VWS V14.01,2013-09-20 09:20:00,
2013-09-20 02:21:00,54.5,52.8,29.47,SW,225,19.5,19.5,94,0.00,,,0.00,VWS V14.01,2013-09-20 09:21:00,
2013-09-20 02:22:00,54.5,52.5,29.47,WSW,248,14.8,19.5,93,0.00,,,0.00,VWS V14.01,2013-09-20 09:22:00,
2013-09-20 02:23:00,54.5,52.5,29.47,WSW,248,14.8,19.5,93,0.00,,,0.00,VWS V14.01,2013-09-20 09:23:00,
2013-09-20 02:24:00,54.5,52.5,29.47,WSW,248,20.1,20.1,93,0.00,,,0.00,VWS V14.01,2013-09-20 09:24:00,
2013-09-20 02:25:00,54.5,52.5,29.47,WSW,248,19.7,20.1,93,0.00,,,0.00,VWS V14.01,2013-09-20 09:25:00,
2013-09-20 02:26:00,54.5,52.5,29.47,WSW,248,20.8,20.8,93,0.00,,,0.00,VWS V14.01,2013-09-20 09:26:00,
2013-09-20 02:27:00,54.5,52.5,29.47,WSW,248,20.8,20.8,93,0.00,,,0.00,VWS V14.01,2013-09-20 09:27:00,
2013-09-20 02:28:00,54.5,52.8,29.47,WSW,248,13.6,20.8,94,0.00,,,0.00,VWS V14.01,2013-09-20 09:28:00,
2013-09-20 02:29:00,54.5,52.8,29.47,West,270,12.8,20.8,94,0.00,,,0.00,VWS V14.01,2013-09-20 09:29:00,
2013-09-20 02:30:00,54.5,52.8,29.47,WSW,248,17.7,20.8,94,0.00,,,0.00,VWS V14.01,2013-09-20 09:30:00,
2013-09-20 02:31:00,54.5,52.8,29.47,WSW,248,8.1,19.5,94,0.00,,,0.00,VWS V14.01,2013-09-20 09:31:00,
2013-09-20 02:32:00,54.5,52.8,29.47,WSW,248,15.7,19.5,94,0.00,,,0.00,VWS V14.01,2013-09-20 09:32:00,
2013-09-20 02:33:00,54.5,52.8,29.47,WSW,248,14.8,19.5,94,0.00,,,0.00,VWS V14.01,2013-09-20 09:33:00,
2013-09-20 02:34:00,54.5,52.8,29.47,South,180,17.7,19.5,94,0.00,,,0.00,VWS V14.01,2013-09-20 09:34:00,
2013-09-20 02:35:00,54.5,52.8,29.47,WSW,248,10.5,17.7,94,0.00,,,0.00,VWS V14.01,2013-09-20 09:35:00,
2013-09-20 02:36:00,54.5,52.8,29.47,SW,225,15.4,18.1,94,0.00,,,0.00,VWS V14.01,2013-09-20 09:36:00,
2013-09-20 02:37:00,54.5,52.8,29.47,SW,225,15.4,18.1,94,0.00,,,0.00,VWS V14.01,2013-09-20 09:37:00,
2013-09-20 02:38:00,54.5,52.8,29.47,WSW,248,15.2,18.1,94,0.00,,,0.00,VWS V14.01,2013-09-20 09:38:00,
2013-09-20 02:39:00,54.5,52.8,29.47,SSW,202,17.7,18.1,94,0.00,,,0.00,VWS V14.01,2013-09-20 09:39:00,
2013-09-20 02:40:00,54.5,52.8,29.47,WSW,248,14.5,18.1,94,0.00,,,0.00,VWS V14.01,2013-09-20 09:40:00,
2013-09-20 02:41:00,54.5,53.1,29.47,SSW,202,16.6,17.7,95,0.00,,,0.00,VWS V14.01,2013-09-20 09:41:00,
2013-09-20 02:42:00,54.5,53.1,29.47,WSW,248,20.1,20.1,95,0.00,,,0.00,VWS V14.01,2013-09-20 09:42:00,
2013-09-20 02:43:00,54.5,53.1,29.47,WNW,292,13.2,20.1,95,0.00,,,0.00,VWS V14.01,2013-09-20 09:43:00,
2013-09-20 02:44:00,54.5,53.1,29.47,WSW,248,15.9,20.1,95,0.00,,,0.00,VWS V14.01,2013-09-20 09:44:00,
2013-09-20 02:45:00,54.5,53.1,29.47,WSW,248,10.1,20.1,95,0.00,,,0.00,VWS V14.01,2013-09-20 09:45:00,
2013-09-20 02:46:00,54.5,53.1,29.47,WSW,248,10.1,15.9,95,0.00,,,0.00,VWS V14.01,2013-09-20 09:46:00,
2013-09-20 02:47:00,54.5,53.1,29.47,West,270,19.9,19.9,95,0.00,,,0.00,VWS V14.01,2013-09-20 09:47:00,
2013-09-20 02:49:00,54.5,53.1,29.47,West,270,19.9,19.9,95,0.00,,,0.00,VWS V14.01,2013-09-20 09:49:00,
2013-09-20 02:50:00,54.5,53.1,29.47,WSW,248,12.8,19.9,95,0.00,,,0.00,VWS V14.01,2013-09-20 09:50:00,
2013-09-20 02:51:00,54.3,53.2,29.47,WSW,248,13.2,13.2,96,0.00,,,0.00,VWS V14.01,2013-09-20 09:51:00,
2013-09-20 02:52:00,54.3,53.2,29.47,WSW,248,13.2,13.2,96,0.00,,,0.00,VWS V14.01,2013-09-20 09:52:00,
2013-09-20 02:53:00,54.3,53.2,29.47,SW,225,12.8,13.2,96,0.00,,,0.00,VWS V14.01,2013-09-20 09:53:00,
2013-09-20 02:54:00,54.1,53.3,29.47,WSW,248,13.2,13.2,97,0.00,,,0.00,VWS V14.01,2013-09-20 09:54:00,
2013-09-20 02:55:00,54.1,53.3,29.47,WSW,248,9.8,13.2,97,0.00,,,0.00,VWS V14.01,2013-09-20 09:55:00,
2013-09-20 02:56:00,54.1,53.3,29.47,WNW,292,11.0,15.2,97,0.00,,,0.00,VWS V14.01,2013-09-20 09:56:00,
2013-09-20 02:57:00,54.1,53.3,29.47,SW,225,13.9,15.2,97,0.00,,,0.00,VWS V14.01,2013-09-20 09:57:00,
2013-09-20 02:58:00,53.8,53.2,29.47,SW,225,16.8,16.8,98,0.00,,,0.00,VWS V14.01,2013-09-20 09:58:00,
2013-09-20 02:59:00,53.8,53.2,29.47,WSW,248,17.2,17.2,98,0.00,,,0.00,VWS V14.01,2013-09-20 09:59:00,
2013-09-20 03:00:00,53.8,53.2,29.47,WSW,248,16.3,17.2,98,0.00,,,0.00,VWS V14.01,2013-09-20 10:00:00,
2013-09-20 03:01:00,53.8,53.2,29.47,WSW,248,16.3,16.3,98,0.00,,,0.00,VWS V14.01,2013-09-20 10:01:00,
2013-09-20 03:02:00,53.8,53.2,29.47,WSW,248,16.3,16.3,98,0.00,,,0.00,VWS V14.01,2013-09-20 10:02:00,
2013-09-20 03:03:00,53.8,53.2,29.47,WSW,248,16.3,16.3,98,0.00,,,0.00,VWS V14.01,2013-09-20 10:03:00,
2013-09-20 03:04:00,53.8,53.2,29.47,WSW,248,16.3,16.3,98,0.00,,,0.00,VWS V14.01,2013-09-20 10:04:00,
2013-09-20 03:05:00,53.8,53.2,29.47,WSW,248,16.3,16.3,98,0.00,,,0.00,VWS V14.01,2013-09-20 10:05:00,
2013-09-20 03:06:00,53.8,53.2,29.47,WSW,248,16.3,16.3,98,0.00,,,0.00,VWS V14.01,2013-09-20 10:06:00,
2013-09-20 03:07:00,53.8,53.2,29.47,WSW,248,16.3,16.3,98,0.00,,,0.00,VWS V14.01,2013-09-20 10:07:00,
2013-09-20 03:08:00,53.8,53.2,29.47,WSW,248,16.3,16.3,98,0.00,,,0.00,VWS V14.01,2013-09-20 10:08:00,
2013-09-20 03:09:00,53.8,53.2,29.47,WSW,248,16.3,16.3,98,0.00,,,0.00,VWS V14.01,2013-09-20 10:09:00,
2013-09-20 03:10:00,53.8,53.2,29.47,WSW,248,16.3,16.3,98,0.00,,,0.00,VWS V14.01,2013-09-20 10:10:00,
2013-09-20 03:11:00,53.8,53.2,29.47,WNW,292,17.2,17.2,98,0.00,,,0.00,VWS V14.01,2013-09-20 10:11:00,
2013-09-20 03:12:00,53.8,53.2,29.47,SSW,202,15.9,17.2,98,0.00,,,0.00,VWS V14.01,2013-09-20 10:12:00,
2013-09-20 03:13:00,53.8,53.2,29.47,SW,225,18.1,18.1,98,0.00,,,0.00,VWS V14.01,2013-09-20 10:13:00,
2013-09-20 03:14:00,53.8,53.2,29.47,WNW,292,17.7,18.1,98,0.00,,,0.00,VWS V14.01,2013-09-20 10:14:00,
2013-09-20 03:15:00,54.0,53.4,29.47,SW,225,13.6,18.1,98,0.00,,,0.00,VWS V14.01,2013-09-20 10:15:00,
2013-09-20 03:16:00,54.0,53.4,29.47,WSW,248,13.0,17.7,98,0.00,,,0.00,VWS V14.01,2013-09-20 10:16:00,
2013-09-20 03:17:00,54.0,53.4,29.47,WNW,292,12.5,17.7,98,0.00,,,0.00,VWS V14.01,2013-09-20 10:17:00,
2013-09-20 03:18:00,54.0,53.4,29.47,SW,225,12.8,17.0,98,0.00,,,0.00,VWS V14.01,2013-09-20 10:18:00,
2013-09-20 03:19:00,54.0,53.4,29.47,SW,225,10.1,17.0,98,0.00,,,0.00,VWS V14.01,2013-09-20 10:19:00,
2013-09-20 03:20:00,54.0,53.4,29.47,WSW,248,16.6,16.6,98,0.00,,,0.00,VWS V14.01,2013-09-20 10:20:00,
2013-09-20 03:21:00,54.0,53.4,29.47,West,270,13.2,16.6,98,0.00,,,0.00,VWS V14.01,2013-09-20 10:21:00,
2013-09-20 03:22:00,54.0,53.4,29.47,WSW,248,14.5,16.6,98,0.00,,,0.00,VWS V14.01,2013-09-20 10:22:00,
2013-09-20 03:23:00,54.0,53.4,29.47,West,270,10.3,16.6,98,0.00,,,0.00,VWS V14.01,2013-09-20 10:23:00,
2013-09-20 03:24:00,54.0,53.4,29.47,WNW,292,16.8,16.8,98,0.00,,,0.00,VWS V14.01,2013-09-20 10:24:00,
2013-09-20 03:25:00,54.0,53.4,29.47,WSW,248,14.5,16.8,98,0.00,,,0.00,VWS V14.01,2013-09-20 10:25:00,
2013-09-20 03:26:00,54.0,53.4,29.47,WSW,248,14.5,16.8,98,0.00,,,0.00,VWS V14.01,2013-09-20 10:26:00,
2013-09-20 03:27:00,54.0,53.4,29.47,West,270,15.2,16.8,98,0.00,,,0.00,VWS V14.01,2013-09-20 10:27:00,
2013-09-20 03:28:00,54.0,53.4,29.47,WSW,248,15.9,15.9,98,0.00,,,0.00,VWS V14.01,2013-09-20 10:28:00,
2013-09-20 03:29:00,54.0,53.4,29.47,SSW,202,13.2,15.9,98,0.00,,,0.00,VWS V14.01,2013-09-20 10:29:00,
2013-09-20 03:30:00,54.0,53.4,29.47,West,270,17.5,17.5,98,0.00,,,0.00,VWS V14.01,2013-09-20 10:30:00,
2013-09-20 03:31:00,54.0,53.4,29.47,West,270,15.2,19.5,98,0.00,,,0.00,VWS V14.01,2013-09-20 10:31:00,
2013-09-20 03:32:00,54.0,53.4,29.47,West,270,15.2,19.5,98,0.00,,,0.00,VWS V14.01,2013-09-20 10:32:00,
2013-09-20 03:33:00,54.0,53.4,29.47,SW,225,10.5,19.5,98,0.00,,,0.00,VWS V14.01,2013-09-20 10:33:00,
2013-09-20 03:34:00,54.0,53.4,29.47,WSW,248,12.8,19.5,98,0.00,,,0.00,VWS V14.01,2013-09-20 10:34:00,
2013-09-20 03:35:00,54.0,53.4,29.47,WSW,248,14.8,19.5,98,0.00,,,0.00,VWS V14.01,2013-09-20 10:35:00,
2013-09-20 03:36:00,54.0,53.4,29.47,West,270,10.7,14.8,98,0.00,,,0.00,VWS V14.01,2013-09-20 10:36:00,
2013-09-20 03:37:00,54.0,53.4,29.47,West,270,10.7,14.8,98,0.00,,,0.00,VWS V14.01,2013-09-20 10:37:00,
2013-09-20 03:38:00,54.1,53.6,29.47,WSW,248,12.3,14.8,98,0.00,,,0.00,VWS V14.01,2013-09-20 10:38:00,
2013-09-20 03:39:00,54.1,53.6,29.47,WSW,248,8.5,13.4,98,0.00,,,0.00,VWS V14.01,2013-09-20 10:39:00,
2013-09-20 03:40:00,54.1,53.6,29.47,WSW,248,8.5,12.3,98,0.00,,,0.00,VWS V14.01,2013-09-20 10:40:00,
2013-09-20 03:41:00,54.1,53.6,29.47,WSW,248,12.8,12.8,98,0.00,,,0.00,VWS V14.01,2013-09-20 10:41:00,
2013-09-20 03:42:00,54.1,53.6,29.47,SSW,202,15.4,15.4,98,0.00,,,0.00,VWS V14.01,2013-09-20 10:42:00,
2013-09-20 03:43:00,54.1,53.6,29.47,SW,225,15.4,15.4,98,0.00,,,0.00,VWS V14.01,2013-09-20 10:43:00,
2013-09-20 03:44:00,54.1,53.6,29.47,WSW,248,12.8,15.4,98,0.00,,,0.00,VWS V14.01,2013-09-20 10:44:00,
2013-09-20 03:45:00,54.1,53.6,29.47,West,270,15.4,15.4,98,0.00,,,0.00,VWS V14.01,2013-09-20 10:45:00,
2013-09-20 03:46:00,54.1,53.6,29.47,WSW,248,13.0,15.4,98,0.00,,,0.00,VWS V14.01,2013-09-20 10:46:00,
2013-09-20 03:47:00,54.1,53.6,29.47,WNW,292,15.2,15.4,98,0.00,,,0.00,VWS V14.01,2013-09-20 10:47:00,
2013-09-20 03:48:00,54.1,53.6,29.47,West,270,13.6,15.4,98,0.00,,,0.00,VWS V14.01,2013-09-20 10:48:00,
2013-09-20 03:49:00,54.1,53.6,29.47,West,270,13.6,15.2,98,0.00,,,0.00,VWS V14.01,2013-09-20 10:49:00,
2013-09-20 03:50:00,54.1,53.6,29.47,West,270,7.8,15.2,98,0.00,,,0.00,VWS V14.01,2013-09-20 10:50:00,
2013-09-20 03:51:00,54.1,53.6,29.47,WSW,248,10.5,10.5,98,0.00,,,0.00,VWS V14.01,2013-09-20 10:51:00,
2013-09-20 03:52:00,54.1,53.6,29.47,WSW,248,11.0,11.0,98,0.00,,,0.00,VWS V14.01,2013-09-20 10:52:00,
2013-09-20 03:53:00,54.1,53.6,29.47,WSW,248,13.0,13.0,98,0.00,,,0.00,VWS V14.01,2013-09-20 10:53:00,
2013-09-20 03:54:00,54.1,53.6,29.47,WNW,292,13.0,13.0,98,0.00,,,0.00,VWS V14.01,2013-09-20 10:54:00,
2013-09-20 03:55:00,54.1,53.6,29.47,SW,225,12.5,13.0,98,0.00,,,0.00,VWS V14.01,2013-09-20 10:55:00,
2013-09-20 03:56:00,54.1,53.6,29.47,West,270,12.8,13.0,98,0.00,,,0.00,VWS V14.01,2013-09-20 10:56:00,
2013-09-20 03:57:00,54.1,53.6,29.47,WSW,248,9.8,13.0,98,0.00,,,0.00,VWS V14.01,2013-09-20 10:57:00,
2013-09-20 03:58:00,54.1,53.6,29.47,WSW,248,10.1,13.0,98,0.00,,,0.00,VWS V14.01,2013-09-20 10:58:00,
2013-09-20 03:59:00,54.1,53.6,29.47,WSW,248,8.7,12.8,98,0.00,,,0.00,VWS V14.01,2013-09-20 10:59:00,
2013-09-20 04:00:00,54.1,53.6,29.47,West,270,12.5,12.8,98,0.00,,,0.00,VWS V14.01,2013-09-20 11:00:00,
2013-09-20 04:01:00,54.1,53.6,29.47,WSW,248,12.3,12.5,98,0.00,,,0.00,VWS V14.01,2013-09-20 11:01:00,
2013-09-20 04:02:00,54.1,53.6,29.47,West,270,13.2,13.2,98,0.00,,,0.00,VWS V14.01,2013-09-20 11:02:00,
2013-09-20 04:03:00,54.0,53.4,29.47,West,270,9.8,13.2,98,0.00,,,0.00,VWS V14.01,2013-09-20 11:03:00,
2013-09-20 04:04:00,54.0,53.4,29.47,West,270,7.4,13.2,98,0.00,,,0.00,VWS V14.01,2013-09-20 11:04:00,
2013-09-20 04:05:00,54.0,53.4,29.47,WSW,248,8.7,13.2,98,0.00,,,0.00,VWS V14.01,2013-09-20 11:05:00,
2013-09-20 04:06:00,54.0,53.4,29.47,WSW,248,13.2,13.2,98,0.00,,,0.00,VWS V14.01,2013-09-20 11:06:00,
2013-09-20 04:07:00,54.0,53.4,29.47,SW,225,10.3,13.2,98,0.00,,,0.00,VWS V14.01,2013-09-20 11:07:00,
2013-09-20 04:08:00,54.0,53.4,29.47,WNW,292,10.5,13.2,98,0.00,,,0.00,VWS V14.01,2013-09-20 11:08:00,
2013-09-20 04:09:00,54.0,53.4,29.47,WSW,248,9.4,13.2,98,0.00,,,0.00,VWS V14.01,2013-09-20 11:09:00,
2013-09-20 04:10:00,54.0,53.4,29.47,WSW,248,9.2,10.7,98,0.00,,,0.00,VWS V14.01,2013-09-20 11:10:00,
2013-09-20 04:11:00,54.0,53.4,29.47,WSW,248,14.8,14.8,98,0.00,,,0.00,VWS V14.01,2013-09-20 11:11:00,
2013-09-20 04:12:00,54.0,53.4,29.47,WNW,292,11.4,14.8,98,0.00,,,0.00,VWS V14.01,2013-09-20 11:12:00,
2013-09-20 04:13:00,54.0,53.4,29.47,West,270,17.2,17.2,98,0.00,,,0.00,VWS V14.01,2013-09-20 11:13:00,
2013-09-20 04:14:00,54.0,53.4,29.47,SW,225,9.8,17.2,98,0.00,,,0.00,VWS V14.01,2013-09-20 11:14:00,
2013-09-20 04:15:00,54.0,53.4,29.47,SW,225,9.8,17.2,98,0.00,,,0.00,VWS V14.01,2013-09-20 11:15:00,
2013-09-20 04:16:00,54.0,53.4,29.47,WNW,292,8.7,17.2,98,0.00,,,0.00,VWS V14.01,2013-09-20 11:16:00,
2013-09-20 04:17:00,54.0,53.4,29.47,WNW,292,8.7,8.7,98,0.00,,,0.00,VWS V14.01,2013-09-20 11:17:00,
2013-09-20 04:18:00,54.0,53.4,29.47,West,270,10.7,10.7,98,0.00,,,0.00,VWS V14.01,2013-09-20 11:18:00,
2013-09-20 04:19:00,54.0,53.4,29.47,West,270,9.0,10.7,98,0.00,,,0.00,VWS V14.01,2013-09-20 11:19:00,
2013-09-20 04:20:00,54.0,53.4,29.47,WSW,248,12.5,12.5,98,0.00,,,0.00,VWS V14.01,2013-09-20 11:20:00,
2013-09-20 04:21:00,54.0,53.4,29.47,WSW,248,16.3,16.3,98,0.00,,,0.00,VWS V14.01,2013-09-20 11:21:00,
2013-09-20 04:22:00,54.1,53.6,29.47,West,270,6.5,16.3,98,0.00,,,0.00,VWS V14.01,2013-09-20 11:22:00,
2013-09-20 04:23:00,54.1,53.6,29.47,West,270,12.5,16.3,98,0.00,,,0.00,VWS V14.01,2013-09-20 11:23:00,
2013-09-20 04:24:00,54.1,53.6,29.47,WSW,248,17.5,17.5,98,0.00,,,0.00,VWS V14.01,2013-09-20 11:24:00,
2013-09-20 04:25:00,54.1,53.6,29.47,WSW,248,12.8,17.5,98,0.00,,,0.00,VWS V14.01,2013-09-20 11:25:00,
2013-09-20 04:26:00,54.1,53.6,29.47,WSW,248,9.8,17.5,98,0.00,,,0.00,VWS V14.01,2013-09-20 11:26:00,
2013-09-20 04:27:00,54.1,53.6,29.47,WNW,292,9.0,12.8,98,0.00,,,0.00,VWS V14.01,2013-09-20 11:27:00,
2013-09-20 04:28:00,54.1,53.6,29.47,West,270,10.3,12.8,98,0.00,,,0.00,VWS V14.01,2013-09-20 11:28:00,
2013-09-20 04:29:00,54.1,53.6,29.47,West,270,8.5,10.3,98,0.00,,,0.00,VWS V14.01,2013-09-20 11:29:00,
2013-09-20 04:30:00,54.3,53.8,29.47,WSW,248,16.6,16.6,98,0.00,,,0.00,VWS V14.01,2013-09-20 11:30:00,
2013-09-20 04:31:00,54.3,53.8,29.47,WNW,292,10.1,16.6,98,0.00,,,0.00,VWS V14.01,2013-09-20 11:31:00,
2013-09-20 04:32:00,54.3,53.8,29.47,West,270,11.0,16.6,98,0.00,,,0.00,VWS V14.01,2013-09-20 11:32:00,
2013-09-20 04:33:00,54.3,53.8,29.47,West,270,11.0,16.6,98,0.00,,,0.00,VWS V14.01,2013-09-20 11:33:00,
2013-09-20 04:34:00,54.3,53.8,29.47,West,270,13.2,13.2,98,0.00,,,0.00,VWS V14.01,2013-09-20 11:34:00,
2013-09-20 04:35:00,54.7,54.1,29.47,West,270,12.5,13.2,98,0.00,,,0.00,VWS V14.01,2013-09-20 11:35:00,
2013-09-20 04:36:00,54.7,54.1,29.50,SSW,202,14.8,14.8,98,0.00,,,0.00,VWS V14.01,2013-09-20 11:36:00,
2013-09-20 04:37:00,54.7,54.1,29.50,WNW,292,6.5,14.8,98,0.00,,,0.00,VWS V14.01,2013-09-20 11:37:00,
2013-09-20 04:38:00,54.9,54.3,29.50,WNW,292,6.5,14.8,98,0.00,,,0.00,VWS V14.01,2013-09-20 11:38:00,
2013-09-20 04:39:00,54.9,54.3,29.50,WNW,292,6.5,14.8,98,0.00,,,0.00,VWS V14.01,2013-09-20 11:39:00,
2013-09-20 04:40:00,54.9,54.3,29.50,West,270,9.2,14.8,98,0.00,,,0.00,VWS V14.01,2013-09-20 11:40:00,
2013-09-20 04:41:00,54.9,54.3,29.50,WSW,248,9.6,9.6,98,0.00,,,0.00,VWS V14.01,2013-09-20 11:41:00,
2013-09-20 04:42:00,55.0,54.5,29.50,WSW,248,9.6,9.6,98,0.00,,,0.00,VWS V14.01,2013-09-20 11:42:00,
2013-09-20 04:43:00,55.0,54.5,29.50,WNW,292,12.1,12.1,98,0.00,,,0.00,VWS V14.01,2013-09-20 11:43:00,
2013-09-20 04:44:00,55.0,54.5,29.50,West,270,13.0,13.0,98,0.00,,,0.00,VWS V14.01,2013-09-20 11:44:00,
2013-09-20 04:45:00,55.0,54.5,29.50,West,270,13.0,13.0,98,0.00,,,0.00,VWS V14.01,2013-09-20 11:45:00,
2013-09-20 04:46:00,55.0,54.5,29.50,WSW,248,14.1,14.1,98,0.00,,,0.00,VWS V14.01,2013-09-20 11:46:00,
2013-09-20 04:47:00,55.0,54.5,29.50,West,270,17.0,17.0,98,0.00,,,0.00,VWS V14.01,2013-09-20 11:47:00,
2013-09-20 04:48:00,55.0,54.5,29.50,WSW,248,7.6,17.0,98,0.00,,,0.00,VWS V14.01,2013-09-20 11:48:00,
2013-09-20 04:49:00,55.0,54.5,29.50,West,270,13.2,17.0,98,0.00,,,0.00,VWS V14.01,2013-09-20 11:49:00,
2013-09-20 04:50:00,55.0,54.5,29.50,WNW,292,7.8,17.0,98,0.00,,,0.00,VWS V14.01,2013-09-20 11:50:00,
2013-09-20 04:51:00,55.0,54.5,29.50,SW,225,10.5,13.2,98,0.00,,,0.00,VWS V14.01,2013-09-20 11:51:00,
2013-09-20 04:52:00,55.0,54.5,29.50,SW,225,10.5,13.2,98,0.00,,,0.00,VWS V14.01,2013-09-20 11:52:00,
2013-09-20 04:53:00,55.0,54.5,29.50,WNW,292,13.0,13.2,98,0.00,,,0.00,VWS V14.01,2013-09-20 11:53:00,
2013-09-20 04:54:00,55.0,54.5,29.50,WSW,248,13.2,13.2,98,0.00,,,0.00,VWS V14.01,2013-09-20 11:54:00,
2013-09-20 04:55:00,55.0,54.5,29.50,WSW,248,13.2,13.2,98,0.00,,,0.00,VWS V14.01,2013-09-20 11:55:00,
2013-09-20 04:56:00,55.2,54.7,29.50,WNW,292,10.5,13.2,98,0.00,,,0.00,VWS V14.01,2013-09-20 11:56:00,
2013-09-20 04:57:00,55.2,54.7,29.50,WNW,292,10.5,13.2,98,0.00,,,0.00,VWS V14.01,2013-09-20 11:57:00,
2013-09-20 04:58:00,55.2,54.7,29.50,West,270,9.6,13.2,98,0.00,,,0.00,VWS V14.01,2013-09-20 11:58:00,
2013-09-20 04:59:00,55.2,54.7,29.50,WSW,248,7.6,13.2,98,0.00,,,0.00,VWS V14.01,2013-09-20 11:59:00,
2013-09-20 05:00:00,55.2,54.7,29.50,West,270,7.2,7.6,98,0.00,,,0.00,VWS V14.01,2013-09-20 12:00:00,
2013-09-20 05:01:00,55.2,54.7,29.50,West,270,7.6,7.6,98,0.00,,,0.00,VWS V14.01,2013-09-20 12:01:00,
2013-09-20 05:02:00,55.2,54.7,29.50,NW,315,10.3,10.3,98,0.00,,,0.00,VWS V14.01,2013-09-20 12:02:00,
2013-09-20 05:03:00,55.2,54.7,29.50,NW,315,10.3,10.3,98,0.00,,,0.00,VWS V14.01,2013-09-20 12:03:00,
2013-09-20 05:04:00,55.2,54.7,29.50,WNW,292,8.1,10.3,98,0.00,,,0.00,VWS V14.01,2013-09-20 12:04:00,
2013-09-20 05:05:00,55.2,54.7,29.50,WNW,292,5.8,8.1,98,0.00,,,0.00,VWS V14.01,2013-09-20 12:05:00,
2013-09-20 05:06:00,55.2,54.7,29.47,WSW,248,9.6,9.6,98,0.00,,,0.00,VWS V14.01,2013-09-20 12:06:00,
2013-09-20 05:07:00,55.4,54.8,29.47,West,270,9.6,9.6,98,0.00,,,0.00,VWS V14.01,2013-09-20 12:07:00,
2013-09-20 05:08:00,55.4,54.8,29.47,West,270,15.2,15.2,98,0.00,,,0.00,VWS V14.01,2013-09-20 12:08:00,
2013-09-20 05:09:00,55.4,54.8,29.47,WNW,292,8.1,15.2,98,0.00,,,0.00,VWS V14.01,2013-09-20 12:09:00,
2013-09-20 05:10:00,55.4,54.8,29.47,WSW,248,9.8,15.2,98,0.00,,,0.00,VWS V14.01,2013-09-20 12:10:00,
2013-09-20 05:11:00,55.4,54.8,29.47,WSW,248,12.5,15.2,98,0.00,,,0.00,VWS V14.01,2013-09-20 12:11:00,
2013-09-20 05:12:00,55.4,54.8,29.47,WNW,292,14.8,14.8,98,0.00,,,0.00,VWS V14.01,2013-09-20 12:12:00,
2013-09-20 05:13:00,55.4,54.8,29.47,WSW,248,14.5,14.8,98,0.00,,,0.00,VWS V14.01,2013-09-20 12:13:00,
2013-09-20 05:14:00,55.6,55.0,29.47,WNW,292,13.4,14.8,98,0.00,,,0.00,VWS V14.01,2013-09-20 12:14:00,
2013-09-20 05:15:00,55.6,55.0,29.47,WNW,292,11.4,14.8,98,0.00,,,0.00,VWS V14.01,2013-09-20 12:15:00,
2013-09-20 05:16:00,55.6,55.0,29.47,WNW,292,8.1,14.5,98,0.00,,,0.00,VWS V14.01,2013-09-20 12:16:00,
2013-09-20 05:17:00,55.6,55.0,29.47,WSW,248,14.1,14.1,98,0.00,,,0.00,VWS V14.01,2013-09-20 12:17:00,
2013-09-20 05:18:00,55.6,55.0,29.47,WSW,248,12.5,14.1,98,0.00,,,0.00,VWS V14.01,2013-09-20 12:18:00,
2013-09-20 05:19:00,55.6,55.0,29.47,WSW,248,12.5,12.5,98,0.00,,,0.00,VWS V14.01,2013-09-20 12:19:00,
2013-09-20 05:20:00,55.6,55.0,29.47,WSW,248,10.3,12.5,98,0.00,,,0.00,VWS V14.01,2013-09-20 12:20:00,
2013-09-20 05:21:00,55.6,55.0,29.50,WNW,292,8.7,10.3,98,0.00,,,0.00,VWS V14.01,2013-09-20 12:21:00,
2013-09-20 05:22:00,55.6,55.0,29.50,West,270,8.1,8.7,98,0.00,,,0.00,VWS V14.01,2013-09-20 12:22:00,
2013-09-20 05:23:00,55.6,55.0,29.50,WSW,248,7.8,8.7,98,0.00,,,0.00,VWS V14.01,2013-09-20 12:23:00,
2013-09-20 05:24:00,55.6,55.0,29.50,WSW,248,7.8,8.7,98,0.00,,,0.00,VWS V14.01,2013-09-20 12:24:00,
2013-09-20 05:25:00,55.6,55.0,29.50,WNW,292,11.0,11.0,98,0.00,,,0.00,VWS V14.01,2013-09-20 12:25:00,
2013-09-20 05:26:00,55.8,55.2,29.50,WSW,248,10.1,11.0,98,0.00,,,0.00,VWS V14.01,2013-09-20 12:26:00,
2013-09-20 05:27:00,55.8,55.2,29.50,WSW,248,13.9,13.9,98,0.00,,,0.00,VWS V14.01,2013-09-20 12:27:00,
2013-09-20 05:28:00,55.8,55.2,29.50,West,270,10.3,13.9,98,0.00,,,0.00,VWS V14.01,2013-09-20 12:28:00,
2013-09-20 05:29:00,55.8,55.2,29.50,West,270,10.3,13.9,98,0.00,,,0.00,VWS V14.01,2013-09-20 12:29:00,
2013-09-20 05:30:00,55.8,55.2,29.50,SW,225,7.8,10.3,98,0.00,,,0.00,VWS V14.01,2013-09-20 12:30:00,
2013-09-20 05:31:00,55.8,55.2,29.50,West,270,9.4,10.3,98,0.00,,,0.00,VWS V14.01,2013-09-20 12:31:00,
2013-09-20 05:32:00,55.8,55.2,29.50,West,270,10.1,10.1,98,0.00,,,0.00,VWS V14.01,2013-09-20 12:32:00,
2013-09-20 05:33:00,55.9,55.4,29.50,West,270,10.1,10.1,98,0.00,,,0.00,VWS V14.01,2013-09-20 12:33:00,
2013-09-20 05:34:00,55.9,55.4,29.50,West,270,10.1,10.1,98,0.00,,,0.00,VWS V14.01,2013-09-20 12:34:00,
2013-09-20 05:35:00,55.9,55.4,29.50,SW,225,10.5,10.5,98,0.00,,,0.00,VWS V14.01,2013-09-20 12:35:00,
2013-09-20 05:36:00,55.9,55.4,29.50,SW,225,10.5,10.5,98,0.00,,,0.00,VWS V14.01,2013-09-20 12:36:00,
2013-09-20 05:37:00,55.9,55.4,29.50,WNW,292,10.3,10.5,98,0.00,,,0.00,VWS V14.01,2013-09-20 12:37:00,
2013-09-20 05:38:00,55.9,55.4,29.50,WNW,292,10.3,10.3,98,0.00,,,0.00,VWS V14.01,2013-09-20 12:38:00,
2013-09-20 05:39:00,55.9,55.4,29.50,WNW,292,10.3,10.3,98,0.00,,,0.00,VWS V14.01,2013-09-20 12:39:00,
2013-09-20 05:40:00,55.9,55.4,29.50,WNW,292,10.3,10.3,98,0.00,,,0.00,VWS V14.01,2013-09-20 12:40:00,
2013-09-20 05:41:00,55.9,55.4,29.50,WNW,292,10.3,10.3,98,0.00,,,0.00,VWS V14.01,2013-09-20 12:41:00,
2013-09-20 05:42:00,56.1,55.6,29.50,WNW,292,10.3,10.3,98,0.00,,,0.00,VWS V14.01,2013-09-20 12:42:00,
2013-09-20 05:43:00,56.1,55.6,29.50,WNW,292,10.3,10.3,98,0.00,,,0.00,VWS V14.01,2013-09-20 12:43:00,
2013-09-20 05:44:00,56.1,55.6,29.50,WNW,292,10.3,10.3,98,0.00,,,0.00,VWS V14.01,2013-09-20 12:44:00,
2013-09-20 05:45:00,56.3,55.7,29.50,WNW,292,10.3,10.3,98,0.00,,,0.00,VWS V14.01,2013-09-20 12:45:00,
2013-09-20 05:46:00,56.3,55.8,29.50,WNW,292,10.3,10.3,98,0.00,,,0.00,VWS V14.01,2013-09-20 12:46:00,
2013-09-20 05:47:00,56.3,55.7,29.50,WNW,292,10.3,10.3,98,0.00,,,0.00,VWS V14.01,2013-09-20 12:47:00,
2013-09-20 05:48:00,56.3,55.7,29.50,WNW,292,10.3,10.3,98,0.00,,,0.00,VWS V14.01,2013-09-20 12:48:00,
2013-09-20 05:49:00,56.3,55.7,29.50,WNW,292,10.3,10.3,98,0.00,,,0.00,VWS V14.01,2013-09-20 12:49:00,
2013-09-20 05:50:00,56.3,55.7,29.50,WSW,248,8.7,10.3,98,0.00,,,0.00,VWS V14.01,2013-09-20 12:50:00,
2013-09-20 05:51:00,56.3,55.8,29.50,WSW,248,5.4,8.7,98,0.00,,,0.00,VWS V14.01,2013-09-20 12:51:00,
2013-09-20 05:52:00,56.3,55.7,29.50,WSW,248,5.4,5.4,98,0.00,,,0.00,VWS V14.01,2013-09-20 12:52:00,
2013-09-20 05:53:00,56.3,55.7,29.50,WSW,248,5.4,5.4,98,0.00,,,0.00,VWS V14.01,2013-09-20 12:53:00,
2013-09-20 05:54:00,56.3,55.7,29.50,West,270,5.4,5.4,98,0.00,,,0.00,VWS V14.01,2013-09-20 12:54:00,
2013-09-20 05:55:00,56.3,55.7,29.50,West,270,5.4,5.4,98,0.00,,,0.00,VWS V14.01,2013-09-20 12:55:00,
2013-09-20 05:56:00,56.5,55.9,29.50,WNW,292,8.1,8.1,98,0.00,,,0.00,VWS V14.01,2013-09-20 12:56:00,
2013-09-20 05:57:00,56.5,55.9,29.50,WNW,292,8.5,8.5,98,0.00,,,0.00,VWS V14.01,2013-09-20 12:57:00,
2013-09-20 05:58:00,56.5,55.9,29.50,WNW,292,6.9,8.5,98,0.00,,,0.00,VWS V14.01,2013-09-20 12:58:00,
2013-09-20 05:59:00,56.5,55.9,29.50,WNW,292,6.0,8.5,98,0.00,,,0.00,VWS V14.01,2013-09-20 12:59:00,
2013-09-20 06:00:00,56.5,55.9,29.50,NNE,22,6.0,8.5,98,0.00,,,0.00,VWS V14.01,2013-09-20 13:00:00,
2013-09-20 06:01:00,56.5,55.9,29.50,NNE,22,6.0,8.5,98,0.00,,,0.00,VWS V14.01,2013-09-20 13:01:00,
2013-09-20 06:02:00,56.5,55.9,29.50,WNW,292,10.3,10.3,98,0.00,,,0.00,VWS V14.01,2013-09-20 13:02:00,
2013-09-20 06:03:00,56.5,55.9,29.50,West,270,4.7,10.3,98,0.00,,,0.00,VWS V14.01,2013-09-20 13:03:00,
2013-09-20 06:04:00,56.5,55.9,29.50,WNW,292,8.5,10.3,98,0.00,,,0.00,VWS V14.01,2013-09-20 13:04:00,
2013-09-20 06:05:00,56.7,56.1,29.50,SW,225,10.1,10.3,98,0.00,,,0.00,VWS V14.01,2013-09-20 13:05:00,
2013-09-20 06:06:00,56.7,56.1,29.50,WNW,292,7.4,10.1,98,0.00,,,0.00,VWS V14.01,2013-09-20 13:06:00,
2013-09-20 06:07:00,56.7,56.1,29.50,WNW,292,7.4,10.1,98,0.00,,,0.00,VWS V14.01,2013-09-20 13:07:00,
2013-09-20 06:08:00,56.7,56.1,29.50,SW,225,5.8,10.1,98,0.00,,,0.00,VWS V14.01,2013-09-20 13:08:00,
2013-09-20 06:09:00,56.7,56.1,29.50,SW,225,5.8,7.4,98,0.00,,,0.00,VWS V14.01,2013-09-20 13:09:00,
2013-09-20 06:10:00,56.7,56.1,29.50,SW,225,5.8,5.8,98,0.00,,,0.00,VWS V14.01,2013-09-20 13:10:00,
2013-09-20 06:11:00,56.7,56.1,29.50,WNW,292,7.2,7.2,98,0.00,,,0.00,VWS V14.01,2013-09-20 13:11:00,
2013-09-20 06:12:00,56.7,56.1,29.50,WNW,292,6.7,7.2,98,0.00,,,0.00,VWS V14.01,2013-09-20 13:12:00,
2013-09-20 06:13:00,56.7,56.1,29.50,NW,315,4.9,7.2,98,0.00,,,0.00,VWS V14.01,2013-09-20 13:13:00,
2013-09-20 06:14:00,56.7,56.1,29.50,WSW,248,10.1,10.1,98,0.00,,,0.00,VWS V14.01,2013-09-20 13:14:00,
2013-09-20 06:15:00,56.7,56.1,29.50,WNW,292,7.8,10.1,98,0.00,,,0.00,VWS V14.01,2013-09-20 13:15:00,
2013-09-20 06:16:00,56.7,56.1,29.50,NW,315,8.5,10.1,98,0.00,,,0.00,VWS V14.01,2013-09-20 13:16:00,
2013-09-20 06:17:00,56.7,56.1,29.50,NW,315,8.5,8.5,98,0.00,,,0.00,VWS V14.01,2013-09-20 13:17:00,
2013-09-20 06:18:00,56.7,56.1,29.50,NW,315,8.5,8.5,98,0.00,,,0.00,VWS V14.01,2013-09-20 13:18:00,
2013-09-20 06:19:00,56.7,56.1,29.50,NW,315,8.5,8.5,98,0.00,,,0.00,VWS V14.01,2013-09-20 13:19:00,
2013-09-20 06:20:00,56.7,56.1,29.50,NW,315,8.5,8.5,98,0.00,,,0.00,VWS V14.01,2013-09-20 13:20:00,
2013-09-20 06:21:00,56.7,56.1,29.50,NW,315,8.5,8.5,98,0.00,,,0.00,VWS V14.01,2013-09-20 13:21:00,
2013-09-20 06:22:00,56.7,56.1,29.50,NW,315,8.5,8.5,98,0.00,,,0.00,VWS V14.01,2013-09-20 13:22:00,
2013-09-20 06:23:00,56.7,56.1,29.50,NW,315,8.5,8.5,98,0.00,,,0.00,VWS V14.01,2013-09-20 13:23:00,
2013-09-20 06:24:00,56.7,56.1,29.50,NW,315,8.5,8.5,98,0.00,,,0.00,VWS V14.01,2013-09-20 13:24:00,
2013-09-20 06:25:00,56.7,56.1,29.50,West,270,10.7,10.7,98,0.00,,,0.00,VWS V14.01,2013-09-20 13:25:00,
2013-09-20 06:26:00,56.7,56.1,29.50,West,270,10.7,10.7,98,0.00,,,0.00,VWS V14.01,2013-09-20 13:26:00,
2013-09-20 06:27:00,56.7,56.1,29.50,West,270,10.7,10.7,98,0.00,,,0.00,VWS V14.01,2013-09-20 13:27:00,
2013-09-20 06:28:00,56.7,56.1,29.50,WNW,292,7.4,10.7,98,0.00,,,0.00,VWS V14.01,2013-09-20 13:28:00,
2013-09-20 06:29:00,56.7,56.1,29.50,South,180,12.5,12.5,98,0.00,,,0.00,VWS V14.01,2013-09-20 13:29:00,
2013-09-20 06:30:00,56.7,56.1,29.50,South,180,12.5,12.5,98,0.00,,,0.00,VWS V14.01,2013-09-20 13:30:00,
2013-09-20 06:31:00,56.7,56.1,29.50,South,180,12.5,12.5,98,0.00,,,0.00,VWS V14.01,2013-09-20 13:31:00,
2013-09-20 06:32:00,56.7,56.1,29.50,WSW,248,5.6,12.5,98,0.00,,,0.00,VWS V14.01,2013-09-20 13:32:00,
2013-09-20 06:33:00,56.7,56.1,29.50,WSW,248,5.6,12.5,98,0.00,,,0.00,VWS V14.01,2013-09-20 13:33:00,
2013-09-20 06:34:00,56.7,56.1,29.50,WNW,292,8.7,12.5,98,0.00,,,0.00,VWS V14.01,2013-09-20 13:34:00,
2013-09-20 06:35:00,56.7,56.1,29.50,WNW,292,8.7,8.7,98,0.00,,,0.00,VWS V14.01,2013-09-20 13:35:00,
2013-09-20 06:36:00,56.7,56.1,29.50,WNW,292,8.7,8.7,98,0.00,,,0.00,VWS V14.01,2013-09-20 13:36:00,
2013-09-20 06:37:00,56.7,56.1,29.50,WNW,292,8.7,8.7,98,0.00,,,0.00,VWS V14.01,2013-09-20 13:37:00,
2013-09-20 06:38:00,56.7,56.1,29.50,WSW,248,7.2,8.7,98,0.00,,,0.00,VWS V14.01,2013-09-20 13:38:00,
2013-09-20 06:39:00,56.7,56.1,29.50,WSW,248,7.2,8.7,98,0.00,,,0.00,VWS V14.01,2013-09-20 13:39:00,
2013-09-20 06:40:00,56.7,56.1,29.50,WSW,248,7.2,7.2,98,0.00,,,0.00,VWS V14.01,2013-09-20 13:40:00,
2013-09-20 06:41:00,56.7,56.1,29.50,WSW,248,7.2,7.2,98,0.00,,,0.00,VWS V14.01,2013-09-20 13:41:00,
2013-09-20 06:42:00,56.7,56.1,29.50,WSW,248,7.2,7.2,98,0.00,,,0.00,VWS V14.01,2013-09-20 13:42:00,
2013-09-20 06:43:00,56.7,56.1,29.50,WSW,248,7.2,7.2,98,0.00,,,0.00,VWS V14.01,2013-09-20 13:43:00,
2013-09-20 06:44:00,56.7,56.1,29.50,WNW,292,4.3,7.2,98,0.00,,,0.00,VWS V14.01,2013-09-20 13:44:00,
2013-09-20 06:45:00,56.7,56.1,29.50,WNW,292,4.3,7.2,98,0.00,,,0.00,VWS V14.01,2013-09-20 13:45:00,
2013-09-20 06:46:00,56.7,56.1,29.50,WNW,292,3.8,4.3,98,0.00,,,0.00,VWS V14.01,2013-09-20 13:46:00,
2013-09-20 06:47:00,56.7,56.1,29.50,WNW,292,3.8,3.8,98,0.00,,,0.00,VWS V14.01,2013-09-20 13:47:00,
2013-09-20 06:48:00,56.7,56.1,29.50,WNW,292,3.8,3.8,98,0.00,,,0.00,VWS V14.01,2013-09-20 13:48:00,
2013-09-20 06:49:00,56.7,56.1,29.50,WSW,248,2.7,2.7,98,0.00,,,0.00,VWS V14.01,2013-09-20 13:49:00,
2013-09-20 06:50:00,56.7,56.1,29.50,WSW,248,6.3,6.3,98,0.00,,,0.00,VWS V14.01,2013-09-20 13:50:00,
2013-09-20 06:51:00,56.7,56.1,29.50,WSW,248,9.8,9.8,98,0.00,,,0.00,VWS V14.01,2013-09-20 13:51:00,
2013-09-20 06:52:00,56.7,56.1,29.50,West,270,6.0,9.8,98,0.00,,,0.00,VWS V14.01,2013-09-20 13:52:00,
2013-09-20 06:53:00,56.7,56.1,29.50,West,270,5.8,6.0,98,0.00,,,0.00,VWS V14.01,2013-09-20 13:53:00,
2013-09-20 06:54:00,56.7,56.1,29.50,WNW,292,3.8,6.0,98,0.00,,,0.00,VWS V14.01,2013-09-20 13:54:00,
2013-09-20 06:55:00,56.7,56.1,29.50,WNW,292,3.4,5.8,98,0.00,,,0.00,VWS V14.01,2013-09-20 13:55:00,
2013-09-20 06:56:00,56.7,56.1,29.50,SSW,202,6.9,6.9,98,0.00,,,0.00,VWS V14.01,2013-09-20 13:56:00,
2013-09-20 06:57:00,56.7,56.1,29.50,SSW,202,6.9,6.9,98,0.00,,,0.00,VWS V14.01,2013-09-20 13:57:00,
2013-09-20 06:58:00,56.7,56.1,29.50,SSW,202,6.9,6.9,98,0.00,,,0.00,VWS V14.01,2013-09-20 13:58:00,
2013-09-20 06:59:00,56.7,56.1,29.50,WNW,292,3.1,6.9,98,0.00,,,0.00,VWS V14.01,2013-09-20 13:59:00,
2013-09-20 07:00:00,56.7,56.1,29.50,WNW,292,3.6,6.9,98,0.00,,,0.00,VWS V14.01,2013-09-20 14:00:00,
2013-09-20 07:01:00,56.7,56.1,29.50,WNW,292,3.6,6.9,98,0.00,,,0.00,VWS V14.01,2013-09-20 14:01:00,
2013-09-20 07:02:00,56.7,56.1,29.50,WNW,292,3.6,6.9,98,0.00,,,0.00,VWS V14.01,2013-09-20 14:02:00,
2013-09-20 07:03:00,56.7,56.1,29.50,WNW,292,3.6,3.6,98,0.00,,,0.00,VWS V14.01,2013-09-20 14:03:00,
2013-09-20 07:04:00,56.7,56.1,29.50,WNW,292,3.6,3.6,98,0.00,,,0.00,VWS V14.01,2013-09-20 14:04:00,
2013-09-20 07:05:00,56.7,56.1,29.50,WSW,248,7.8,7.8,98,0.00,,,0.00,VWS V14.01,2013-09-20 14:05:00,
2013-09-20 07:06:00,56.7,56.1,29.53,West,270,3.6,7.8,98,0.00,,,0.00,VWS V14.01,2013-09-20 14:06:00,
2013-09-20 07:07:00,56.7,56.1,29.53,West,270,3.6,7.8,98,0.00,,,0.00,VWS V14.01,2013-09-20 14:07:00,
2013-09-20 07:08:00,56.7,56.1,29.53,WNW,292,7.4,7.8,98,0.00,,,0.00,VWS V14.01,2013-09-20 14:08:00,
2013-09-20 07:09:00,56.7,56.1,29.53,WNW,292,8.1,10.5,98,0.00,,,0.00,VWS V14.01,2013-09-20 14:09:00,
2013-09-20 07:10:00,56.7,56.1,29.53,WNW,292,11.0,11.0,98,0.00,,,0.00,VWS V14.01,2013-09-20 14:10:00,
2013-09-20 07:11:00,56.7,56.1,29.53,SW,225,7.6,11.0,98,0.00,,,0.00,VWS V14.01,2013-09-20 14:11:00,
2013-09-20 07:12:00,56.7,56.1,29.53,WSW,248,9.0,11.0,98,0.00,,,0.00,VWS V14.01,2013-09-20 14:12:00,
2013-09-20 07:13:00,56.7,56.1,29.53,WNW,292,8.5,11.0,98,0.00,,,0.00,VWS V14.01,2013-09-20 14:13:00,
2013-09-20 07:14:00,56.7,56.1,29.53,WSW,248,10.3,11.0,98,0.00,,,0.00,VWS V14.01,2013-09-20 14:14:00,
2013-09-20 07:15:00,56.7,56.1,29.53,WNW,292,4.7,10.3,98,0.00,,,0.00,VWS V14.01,2013-09-20 14:15:00,
2013-09-20 07:16:00,56.7,56.1,29.53,West,270,8.7,10.3,98,0.00,,,0.00,VWS V14.01,2013-09-20 14:16:00,
2013-09-20 07:17:00,56.7,56.1,29.53,WSW,248,5.8,10.3,98,0.00,,,0.00,VWS V14.01,2013-09-20 14:17:00,
2013-09-20 07:18:00,56.7,56.1,29.53,West,270,6.0,8.7,98,0.00,,,0.00,VWS V14.01,2013-09-20 14:18:00,
2013-09-20 07:19:00,56.7,56.1,29.53,WSW,248,4.3,8.7,98,0.00,,,0.00,VWS V14.01,2013-09-20 14:19:00,
2013-09-20 07:20:00,56.7,56.1,29.53,SW,225,5.6,6.0,98,0.00,,,0.00,VWS V14.01,2013-09-20 14:20:00,
2013-09-20 07:21:00,56.7,56.1,29.53,SW,225,5.6,6.0,98,0.00,,,0.00,VWS V14.01,2013-09-20 14:21:00,
2013-09-20 07:22:00,56.7,56.1,29.53,WSW,248,6.0,10.3,98,0.00,,,0.00,VWS V14.01,2013-09-20 14:22:00,
2013-09-20 07:24:00,56.7,56.1,29.53,WSW,248,6.0,10.3,98,0.00,,,0.00,VWS V14.01,2013-09-20 14:24:00,
2013-09-20 07:25:00,56.7,56.1,29.53,WSW,248,6.0,10.3,98,0.00,,,0.00,VWS V14.01,2013-09-20 14:25:00,
2013-09-20 07:26:00,56.7,56.1,29.53,WSW,248,6.0,10.3,98,0.00,,,0.00,VWS V14.01,2013-09-20 14:26:00,
2013-09-20 07:27:00,56.7,56.1,29.53,WNW,292,8.7,10.3,98,0.00,,,0.00,VWS V14.01,2013-09-20 14:27:00,
2013-09-20 07:28:00,56.8,56.3,29.53,WNW,292,8.7,10.3,98,0.00,,,0.00,VWS V14.01,2013-09-20 14:28:00,
2013-09-20 07:29:00,56.8,56.3,29.53,West,270,9.0,9.0,98,0.00,,,0.00,VWS V14.01,2013-09-20 14:29:00,
2013-09-20 07:30:00,56.8,56.3,29.53,WSW,248,9.2,9.2,98,0.00,,,0.00,VWS V14.01,2013-09-20 14:30:00,
2013-09-20 07:31:00,56.8,56.3,29.53,WSW,248,9.2,9.2,98,0.00,,,0.00,VWS V14.01,2013-09-20 14:31:00,
2013-09-20 07:32:00,56.8,56.3,29.53,WSW,248,9.2,9.2,98,0.00,,,0.00,VWS V14.01,2013-09-20 14:32:00,
2013-09-20 07:33:00,56.8,56.3,29.53,WSW,248,9.2,9.2,98,0.00,,,0.00,VWS V14.01,2013-09-20 14:33:00,
2013-09-20 07:34:00,56.8,56.3,29.53,WSW,248,9.2,9.2,98,0.00,,,0.00,VWS V14.01,2013-09-20 14:34:00,
2013-09-20 07:35:00,56.8,56.3,29.53,WSW,248,5.4,9.2,98,0.00,,,0.00,VWS V14.01,2013-09-20 14:35:00,
2013-09-20 07:36:00,56.8,56.3,29.53,WNW,292,6.0,9.2,98,0.00,,,0.00,VWS V14.01,2013-09-20 14:36:00,
2013-09-20 07:37:00,56.8,56.3,29.53,WSW,248,5.8,9.2,98,0.00,,,0.00,VWS V14.01,2013-09-20 14:37:00,
2013-09-20 07:38:00,56.8,56.3,29.53,WNW,292,5.6,8.1,98,0.00,,,0.00,VWS V14.01,2013-09-20 14:38:00,
2013-09-20 07:39:00,56.8,56.3,29.53,WNW,292,5.6,8.1,98,0.00,,,0.00,VWS V14.01,2013-09-20 14:39:00,
2013-09-20 07:40:00,56.8,56.3,29.53,WNW,292,5.6,8.1,98,0.00,,,0.00,VWS V14.01,2013-09-20 14:40:00,
2013-09-20 07:41:00,56.8,56.3,29.53,WNW,292,5.6,6.0,98,0.00,,,0.00,VWS V14.01,2013-09-20 14:41:00,
2013-09-20 07:42:00,56.8,56.3,29.53,WSW,248,10.3,10.3,98,0.00,,,0.00,VWS V14.01,2013-09-20 14:42:00,
2013-09-20 07:43:00,56.8,56.3,29.53,NW,315,7.4,10.3,98,0.00,,,0.00,VWS V14.01,2013-09-20 14:43:00,
2013-09-20 07:44:00,56.8,56.3,29.53,NW,315,7.4,10.3,98,0.00,,,0.00,VWS V14.01,2013-09-20 14:44:00,
2013-09-20 07:45:00,56.8,56.3,29.53,NW,315,7.4,10.3,98,0.00,,,0.00,VWS V14.01,2013-09-20 14:45:00,
2013-09-20 07:46:00,57.0,56.5,29.53,WNW,292,4.3,10.3,98,0.00,,,0.00,VWS V14.01,2013-09-20 14:46:00,
2013-09-20 07:47:00,57.0,56.5,29.53,WNW,292,4.3,10.3,98,0.00,,,0.00,VWS V14.01,2013-09-20 14:47:00,
2013-09-20 07:48:00,57.0,56.5,29.53,West,270,2.9,7.4,98,0.00,,,0.00,VWS V14.01,2013-09-20 14:48:00,
2013-09-20 07:49:00,57.2,56.6,29.53,West,270,2.9,7.4,98,0.00,,,0.00,VWS V14.01,2013-09-20 14:49:00,
2013-09-20 07:50:00,57.2,56.6,29.53,WSW,248,8.5,8.5,98,0.00,,,0.00,VWS V14.01,2013-09-20 14:50:00,
2013-09-20 07:51:00,57.2,56.6,29.53,WSW,248,5.8,8.5,98,0.00,,,0.00,VWS V14.01,2013-09-20 14:51:00,
2013-09-20 07:52:00,57.2,56.6,29.53,West,270,8.5,8.5,98,0.00,,,0.00,VWS V14.01,2013-09-20 14:52:00,
2013-09-20 07:53:00,57.2,56.6,29.53,WNW,292,6.7,8.5,98,0.00,,,0.00,VWS V14.01,2013-09-20 14:53:00,
2013-09-20 07:54:00,57.2,56.6,29.53,WNW,292,6.7,8.5,98,0.00,,,0.00,VWS V14.01,2013-09-20 14:54:00,
2013-09-20 07:55:00,57.2,56.6,29.53,WSW,248,5.6,8.5,98,0.00,,,0.00,VWS V14.01,2013-09-20 14:55:00,
2013-09-20 07:56:00,57.4,56.8,29.53,WSW,248,5.6,8.5,98,0.00,,,0.00,VWS V14.01,2013-09-20 14:56:00,
2013-09-20 07:57:00,57.4,56.8,29.53,WSW,248,5.6,6.7,98,0.00,,,0.00,VWS V14.01,2013-09-20 14:57:00,
2013-09-20 07:58:00,57.4,56.8,29.53,WSW,248,5.6,6.7,98,0.00,,,0.00,VWS V14.01,2013-09-20 14:58:00,
2013-09-20 07:59:00,57.4,56.8,29.53,WSW,248,5.6,5.6,98,0.00,,,0.00,VWS V14.01,2013-09-20 14:59:00,
2013-09-20 08:00:00,57.6,57.0,29.53,WSW,248,4.0,5.6,98,0.00,,,0.00,VWS V14.01,2013-09-20 15:00:00,
2013-09-20 08:01:00,57.6,57.0,29.53,West,270,6.3,6.3,98,0.00,,,0.00,VWS V14.01,2013-09-20 15:01:00,
2013-09-20 08:02:00,57.6,57.0,29.53,SW,225,5.6,6.3,98,0.00,,,0.00,VWS V14.01,2013-09-20 15:02:00,
2013-09-20 08:03:00,57.6,57.0,29.53,NNW,338,5.8,6.3,98,0.00,,,0.00,VWS V14.01,2013-09-20 15:03:00,
2013-09-20 08:04:00,57.6,57.0,29.53,NNW,338,5.8,6.3,98,0.00,,,0.00,VWS V14.01,2013-09-20 15:04:00,
2013-09-20 08:05:00,57.6,57.0,29.53,SW,225,7.2,7.2,98,0.00,,,0.00,VWS V14.01,2013-09-20 15:05:00,
2013-09-20 08:06:00,57.6,57.0,29.53,WSW,248,6.5,7.2,98,0.00,,,0.00,VWS V14.01,2013-09-20 15:06:00,
2013-09-20 08:07:00,57.9,57.4,29.53,WSW,248,4.0,7.2,98,0.00,,,0.00,VWS V14.01,2013-09-20 15:07:00,
2013-09-20 08:08:00,57.9,57.4,29.53,West,270,7.8,7.8,98,0.00,,,0.00,VWS V14.01,2013-09-20 15:08:00,
2013-09-20 08:09:00,57.9,57.4,29.53,WSW,248,7.4,7.8,98,0.00,,,0.00,VWS V14.01,2013-09-20 15:09:00,
2013-09-20 08:10:00,58.1,57.5,29.53,WSW,248,7.4,7.8,98,0.00,,,0.00,VWS V14.01,2013-09-20 15:10:00,
2013-09-20 08:11:00,58.1,57.5,29.53,SSW,202,5.6,7.8,98,0.00,,,0.00,VWS V14.01,2013-09-20 15:11:00,
2013-09-20 08:12:00,58.1,57.5,29.53,WSW,248,8.1,8.1,98,0.00,,,0.00,VWS V14.01,2013-09-20 15:12:00,
2013-09-20 08:13:00,58.1,57.5,29.53,WSW,248,4.7,8.1,98,0.00,,,0.00,VWS V14.01,2013-09-20 15:13:00,
2013-09-20 08:14:00,58.3,57.7,29.53,WSW,248,6.3,8.1,98,0.00,,,0.00,VWS V14.01,2013-09-20 15:14:00,
2013-09-20 08:15:00,58.3,57.7,29.53,WSW,248,6.3,8.1,98,0.00,,,0.00,VWS V14.01,2013-09-20 15:15:00,
2013-09-20 08:16:00,58.5,57.9,29.53,WSW,248,6.3,8.1,98,0.00,,,0.00,VWS V14.01,2013-09-20 15:16:00,
2013-09-20 08:17:00,58.6,58.1,29.53,WSW,248,6.3,6.3,98,0.00,,,0.00,VWS V14.01,2013-09-20 15:17:00,
2013-09-20 08:18:00,58.6,58.1,29.53,WSW,248,10.7,10.7,98,0.00,,,0.00,VWS V14.01,2013-09-20 15:18:00,
2013-09-20 08:19:00,58.6,58.1,29.53,WSW,248,10.7,10.7,98,0.00,,,0.00,VWS V14.01,2013-09-20 15:19:00,
2013-09-20 08:20:00,58.6,58.1,29.53,WSW,248,10.7,10.7,98,0.00,,,0.00,VWS V14.01,2013-09-20 15:20:00,
2013-09-20 08:21:00,58.6,58.1,29.53,WSW,248,13.2,13.2,98,0.00,,,0.00,VWS V14.01,2013-09-20 15:21:00,
2013-09-20 08:22:00,58.6,58.1,29.53,WNW,292,7.8,13.2,98,0.00,,,0.00,VWS V14.01,2013-09-20 15:22:00,
2013-09-20 08:23:00,59.0,58.2,29.53,WNW,292,7.8,13.2,97,0.00,,,0.00,VWS V14.01,2013-09-20 15:23:00,
2013-09-20 08:24:00,59.0,57.9,29.53,SSW,202,5.6,13.2,96,0.00,,,0.00,VWS V14.01,2013-09-20 15:24:00,
2013-09-20 08:25:00,59.0,57.9,29.53,WSW,248,5.4,13.2,96,0.00,,,0.00,VWS V14.01,2013-09-20 15:25:00,
2013-09-20 08:26:00,59.2,58.0,29.53,SW,225,6.7,7.8,96,0.00,,,0.00,VWS V14.01,2013-09-20 15:26:00,
2013-09-20 08:27:00,59.2,58.0,29.53,WSW,248,5.4,6.7,96,0.00,,,0.00,VWS V14.01,2013-09-20 15:27:00,
2013-09-20 08:28:00,59.2,58.0,29.53,WSW,248,7.8,7.8,96,0.00,,,0.00,VWS V14.01,2013-09-20 15:28:00,
2013-09-20 08:29:00,59.2,58.0,29.53,WSW,248,7.8,7.8,96,0.00,,,0.00,VWS V14.01,2013-09-20 15:29:00,
2013-09-20 08:30:00,59.2,58.0,29.53,WSW,248,7.8,7.8,96,0.00,,,0.00,VWS V14.01,2013-09-20 15:30:00,
2013-09-20 08:31:00,59.2,58.0,29.53,SW,225,7.6,7.8,96,0.00,,,0.00,VWS V14.01,2013-09-20 15:31:00,
2013-09-20 08:32:00,59.0,57.9,29.53,WNW,292,2.9,7.8,96,0.00,,,0.00,VWS V14.01,2013-09-20 15:32:00,
2013-09-20 08:33:00,59.0,57.9,29.53,WNW,292,2.9,7.8,96,0.00,,,0.00,VWS V14.01,2013-09-20 15:33:00,
2013-09-20 08:34:00,59.0,57.9,29.53,WNW,292,2.9,7.8,96,0.00,,,0.00,VWS V14.01,2013-09-20 15:34:00,
2013-09-20 08:35:00,58.8,57.7,29.53,WNW,292,2.9,7.6,96,0.00,,,0.00,VWS V14.01,2013-09-20 15:35:00,
2013-09-20 08:36:00,58.8,57.7,29.56,WSW,248,9.8,9.8,96,0.00,,,0.00,VWS V14.01,2013-09-20 15:36:00,
2013-09-20 08:37:00,58.8,57.7,29.56,SW,225,7.8,9.8,96,0.00,,,0.00,VWS V14.01,2013-09-20 15:37:00,
2013-09-20 08:38:00,58.8,57.7,29.56,WSW,248,3.6,9.8,96,0.00,,,0.00,VWS V14.01,2013-09-20 15:38:00,
2013-09-20 08:39:00,58.6,57.8,29.56,SW,225,8.5,9.8,97,0.00,,,0.00,VWS V14.01,2013-09-20 15:39:00,
2013-09-20 08:40:00,58.5,57.6,29.56,West,270,5.4,8.5,97,0.00,,,0.00,VWS V14.01,2013-09-20 15:40:00,
2013-09-20 08:41:00,58.5,57.6,29.56,SSW,202,5.8,8.5,97,0.00,,,0.00,VWS V14.01,2013-09-20 15:41:00,
2013-09-20 08:42:00,58.5,57.6,29.56,West,270,9.4,9.4,97,0.00,,,0.00,VWS V14.01,2013-09-20 15:42:00,
2013-09-20 08:43:00,58.5,57.6,29.56,WSW,248,4.7,9.4,97,0.00,,,0.00,VWS V14.01,2013-09-20 15:43:00,
2013-09-20 08:44:00,58.3,57.4,29.56,West,270,5.8,9.4,97,0.00,,,0.00,VWS V14.01,2013-09-20 15:44:00,
2013-09-20 08:45:00,58.3,57.4,29.56,WSW,248,5.8,9.4,97,0.00,,,0.00,VWS V14.01,2013-09-20 15:45:00,
2013-09-20 08:46:00,58.3,57.7,29.56,West,270,4.0,9.4,98,0.00,,,0.00,VWS V14.01,2013-09-20 15:46:00,
2013-09-20 08:47:00,58.1,57.5,29.56,SW,225,5.4,6.9,98,0.00,,,0.00,VWS V14.01,2013-09-20 15:47:00,
2013-09-20 08:48:00,58.1,57.5,29.56,WSW,248,10.5,10.5,98,0.00,,,0.00,VWS V14.01,2013-09-20 15:48:00,
2013-09-20 08:49:00,58.1,57.5,29.56,WNW,292,9.2,10.5,98,0.00,,,0.00,VWS V14.01,2013-09-20 15:49:00,
2013-09-20 08:50:00,58.1,57.5,29.56,NW,315,10.1,10.5,98,0.00,,,0.00,VWS V14.01,2013-09-20 15:50:00,
2013-09-20 08:51:00,57.9,57.4,29.56,WSW,248,10.5,10.5,98,0.00,,,0.00,VWS V14.01,2013-09-20 15:51:00,
2013-09-20 08:52:00,57.9,57.4,29.56,WSW,248,7.4,10.5,98,0.00,,,0.00,VWS V14.01,2013-09-20 15:52:00,
2013-09-20 08:53:00,57.9,57.4,29.56,WNW,292,7.8,10.5,98,0.00,,,0.00,VWS V14.01,2013-09-20 15:53:00,
2013-09-20 08:54:00,57.9,57.4,29.56,SW,225,7.2,10.5,98,0.00,,,0.00,VWS V14.01,2013-09-20 15:54:00,
2013-09-20 08:55:00,57.9,57.4,29.56,SW,225,7.2,10.5,98,0.00,,,0.00,VWS V14.01,2013-09-20 15:55:00,
2013-09-20 08:56:00,57.7,57.2,29.56,WNW,292,7.2,7.8,98,0.00,,,0.00,VWS V14.01,2013-09-20 15:56:00,
2013-09-20 08:57:00,57.7,57.2,29.56,West,270,13.0,13.0,98,0.00,,,0.00,VWS V14.01,2013-09-20 15:57:00,
2013-09-20 08:58:00,57.6,57.0,29.56,WSW,248,7.6,13.0,98,0.00,,,0.00,VWS V14.01,2013-09-20 15:58:00,
2013-09-20 08:59:00,57.6,57.0,29.56,WSW,248,5.8,13.0,98,0.00,,,0.00,VWS V14.01,2013-09-20 15:59:00,
2013-09-20 09:00:00,57.6,57.0,29.56,SW,225,3.4,13.0,98,0.00,,,0.00,VWS V14.01,2013-09-20 16:00:00,
2013-09-20 09:01:00,57.6,57.0,29.56,WNW,292,7.8,13.0,98,0.00,,,0.00,VWS V14.01,2013-09-20 16:01:00,
2013-09-20 09:02:00,57.6,57.0,29.56,WSW,248,5.6,7.8,98,0.00,,,0.00,VWS V14.01,2013-09-20 16:02:00,
2013-09-20 09:03:00,57.4,56.8,29.56,WSW,248,5.6,7.8,98,0.00,,,0.00,VWS V14.01,2013-09-20 16:03:00,
2013-09-20 09:04:00,57.4,56.8,29.56,West,270,5.4,7.8,98,0.00,,,0.00,VWS V14.01,2013-09-20 16:04:00,
2013-09-20 09:05:00,57.4,56.8,29.56,West,270,8.5,8.5,98,0.00,,,0.00,VWS V14.01,2013-09-20 16:05:00,
2013-09-20 09:06:00,57.4,56.8,29.56,West,270,8.5,8.5,98,0.00,,,0.00,VWS V14.01,2013-09-20 16:06:00,
2013-09-20 09:07:00,57.2,56.6,29.56,WNW,292,6.5,8.5,98,0.00,,,0.00,VWS V14.01,2013-09-20 16:07:00,
2013-09-20 09:08:00,57.2,56.6,29.56,WSW,248,3.1,8.5,98,0.00,,,0.00,VWS V14.01,2013-09-20 16:08:00,
2013-09-20 09:09:00,57.4,56.8,29.56,WSW,248,4.9,8.5,98,0.00,,,0.00,VWS V14.01,2013-09-20 16:09:00,
2013-09-20 09:10:00,57.4,56.8,29.56,WSW,248,4.9,8.5,98,0.00,,,0.00,VWS V14.01,2013-09-20 16:10:00,
2013-09-20 09:11:00,57.4,56.8,29.56,WSW,248,4.9,8.5,98,0.00,,,0.00,VWS V14.01,2013-09-20 16:11:00,
2013-09-20 09:12:00,57.4,56.8,29.56,WSW,248,4.9,6.5,98,0.00,,,0.00,VWS V14.01,2013-09-20 16:12:00,
2013-09-20 09:13:00,57.4,56.8,29.56,WSW,248,4.9,4.9,98,0.00,,,0.00,VWS V14.01,2013-09-20 16:13:00,
2013-09-20 09:14:00,57.4,56.8,29.56,WSW,248,7.6,7.6,98,0.00,,,0.00,VWS V14.01,2013-09-20 16:14:00,
2013-09-20 09:15:00,57.4,56.8,29.56,WSW,248,3.4,7.6,98,0.00,,,0.00,VWS V14.01,2013-09-20 16:15:00,
2013-09-20 09:16:00,57.6,57.0,29.56,WSW,248,3.4,7.6,98,0.00,,,0.00,VWS V14.01,2013-09-20 16:16:00,
2013-09-20 09:17:00,57.6,57.0,29.56,WSW,248,8.1,8.1,98,0.00,,,0.00,VWS V14.01,2013-09-20 16:17:00,
2013-09-20 09:18:00,57.6,57.0,29.56,WSW,248,4.3,8.1,98,0.00,,,0.00,VWS V14.01,2013-09-20 16:18:00,
2013-09-20 09:19:00,57.6,57.0,29.56,WSW,248,4.3,8.1,98,0.00,,,0.00,VWS V14.01,2013-09-20 16:19:00,
2013-09-20 09:20:00,57.6,57.0,29.56,WSW,248,4.3,8.1,98,0.00,,,0.00,VWS V14.01,2013-09-20 16:20:00,
2013-09-20 09:21:00,57.4,56.8,29.56,WSW,248,4.3,8.1,98,0.00,,,0.00,VWS V14.01,2013-09-20 16:21:00,
2013-09-20 09:22:00,57.4,56.8,29.56,West,270,5.8,5.8,98,0.00,,,0.00,VWS V14.01,2013-09-20 16:22:00,
2013-09-20 09:23:00,57.4,56.8,29.56,West,270,5.8,5.8,98,0.00,,,0.00,VWS V14.01,2013-09-20 16:23:00,
2013-09-20 09:24:00,57.4,56.8,29.56,West,270,5.8,5.8,98,0.00,,,0.00,VWS V14.01,2013-09-20 16:24:00,
2013-09-20 09:25:00,57.4,56.8,29.56,West,270,5.8,5.8,98,0.00,,,0.00,VWS V14.01,2013-09-20 16:25:00,
2013-09-20 09:26:00,57.4,56.8,29.56,West,270,5.8,5.8,98,0.00,,,0.00,VWS V14.01,2013-09-20 16:26:00,
2013-09-20 09:27:00,57.4,56.8,29.56,West,270,5.8,5.8,98,0.00,,,0.00,VWS V14.01,2013-09-20 16:27:00,
2013-09-20 09:28:00,57.4,56.8,29.56,West,270,4.0,8.5,98,0.00,,,0.00,VWS V14.01,2013-09-20 16:28:00,
2013-09-20 09:29:00,57.4,56.8,29.56,WNW,292,5.8,8.5,98,0.00,,,0.00,VWS V14.01,2013-09-20 16:29:00,
2013-09-20 09:30:00,57.4,56.8,29.56,WSW,248,4.0,8.5,98,0.00,,,0.00,VWS V14.01,2013-09-20 16:30:00,
2013-09-20 09:31:00,57.4,56.8,29.56,WSW,248,4.0,8.5,98,0.00,,,0.00,VWS V14.01,2013-09-20 16:31:00,
2013-09-20 09:32:00,57.4,56.8,29.56,West,270,7.2,7.2,98,0.00,,,0.00,VWS V14.01,2013-09-20 16:32:00,
2013-09-20 09:33:00,57.4,56.8,29.56,WSW,248,8.7,8.7,98,0.00,,,0.00,VWS V14.01,2013-09-20 16:33:00,
2013-09-20 09:34:00,57.4,56.8,29.56,NNW,338,7.4,8.7,98,0.00,,,0.00,VWS V14.01,2013-09-20 16:34:00,
2013-09-20 09:35:00,57.4,56.8,29.56,WSW,248,6.5,8.7,98,0.00,,,0.00,VWS V14.01,2013-09-20 16:35:00,
2013-09-20 09:36:00,57.4,56.8,29.56,WSW,248,6.5,8.7,98,0.00,,,0.00,VWS V14.01,2013-09-20 16:36:00,
2013-09-20 09:37:00,57.6,57.0,29.56,West,270,8.1,8.1,98,0.00,,,0.00,VWS V14.01,2013-09-20 16:37:00,
2013-09-20 09:38:00,57.6,57.0,29.56,West,270,6.5,8.1,98,0.00,,,0.00,VWS V14.01,2013-09-20 16:38:00,
2013-09-20 09:39:00,57.4,56.8,29.56,WNW,292,6.3,8.1,98,0.00,,,0.00,VWS V14.01,2013-09-20 16:39:00,
2013-09-20 09:40:00,57.6,57.0,29.56,NW,315,7.6,8.1,98,0.00,,,0.00,VWS V14.01,2013-09-20 16:40:00,
2013-09-20 09:41:00,57.6,57.0,29.56,NW,315,7.6,7.6,98,0.00,,,0.00,VWS V14.01,2013-09-20 16:41:00,
2013-09-20 09:42:00,57.6,57.0,29.56,WSW,248,5.6,7.8,98,0.00,,,0.00,VWS V14.01,2013-09-20 16:42:00,
2013-09-20 09:43:00,57.6,57.0,29.56,WNW,292,10.5,10.5,98,0.00,,,0.00,VWS V14.01,2013-09-20 16:43:00,
2013-09-20 09:44:00,57.6,57.0,29.56,WNW,292,10.5,10.5,98,0.00,,,0.00,VWS V14.01,2013-09-20 16:44:00,
2013-09-20 09:45:00,57.7,57.2,29.56,NNW,338,10.5,10.5,98,0.00,,,0.00,VWS V14.01,2013-09-20 16:45:00,
2013-09-20 09:46:00,57.7,57.2,29.56,NNW,338,10.5,10.5,98,0.00,,,0.00,VWS V14.01,2013-09-20 16:46:00,
2013-09-20 09:47:00,57.7,57.2,29.56,NW,315,5.6,10.5,98,0.00,,,0.00,VWS V14.01,2013-09-20 16:47:00,
2013-09-20 09:48:00,57.7,57.2,29.56,WSW,248,6.5,10.5,98,0.00,,,0.00,VWS V14.01,2013-09-20 16:48:00,
2013-09-20 09:49:00,57.7,57.2,29.56,West,270,5.4,10.5,98,0.00,,,0.00,VWS V14.01,2013-09-20 16:49:00,
2013-09-20 09:50:00,57.7,57.2,29.56,WNW,292,5.6,9.8,98,0.00,,,0.00,VWS V14.01,2013-09-20 16:50:00,
2013-09-20 09:51:00,57.7,57.2,29.56,WNW,292,5.6,9.8,98,0.00,,,0.00,VWS V14.01,2013-09-20 16:51:00,
2013-09-20 09:52:00,57.7,57.2,29.56,WNW,292,6.0,9.8,98,0.00,,,0.00,VWS V14.01,2013-09-20 16:52:00,
2013-09-20 09:53:00,57.6,57.0,29.56,WNW,292,6.5,9.8,98,0.00,,,0.00,VWS V14.01,2013-09-20 16:53:00,
2013-09-20 09:54:00,57.6,57.0,29.56,WSW,248,7.6,7.6,98,0.00,,,0.00,VWS V14.01,2013-09-20 16:54:00,
2013-09-20 09:55:00,57.6,57.0,29.56,WSW,248,10.5,10.5,98,0.00,,,0.00,VWS V14.01,2013-09-20 16:55:00,
2013-09-20 09:56:00,57.6,57.0,29.56,WSW,248,10.5,10.5,98,0.00,,,0.00,VWS V14.01,2013-09-20 16:56:00,
2013-09-20 09:57:00,57.6,57.0,29.56,WSW,248,10.5,10.5,98,0.00,,,0.00,VWS V14.01,2013-09-20 16:57:00,
2013-09-20 09:58:00,57.6,57.0,29.56,WNW,292,8.7,10.5,98,0.00,,,0.00,VWS V14.01,2013-09-20 16:58:00,
2013-09-20 09:59:00,57.6,57.0,29.56,West,270,10.3,10.5,98,0.00,,,0.00,VWS V14.01,2013-09-20 16:59:00,
2013-09-20 10:00:00,57.7,57.2,29.56,NNW,338,10.3,10.5,98,0.00,,,0.00,VWS V14.01,2013-09-20 17:00:00,
2013-09-20 10:01:00,57.7,57.2,29.56,NNW,338,10.3,10.5,98,0.00,,,0.00,VWS V14.01,2013-09-20 17:01:00,
2013-09-20 10:02:00,57.7,57.2,29.56,NNW,338,10.3,10.3,98,0.00,,,0.00,VWS V14.01,2013-09-20 17:02:00,
2013-09-20 10:03:00,57.7,57.2,29.56,NNW,338,10.3,10.3,98,0.00,,,0.00,VWS V14.01,2013-09-20 17:03:00,
2013-09-20 10:04:00,57.7,57.2,29.56,WNW,292,5.6,10.3,98,0.00,,,0.00,VWS V14.01,2013-09-20 17:04:00,
2013-09-20 10:05:00,57.9,57.4,29.56,WNW,292,9.2,10.3,98,0.00,,,0.00,VWS V14.01,2013-09-20 17:05:00,
2013-09-20 10:06:00,57.9,57.4,29.56,WNW,292,9.2,10.3,98,0.00,,,0.00,VWS V14.01,2013-09-20 17:06:00,
2013-09-20 10:07:00,57.9,57.4,29.56,WNW,292,9.2,10.3,98,0.00,,,0.00,VWS V14.01,2013-09-20 17:07:00,
2013-09-20 10:08:00,57.9,57.4,29.56,WNW,292,9.2,9.2,98,0.00,,,0.00,VWS V14.01,2013-09-20 17:08:00,
2013-09-20 10:09:00,57.9,57.4,29.56,WNW,292,9.2,9.2,98,0.00,,,0.00,VWS V14.01,2013-09-20 17:09:00,
2013-09-20 10:10:00,57.9,57.4,29.56,WSW,248,12.3,12.3,98,0.00,,,0.00,VWS V14.01,2013-09-20 17:10:00,
2013-09-20 10:11:00,57.9,57.4,29.56,WSW,248,7.6,12.3,98,0.00,,,0.00,VWS V14.01,2013-09-20 17:11:00,
2013-09-20 10:12:00,57.9,57.4,29.56,NNW,338,13.2,13.2,98,0.00,,,0.00,VWS V14.01,2013-09-20 17:12:00,
2013-09-20 10:13:00,57.9,57.4,29.56,WSW,248,8.7,13.2,98,0.00,,,0.00,VWS V14.01,2013-09-20 17:13:00,
2013-09-20 10:14:00,58.1,57.5,29.56,WNW,292,6.0,13.2,98,0.00,,,0.00,VWS V14.01,2013-09-20 17:14:00,
2013-09-20 10:15:00,58.1,57.5,29.56,WNW,292,11.9,13.2,98,0.00,,,0.00,VWS V14.01,2013-09-20 17:15:00,
2013-09-20 10:16:00,58.1,57.5,29.56,WNW,292,11.9,12.3,98,0.00,,,0.00,VWS V14.01,2013-09-20 17:16:00,
2013-09-20 10:17:00,58.1,57.5,29.56,WNW,292,11.9,12.3,98,0.00,,,0.00,VWS V14.01,2013-09-20 17:17:00,
2013-09-20 10:18:00,58.3,57.7,29.56,NW,315,4.9,12.3,98,0.00,,,0.00,VWS V14.01,2013-09-20 17:18:00,
2013-09-20 10:19:00,58.5,57.9,29.56,NW,315,4.9,12.3,98,0.00,,,0.00,VWS V14.01,2013-09-20 17:19:00,
2013-09-20 10:20:00,58.5,57.9,29.59,WSW,248,4.9,11.9,98,0.00,,,0.00,VWS V14.01,2013-09-20 17:20:00,
2013-09-20 10:21:00,58.5,57.9,29.59,WSW,248,4.9,11.9,98,0.00,,,0.00,VWS V14.01,2013-09-20 17:21:00,
2013-09-20 10:22:00,58.5,57.9,29.59,WSW,248,6.9,11.9,98,0.00,,,0.00,VWS V14.01,2013-09-20 17:22:00,
2013-09-20 10:23:00,58.5,57.9,29.59,WSW,248,6.9,6.9,98,0.00,,,0.00,VWS V14.01,2013-09-20 17:23:00,
2013-09-20 10:24:00,58.5,57.9,29.59,NNE,22,4.3,6.9,98,0.00,,,0.00,VWS V14.01,2013-09-20 17:24:00,
2013-09-20 10:25:00,58.5,57.9,29.59,West,270,4.3,6.9,98,0.00,,,0.00,VWS V14.01,2013-09-20 17:25:00,
2013-09-20 10:26:00,58.5,57.9,29.59,WNW,292,6.5,6.9,98,0.00,,,0.00,VWS V14.01,2013-09-20 17:26:00,
2013-09-20 10:27:00,58.5,57.9,29.59,WSW,248,3.8,6.5,98,0.00,,,0.00,VWS V14.01,2013-09-20 17:27:00,
2013-09-20 10:28:00,58.6,58.1,29.59,SW,225,6.5,6.5,98,0.00,,,0.00,VWS V14.01,2013-09-20 17:28:00,
2013-09-20 10:29:00,58.6,58.1,29.59,WNW,292,8.7,8.7,98,0.00,,,0.00,VWS V14.01,2013-09-20 17:29:00,
2013-09-20 10:30:00,58.6,58.1,29.59,WNW,292,6.0,8.7,98,0.00,,,0.00,VWS V14.01,2013-09-20 17:30:00,
2013-09-20 10:31:00,58.6,58.1,29.59,WNW,292,6.0,8.7,98,0.00,,,0.00,VWS V14.01,2013-09-20 17:31:00,
2013-09-20 10:32:00,58.8,58.3,29.59,West,270,2.7,8.7,98,0.00,,,0.00,VWS V14.01,2013-09-20 17:32:00,
2013-09-20 10:33:00,58.8,58.3,29.59,WSW,248,3.8,8.7,98,0.00,,,0.00,VWS V14.01,2013-09-20 17:33:00,
2013-09-20 10:34:00,59.2,58.6,29.59,West,270,3.8,8.7,98,0.00,,,0.00,VWS V14.01,2013-09-20 17:34:00,
2013-09-20 10:35:00,59.2,58.6,29.59,West,270,6.3,6.3,98,0.00,,,0.00,VWS V14.01,2013-09-20 17:35:00,
2013-09-20 10:36:00,59.2,58.6,29.59,West,270,6.3,6.3,98,0.00,,,0.00,VWS V14.01,2013-09-20 17:36:00,
2013-09-20 10:37:00,59.4,58.8,29.59,WNW,292,5.6,6.3,98,0.00,,,0.00,VWS V14.01,2013-09-20 17:37:00,
2013-09-20 10:38:00,59.4,58.8,29.59,WNW,292,5.6,6.3,98,0.00,,,0.00,VWS V14.01,2013-09-20 17:38:00,
2013-09-20 10:39:00,59.4,58.8,29.59,SW,225,2.5,6.3,98,0.00,,,0.00,VWS V14.01,2013-09-20 17:39:00,
2013-09-20 10:40:00,59.5,59.0,29.59,SW,225,2.5,5.6,98,0.00,,,0.00,VWS V14.01,2013-09-20 17:40:00,
2013-09-20 10:41:00,59.5,59.0,29.59,NW,315,2.9,5.6,98,0.00,,,0.00,VWS V14.01,2013-09-20 17:41:00,
2013-09-20 10:42:00,59.5,59.0,29.59,NW,315,5.4,5.6,98,0.00,,,0.00,VWS V14.01,2013-09-20 17:42:00,
2013-09-20 10:43:00,59.5,59.0,29.59,WNW,292,4.9,5.4,98,0.00,,,0.00,VWS V14.01,2013-09-20 17:43:00,
2013-09-20 10:44:00,59.7,59.2,29.59,West,270,5.8,5.8,98,0.00,,,0.00,VWS V14.01,2013-09-20 17:44:00,
2013-09-20 10:45:00,59.7,59.2,29.59,WSW,248,7.2,8.5,98,0.00,,,0.00,VWS V14.01,2013-09-20 17:45:00,
2013-09-20 10:46:00,59.7,59.2,29.59,WSW,248,7.2,8.5,98,0.00,,,0.00,VWS V14.01,2013-09-20 17:46:00,
2013-09-20 10:47:00,59.7,59.2,29.59,NW,315,6.5,8.5,98,0.00,,,0.00,VWS V14.01,2013-09-20 17:47:00,
2013-09-20 10:48:00,59.9,59.0,29.59,WSW,248,5.4,8.5,97,0.00,,,0.00,VWS V14.01,2013-09-20 17:48:00,
2013-09-20 10:49:00,60.1,59.2,29.59,WSW,248,5.4,8.5,97,0.00,,,0.00,VWS V14.01,2013-09-20 17:49:00,
2013-09-20 10:50:00,60.3,59.4,29.59,WNW,292,6.9,6.9,97,0.00,,,0.00,VWS V14.01,2013-09-20 17:50:00,
2013-09-20 10:51:00,60.3,59.4,29.59,WNW,292,6.9,6.9,97,0.00,,,0.00,VWS V14.01,2013-09-20 17:51:00,
2013-09-20 10:52:00,60.3,59.4,29.59,SW,225,6.0,6.9,97,0.00,,,0.00,VWS V14.01,2013-09-20 17:52:00,
2013-09-20 10:53:00,60.4,59.6,29.59,WNW,292,5.6,6.9,97,0.00,,,0.00,VWS V14.01,2013-09-20 17:53:00,
2013-09-20 10:54:00,60.4,59.6,29.59,WSW,248,8.7,8.7,97,0.00,,,0.00,VWS V14.01,2013-09-20 17:54:00,
2013-09-20 10:55:00,60.3,59.4,29.59,WSW,248,6.3,8.7,97,0.00,,,0.00,VWS V14.01,2013-09-20 17:55:00,
2013-09-20 10:56:00,60.4,59.3,29.59,West,270,7.8,8.7,96,0.00,,,0.00,VWS V14.01,2013-09-20 17:56:00,
2013-09-20 10:57:00,60.4,59.3,29.59,WSW,248,5.8,8.7,96,0.00,,,0.00,VWS V14.01,2013-09-20 17:57:00,
2013-09-20 10:58:00,60.6,59.5,29.59,WSW,248,5.8,8.7,96,0.00,,,0.00,VWS V14.01,2013-09-20 17:58:00,
2013-09-20 10:59:00,60.6,59.5,29.59,SSW,202,5.8,7.8,96,0.00,,,0.00,VWS V14.01,2013-09-20 17:59:00,
2013-09-20 11:00:00,60.8,59.7,29.59,WNW,292,3.4,5.8,96,0.00,,,0.00,VWS V14.01,2013-09-20 18:00:00,
2013-09-20 11:01:00,60.8,59.7,29.59,WNW,292,3.4,5.8,96,0.00,,,0.00,VWS V14.01,2013-09-20 18:01:00,
2013-09-20 11:02:00,61.0,59.8,29.59,WNW,292,3.4,5.8,96,0.00,,,0.00,VWS V14.01,2013-09-20 18:02:00,
2013-09-20 11:03:00,61.2,60.0,29.59,WNW,292,2.9,5.8,96,0.00,,,0.00,VWS V14.01,2013-09-20 18:03:00,
2013-09-20 11:04:00,61.2,60.0,29.59,West,270,3.6,3.6,96,0.00,,,0.00,VWS V14.01,2013-09-20 18:04:00,
2013-09-20 11:05:00,61.2,59.7,29.59,West,270,6.0,6.0,95,0.00,,,0.00,VWS V14.01,2013-09-20 18:05:00,
2013-09-20 11:06:00,61.2,59.7,29.59,WNW,292,6.0,6.0,95,0.00,,,0.00,VWS V14.01,2013-09-20 18:06:00,
2013-09-20 11:07:00,61.3,59.9,29.59,SW,225,6.3,6.3,95,0.00,,,0.00,VWS V14.01,2013-09-20 18:07:00,
2013-09-20 11:08:00,61.3,59.9,29.59,WNW,292,6.5,6.5,95,0.00,,,0.00,VWS V14.01,2013-09-20 18:08:00,
2013-09-20 11:09:00,61.3,59.6,29.59,West,270,3.8,6.5,94,0.00,,,0.00,VWS V14.01,2013-09-20 18:09:00,
2013-09-20 11:10:00,61.3,59.6,29.59,WNW,292,6.3,6.5,94,0.00,,,0.00,VWS V14.01,2013-09-20 18:10:00,
2013-09-20 11:11:00,61.3,59.6,29.59,WNW,292,6.3,6.5,94,0.00,,,0.00,VWS V14.01,2013-09-20 18:11:00,
2013-09-20 11:12:00,61.5,59.8,29.59,West,270,7.2,7.2,94,0.00,,,0.00,VWS V14.01,2013-09-20 18:12:00,
2013-09-20 11:13:00,61.5,59.8,29.59,WNW,292,5.8,7.2,94,0.00,,,0.00,VWS V14.01,2013-09-20 18:13:00,
2013-09-20 11:14:00,61.7,59.7,29.59,WNW,292,5.8,7.2,93,0.00,,,0.00,VWS V14.01,2013-09-20 18:14:00,
2013-09-20 11:15:00,61.9,59.8,29.59,WSW,248,4.0,7.8,93,0.00,,,0.00,VWS V14.01,2013-09-20 18:15:00,
2013-09-20 11:16:00,61.9,59.8,29.59,WSW,248,4.0,7.8,93,0.00,,,0.00,VWS V14.01,2013-09-20 18:16:00,
2013-09-20 11:17:00,61.9,59.8,29.59,WNW,292,4.5,7.8,93,0.00,,,0.00,VWS V14.01,2013-09-20 18:17:00,
2013-09-20 11:18:00,61.9,59.8,29.59,West,270,6.0,7.8,93,0.00,,,0.00,VWS V14.01,2013-09-20 18:18:00,
2013-09-20 11:19:00,62.2,60.2,29.59,WNW,292,3.8,6.0,93,0.00,,,0.00,VWS V14.01,2013-09-20 18:19:00,
2013-09-20 11:20:00,62.4,60.4,29.59,WNW,292,3.4,6.0,93,0.00,,,0.00,VWS V14.01,2013-09-20 18:20:00,
2013-09-20 11:21:00,62.4,60.4,29.59,West,270,6.3,6.3,93,0.00,,,0.00,VWS V14.01,2013-09-20 18:21:00,
2013-09-20 11:22:00,62.4,60.4,29.59,NNW,338,5.6,6.3,93,0.00,,,0.00,VWS V14.01,2013-09-20 18:22:00,
2013-09-20 11:23:00,62.4,60.4,29.59,WSW,248,2.7,6.3,93,0.00,,,0.00,VWS V14.01,2013-09-20 18:23:00,
2013-09-20 11:24:00,62.4,60.4,29.59,WSW,248,2.7,6.3,93,0.00,,,0.00,VWS V14.01,2013-09-20 18:24:00,
2013-09-20 11:25:00,63.9,61.8,29.59,WSW,248,2.0,5.6,93,0.00,,,0.00,VWS V14.01,2013-09-20 18:25:00,
2013-09-20 11:26:00,64.2,61.5,29.59,WSW,248,2.0,5.6,91,0.00,,,0.00,VWS V14.01,2013-09-20 18:26:00,
2013-09-20 11:27:00,64.2,61.5,29.59,WSW,248,4.9,4.9,91,0.00,,,0.00,VWS V14.01,2013-09-20 18:27:00,
2013-09-20 11:28:00,63.9,60.9,29.59,WSW,248,4.9,4.9,90,0.00,,,0.00,VWS V14.01,2013-09-20 18:28:00,
2013-09-20 11:29:00,63.9,60.9,29.59,West,270,3.4,4.9,90,0.00,,,0.00,VWS V14.01,2013-09-20 18:29:00,
2013-09-20 11:30:00,63.9,60.9,29.59,West,270,3.4,4.9,90,0.00,,,0.00,VWS V14.01,2013-09-20 18:30:00,
2013-09-20 11:31:00,63.9,60.9,29.59,West,270,3.4,4.9,90,0.00,,,0.00,VWS V14.01,2013-09-20 18:31:00,
2013-09-20 11:32:00,63.7,60.4,29.59,WSW,248,5.4,5.4,89,0.00,,,0.00,VWS V14.01,2013-09-20 18:32:00,
2013-09-20 11:33:00,63.9,60.6,29.59,WNW,292,3.1,5.4,89,0.00,,,0.00,VWS V14.01,2013-09-20 18:33:00,
2013-09-20 11:34:00,63.9,60.6,29.59,WSW,248,4.3,5.4,89,0.00,,,0.00,VWS V14.01,2013-09-20 18:34:00,
2013-09-20 11:35:00,63.9,60.6,29.59,WSW,248,2.9,5.4,89,0.00,,,0.00,VWS V14.01,2013-09-20 18:35:00,
2013-09-20 11:36:00,63.9,60.6,29.59,WSW,248,5.8,5.8,89,0.00,,,0.00,VWS V14.01,2013-09-20 18:36:00,
2013-09-20 11:37:00,63.9,60.6,29.59,WSW,248,0.0,5.8,89,0.00,,,0.00,VWS V14.01,2013-09-20 18:37:00,
2013-09-20 11:38:00,63.9,60.6,29.59,WSW,248,5.8,5.8,89,0.00,,,0.00,VWS V14.01,2013-09-20 18:38:00,
2013-09-20 11:39:00,64.2,60.9,29.59,WSW,248,5.4,5.8,89,0.00,,,0.00,VWS V14.01,2013-09-20 18:39:00,
2013-09-20 11:40:00,64.0,60.4,29.59,WSW,248,7.8,7.8,88,0.00,,,0.00,VWS V14.01,2013-09-20 18:40:00,
2013-09-20 11:41:00,64.0,60.4,29.59,WSW,248,7.8,7.8,88,0.00,,,0.00,VWS V14.01,2013-09-20 18:41:00,
2013-09-20 11:42:00,63.9,60.2,29.59,WSW,248,7.8,7.8,88,0.00,,,0.00,VWS V14.01,2013-09-20 18:42:00,
2013-09-20 11:43:00,63.9,60.2,29.59,WSW,248,2.9,7.8,88,0.00,,,0.00,VWS V14.01,2013-09-20 18:43:00,
2013-09-20 11:44:00,64.2,60.6,29.59,WSW,248,7.6,7.8,88,0.00,,,0.00,VWS V14.01,2013-09-20 18:44:00,
2013-09-20 11:45:00,63.9,60.2,29.59,SW,225,8.7,8.7,88,0.00,,,0.00,VWS V14.01,2013-09-20 18:45:00,
2013-09-20 11:46:00,63.9,60.2,29.59,SW,225,8.7,8.7,88,0.00,,,0.00,VWS V14.01,2013-09-20 18:46:00,
2013-09-20 11:47:00,63.9,60.2,29.59,SW,225,7.4,8.7,88,0.00,,,0.00,VWS V14.01,2013-09-20 18:47:00,
2013-09-20 11:48:00,63.9,60.2,29.59,SW,225,8.7,8.7,88,0.00,,,0.00,VWS V14.01,2013-09-20 18:48:00,
2013-09-20 11:49:00,63.9,60.6,29.59,SW,225,6.0,8.7,89,0.00,,,0.00,VWS V14.01,2013-09-20 18:49:00,
2013-09-20 11:50:00,63.9,60.6,29.59,WSW,248,8.5,8.7,89,0.00,,,0.00,VWS V14.01,2013-09-20 18:50:00,
2013-09-20 11:51:00,63.5,60.2,29.59,SW,225,7.6,8.7,89,0.00,,,0.00,VWS V14.01,2013-09-20 18:51:00,
2013-09-20 11:52:00,63.5,60.2,29.59,SW,225,7.6,8.7,89,0.00,,,0.00,VWS V14.01,2013-09-20 18:52:00,
2013-09-20 11:53:00,63.7,60.4,29.59,WSW,248,5.6,8.5,89,0.00,,,0.00,VWS V14.01,2013-09-20 18:53:00,
2013-09-20 11:54:00,63.7,60.4,29.59,WSW,248,5.6,8.5,89,0.00,,,0.00,VWS V14.01,2013-09-20 18:54:00,
2013-09-20 11:55:00,64.2,60.9,29.59,WSW,248,7.8,7.8,89,0.00,,,0.00,VWS V14.01,2013-09-20 18:55:00,
2013-09-20 11:56:00,64.2,60.6,29.59,WSW,248,7.8,7.8,88,0.00,,,0.00,VWS V14.01,2013-09-20 18:56:00,
2013-09-20 11:57:00,64.2,60.6,29.59,WSW,248,10.3,10.3,88,0.00,,,0.00,VWS V14.01,2013-09-20 18:57:00,
2013-09-20 11:58:00,64.6,61.0,29.59,WSW,248,7.4,10.3,88,0.00,,,0.00,VWS V14.01,2013-09-20 18:58:00,
2013-09-20 11:59:00,64.6,61.0,29.59,WSW,248,7.4,10.3,88,0.00,,,0.00,VWS V14.01,2013-09-20 18:59:00,
2013-09-20 12:00:00,64.6,61.0,29.59,WNW,292,6.3,10.3,88,0.00,,,0.00,VWS V14.01,2013-09-20 19:00:00,
2013-09-20 12:01:00,64.6,61.0,29.59,WNW,292,6.3,10.3,88,0.00,,,0.00,VWS V14.01,2013-09-20 19:01:00,
2013-09-20 12:02:00,65.7,61.7,29.59,West,270,10.1,10.1,87,0.00,,,0.00,VWS V14.01,2013-09-20 19:02:00,
2013-09-20 12:03:00,65.7,61.7,29.59,WSW,248,9.6,10.1,87,0.00,,,0.00,VWS V14.01,2013-09-20 19:03:00,
2013-09-20 12:04:00,65.3,60.7,29.59,West,270,12.8,12.8,85,0.00,,,0.00,VWS V14.01,2013-09-20 19:04:00,
2013-09-20 12:05:00,65.1,60.5,29.59,WSW,248,9.4,12.8,85,0.00,,,0.00,VWS V14.01,2013-09-20 19:05:00,
2013-09-20 12:06:00,65.1,60.5,29.59,West,270,6.3,12.8,85,0.00,,,0.00,VWS V14.01,2013-09-20 19:06:00,
2013-09-20 12:07:00,65.1,60.5,29.59,WSW,248,7.8,12.8,85,0.00,,,0.00,VWS V14.01,2013-09-20 19:07:00,
2013-09-20 12:08:00,65.1,60.5,29.59,WSW,248,7.8,12.8,85,0.00,,,0.00,VWS V14.01,2013-09-20 19:08:00,
2013-09-20 12:09:00,65.7,61.0,29.59,WSW,248,5.4,9.4,85,0.00,,,0.00,VWS V14.01,2013-09-20 19:09:00,
2013-09-20 12:10:00,65.5,60.5,29.59,WSW,248,6.3,7.8,84,0.00,,,0.00,VWS V14.01,2013-09-20 19:10:00,
2013-09-20 12:11:00,65.5,60.5,29.59,WSW,248,6.3,7.8,84,0.00,,,0.00,VWS V14.01,2013-09-20 19:11:00,
2013-09-20 12:12:00,65.8,60.9,29.59,WSW,248,6.3,7.8,84,0.00,,,0.00,VWS V14.01,2013-09-20 19:12:00,
2013-09-20 12:13:00,65.8,60.9,29.59,WSW,248,6.3,7.8,84,0.00,,,0.00,VWS V14.01,2013-09-20 19:13:00,
2013-09-20 12:14:00,66.2,60.9,29.59,WSW,248,6.3,6.3,83,0.00,,,0.00,VWS V14.01,2013-09-20 19:14:00,
2013-09-20 12:15:00,66.9,61.2,29.59,WSW,248,6.5,6.5,82,0.00,,,0.00,VWS V14.01,2013-09-20 19:15:00,
2013-09-20 12:16:00,66.9,61.2,29.59,WSW,248,10.5,10.5,82,0.00,,,0.00,VWS V14.01,2013-09-20 19:16:00,
2013-09-20 12:17:00,66.9,61.2,29.59,WNW,292,7.4,10.5,82,0.00,,,0.00,VWS V14.01,2013-09-20 19:17:00,
2013-09-20 12:18:00,66.9,60.9,29.59,WSW,248,8.5,10.5,81,0.00,,,0.00,VWS V14.01,2013-09-20 19:18:00,
2013-09-20 12:19:00,66.9,60.9,29.59,WSW,248,7.2,10.5,81,0.00,,,0.00,VWS V14.01,2013-09-20 19:19:00,
2013-09-20 12:20:00,66.9,60.9,29.56,WSW,248,3.1,8.5,81,0.00,,,0.00,VWS V14.01,2013-09-20 19:20:00,
2013-09-20 12:21:00,67.3,61.3,29.56,SW,225,7.4,8.5,81,0.00,,,0.00,VWS V14.01,2013-09-20 19:21:00,
2013-09-20 12:22:00,67.3,61.3,29.56,WNW,292,4.3,7.4,81,0.00,,,0.00,VWS V14.01,2013-09-20 19:22:00,
2013-09-20 12:23:00,67.5,61.1,29.56,WSW,248,5.4,7.4,80,0.00,,,0.00,VWS V14.01,2013-09-20 19:23:00,
2013-09-20 12:24:00,67.5,61.1,29.56,West,270,8.5,8.5,80,0.00,,,0.00,VWS V14.01,2013-09-20 19:24:00,
2013-09-20 12:25:00,67.5,61.1,29.56,NW,315,5.4,8.5,80,0.00,,,0.00,VWS V14.01,2013-09-20 19:25:00,
2013-09-20 12:26:00,67.5,60.7,29.56,NW,315,5.4,8.5,79,0.00,,,0.00,VWS V14.01,2013-09-20 19:26:00,
2013-09-20 12:27:00,67.5,60.7,29.56,WSW,248,6.5,8.5,79,0.00,,,0.00,VWS V14.01,2013-09-20 19:27:00,
2013-09-20 12:28:00,67.8,61.1,29.56,WNW,292,7.6,7.6,79,0.00,,,0.00,VWS V14.01,2013-09-20 19:28:00,
2013-09-20 12:29:00,67.8,61.1,29.56,SW,225,3.8,7.6,79,0.00,,,0.00,VWS V14.01,2013-09-20 19:29:00,
2013-09-20 12:30:00,68.0,61.2,29.56,WNW,292,2.5,7.6,79,0.00,,,0.00,VWS V14.01,2013-09-20 19:30:00,
2013-09-20 12:31:00,68.0,61.2,29.56,SW,225,7.8,7.8,79,0.00,,,0.00,VWS V14.01,2013-09-20 19:31:00,
2013-09-20 12:32:00,68.5,61.4,29.56,WNW,292,3.6,7.8,78,0.00,,,0.00,VWS V14.01,2013-09-20 19:32:00,
2013-09-20 12:33:00,68.5,61.4,29.56,West,270,4.0,7.8,78,0.00,,,0.00,VWS V14.01,2013-09-20 19:33:00,
2013-09-20 12:34:00,69.1,61.9,29.56,WSW,248,4.0,7.8,78,0.00,,,0.00,VWS V14.01,2013-09-20 19:34:00,
2013-09-20 12:35:00,70.2,62.6,29.56,WSW,248,0.9,4.0,77,0.00,,,0.00,VWS V14.01,2013-09-20 19:35:00,
2013-09-20 12:36:00,70.2,62.6,29.56,WSW,248,6.0,6.0,77,0.00,,,0.00,VWS V14.01,2013-09-20 19:36:00,
2013-09-20 12:37:00,70.2,62.6,29.56,WSW,248,6.0,6.0,77,0.00,,,0.00,VWS V14.01,2013-09-20 19:37:00,
2013-09-20 12:38:00,70.2,62.6,29.56,WSW,248,6.0,6.0,77,0.00,,,0.00,VWS V14.01,2013-09-20 19:38:00,
2013-09-20 12:39:00,70.2,61.5,29.56,SW,225,6.7,6.7,74,0.00,,,0.00,VWS V14.01,2013-09-20 19:39:00,
2013-09-20 12:40:00,69.8,61.2,29.56,WSW,248,2.9,6.7,74,0.00,,,0.00,VWS V14.01,2013-09-20 19:40:00,
2013-09-20 12:41:00,69.8,61.2,29.56,WSW,248,2.9,6.7,74,0.00,,,0.00,VWS V14.01,2013-09-20 19:41:00,
2013-09-20 12:42:00,69.8,61.2,29.56,WSW,248,2.9,6.7,74,0.00,,,0.00,VWS V14.01,2013-09-20 19:42:00,
2013-09-20 12:43:00,69.8,61.2,29.56,WSW,248,2.9,6.7,74,0.00,,,0.00,VWS V14.01,2013-09-20 19:43:00,
2013-09-20 12:44:00,70.0,60.9,29.56,WNW,292,3.8,7.8,73,0.00,,,0.00,VWS V14.01,2013-09-20 19:44:00,
2013-09-20 12:45:00,70.0,60.9,29.56,WNW,292,3.8,7.8,73,0.00,,,0.00,VWS V14.01,2013-09-20 19:45:00,
2013-09-20 12:46:00,70.0,60.9,29.56,WNW,292,3.8,7.8,73,0.00,,,0.00,VWS V14.01,2013-09-20 19:46:00,
2013-09-20 12:47:00,70.0,60.9,29.56,WNW,292,3.8,7.8,73,0.00,,,0.00,VWS V14.01,2013-09-20 19:47:00,
2013-09-20 12:48:00,70.2,60.7,29.56,WNW,292,3.8,3.8,72,0.00,,,0.00,VWS V14.01,2013-09-20 19:48:00,
2013-09-20 12:49:00,70.2,60.7,29.56,WNW,292,3.8,3.8,72,0.00,,,0.00,VWS V14.01,2013-09-20 19:49:00,
2013-09-20 12:50:00,70.2,60.7,29.56,WNW,292,3.8,3.8,72,0.00,,,0.00,VWS V14.01,2013-09-20 19:50:00,
2013-09-20 12:51:00,70.7,60.8,29.56,WNW,292,3.8,3.8,71,0.00,,,0.00,VWS V14.01,2013-09-20 19:51:00,
2013-09-20 12:52:00,70.7,60.8,29.56,WNW,292,3.8,3.8,71,0.00,,,0.00,VWS V14.01,2013-09-20 19:52:00,
2013-09-20 12:53:00,70.3,60.5,29.56,WNW,292,3.8,3.8,71,0.00,,,0.00,VWS V14.01,2013-09-20 19:53:00,
2013-09-20 12:54:00,70.3,60.5,29.56,WSW,248,4.0,4.0,71,0.00,,,0.00,VWS V14.01,2013-09-20 19:54:00,
2013-09-20 12:55:00,70.3,60.5,29.56,WSW,248,5.6,5.6,71,0.00,,,0.00,VWS V14.01,2013-09-20 19:55:00,
2013-09-20 12:56:00,70.3,60.5,29.56,WSW,248,5.6,5.6,71,0.00,,,0.00,VWS V14.01,2013-09-20 19:56:00,
2013-09-20 12:57:00,70.3,60.5,29.56,SW,225,4.9,5.6,71,0.00,,,0.00,VWS V14.01,2013-09-20 19:57:00,
2013-09-20 12:58:00,70.3,60.5,29.56,WNW,292,4.0,5.6,71,0.00,,,0.00,VWS V14.01,2013-09-20 19:58:00,
2013-09-20 12:59:00,70.3,60.5,29.56,SW,225,6.0,6.0,71,0.00,,,0.00,VWS V14.01,2013-09-20 19:59:00,
2013-09-20 13:00:00,70.9,61.0,29.56,SW,225,2.7,6.0,71,0.00,,,0.00,VWS V14.01,2013-09-20 20:00:00,
2013-09-20 13:01:00,70.9,61.0,29.56,WNW,292,7.6,7.6,71,0.00,,,0.00,VWS V14.01,2013-09-20 20:01:00,
2013-09-20 13:02:00,70.9,61.0,29.56,SW,225,5.6,7.6,71,0.00,,,0.00,VWS V14.01,2013-09-20 20:02:00,
2013-09-20 13:03:00,70.9,61.0,29.56,WSW,248,3.8,7.6,71,0.00,,,0.00,VWS V14.01,2013-09-20 20:03:00,
2013-09-20 13:04:00,70.9,60.6,29.56,NW,315,2.9,7.6,70,0.00,,,0.00,VWS V14.01,2013-09-20 20:04:00,
2013-09-20 13:05:00,70.7,60.5,29.56,WNW,292,3.6,6.3,70,0.00,,,0.00,VWS V14.01,2013-09-20 20:05:00,
2013-09-20 13:06:00,70.7,60.5,29.56,WNW,292,3.6,6.3,70,0.00,,,0.00,VWS V14.01,2013-09-20 20:06:00,
2013-09-20 13:07:00,70.9,60.6,29.56,West,270,4.0,6.3,70,0.00,,,0.00,VWS V14.01,2013-09-20 20:07:00,
2013-09-20 13:08:00,70.9,60.6,29.56,NNW,338,7.2,7.2,70,0.00,,,0.00,VWS V14.01,2013-09-20 20:08:00,
2013-09-20 13:09:00,70.2,59.9,29.56,WSW,248,4.0,7.2,70,0.00,,,0.00,VWS V14.01,2013-09-20 20:09:00,
2013-09-20 13:10:00,70.2,60.3,29.56,WNW,292,7.4,7.4,71,0.00,,,0.00,VWS V14.01,2013-09-20 20:10:00,
2013-09-20 13:11:00,70.2,60.3,29.56,WNW,292,7.4,7.4,71,0.00,,,0.00,VWS V14.01,2013-09-20 20:11:00,
2013-09-20 13:12:00,70.5,60.7,29.56,WNW,292,6.0,7.4,71,0.00,,,0.00,VWS V14.01,2013-09-20 20:12:00,
2013-09-20 13:13:00,70.5,60.7,29.56,WNW,292,6.0,7.4,71,0.00,,,0.00,VWS V14.01,2013-09-20 20:13:00,
2013-09-20 13:14:00,71.1,60.8,29.56,WNW,292,6.0,7.4,70,0.00,,,0.00,VWS V14.01,2013-09-20 20:14:00,
2013-09-20 13:15:00,71.1,60.8,29.56,WNW,292,6.0,7.4,70,0.00,,,0.00,VWS V14.01,2013-09-20 20:15:00,
2013-09-20 13:16:00,71.1,60.8,29.56,WNW,292,6.0,7.4,70,0.00,,,0.00,VWS V14.01,2013-09-20 20:16:00,
2013-09-20 13:17:00,71.1,60.8,29.56,WNW,292,6.0,6.0,70,0.00,,,0.00,VWS V14.01,2013-09-20 20:17:00,
2013-09-20 13:18:00,71.1,60.8,29.56,WNW,292,6.0,6.0,70,0.00,,,0.00,VWS V14.01,2013-09-20 20:18:00,
2013-09-20 13:19:00,72.0,60.8,29.56,SW,225,5.8,6.0,68,0.00,,,0.00,VWS V14.01,2013-09-20 20:19:00,
2013-09-20 13:20:00,72.0,60.8,29.56,SW,225,5.8,6.0,68,0.00,,,0.00,VWS V14.01,2013-09-20 20:20:00,
2013-09-20 13:21:00,72.0,60.8,29.56,SW,225,5.8,6.0,68,0.00,,,0.00,VWS V14.01,2013-09-20 20:21:00,
2013-09-20 13:22:00,72.0,60.8,29.56,SW,225,5.8,6.0,68,0.00,,,0.00,VWS V14.01,2013-09-20 20:22:00,
2013-09-20 13:23:00,72.0,60.8,29.56,SW,225,5.8,6.0,68,0.00,,,0.00,VWS V14.01,2013-09-20 20:23:00,
2013-09-20 13:24:00,72.0,60.8,29.56,SW,225,5.8,6.0,68,0.00,,,0.00,VWS V14.01,2013-09-20 20:24:00,
2013-09-20 13:25:00,72.0,60.8,29.56,SW,225,5.8,5.8,68,0.00,,,0.00,VWS V14.01,2013-09-20 20:25:00,
2013-09-20 13:26:00,72.0,60.8,29.56,SW,225,5.8,5.8,68,0.00,,,0.00,VWS V14.01,2013-09-20 20:26:00,
2013-09-20 13:27:00,72.0,60.8,29.56,SW,225,5.8,5.8,68,0.00,,,0.00,VWS V14.01,2013-09-20 20:27:00,
2013-09-20 13:28:00,72.0,60.8,29.56,SW,225,5.8,5.8,68,0.00,,,0.00,VWS V14.01,2013-09-20 20:28:00,
2013-09-20 13:29:00,72.0,60.8,29.56,SW,225,5.8,5.8,68,0.00,,,0.00,VWS V14.01,2013-09-20 20:29:00,
2013-09-20 13:30:00,72.0,60.8,29.56,SW,225,5.8,5.8,68,0.00,,,0.00,VWS V14.01,2013-09-20 20:30:00,
2013-09-20 13:31:00,72.0,60.8,29.56,WSW,248,6.5,6.5,68,0.00,,,0.00,VWS V14.01,2013-09-20 20:31:00,
2013-09-20 13:32:00,72.0,60.8,29.56,WSW,248,6.5,6.5,68,0.00,,,0.00,VWS V14.01,2013-09-20 20:32:00,
2013-09-20 13:33:00,72.0,60.8,29.56,WSW,248,8.5,8.5,68,0.00,,,0.00,VWS V14.01,2013-09-20 20:33:00,
2013-09-20 13:34:00,72.0,60.8,29.56,WSW,248,7.2,8.5,68,0.00,,,0.00,VWS V14.01,2013-09-20 20:34:00,
2013-09-20 13:35:00,72.7,60.7,29.56,NW,315,3.6,8.5,66,0.00,,,0.00,VWS V14.01,2013-09-20 20:35:00,
2013-09-20 13:36:00,72.7,60.7,29.56,NW,315,3.6,8.5,66,0.00,,,0.00,VWS V14.01,2013-09-20 20:36:00,
2013-09-20 13:37:00,72.7,61.1,29.56,SW,225,5.4,8.5,67,0.00,,,0.00,VWS V14.01,2013-09-20 20:37:00,
2013-09-20 13:38:00,72.7,61.1,29.56,West,270,2.9,7.2,67,0.00,,,0.00,VWS V14.01,2013-09-20 20:38:00,
2013-09-20 13:39:00,72.7,61.1,29.56,WNW,292,8.1,8.1,67,0.00,,,0.00,VWS V14.01,2013-09-20 20:39:00,
2013-09-20 13:40:00,71.8,60.2,29.56,WNW,292,7.6,13.0,67,0.00,,,0.00,VWS V14.01,2013-09-20 20:40:00,
2013-09-20 13:41:00,71.8,60.2,29.56,SSW,202,8.5,13.0,67,0.00,,,0.00,VWS V14.01,2013-09-20 20:41:00,
2013-09-20 13:42:00,71.6,60.1,29.56,WSW,248,7.4,13.0,67,0.00,,,0.00,VWS V14.01,2013-09-20 20:42:00,
2013-09-20 13:43:00,71.6,60.1,29.56,WSW,248,10.5,10.5,67,0.00,,,0.00,VWS V14.01,2013-09-20 20:43:00,
2013-09-20 13:44:00,70.9,59.8,29.56,WSW,248,10.3,10.5,68,0.00,,,0.00,VWS V14.01,2013-09-20 20:44:00,
2013-09-20 13:45:00,70.9,59.8,29.56,WSW,248,2.7,10.5,68,0.00,,,0.00,VWS V14.01,2013-09-20 20:45:00,
2013-09-20 13:46:00,70.9,59.8,29.56,West,270,6.3,10.5,68,0.00,,,0.00,VWS V14.01,2013-09-20 20:46:00,
2013-09-20 13:47:00,70.9,59.8,29.56,WSW,248,8.7,10.5,68,0.00,,,0.00,VWS V14.01,2013-09-20 20:47:00,
2013-09-20 13:48:00,70.7,60.0,29.56,WSW,248,6.0,10.3,69,0.00,,,0.00,VWS V14.01,2013-09-20 20:48:00,
2013-09-20 13:49:00,70.7,60.0,29.56,WNW,292,5.6,8.7,69,0.00,,,0.00,VWS V14.01,2013-09-20 20:49:00,
2013-09-20 13:50:00,70.9,60.2,29.56,West,270,3.6,9.6,69,0.00,,,0.00,VWS V14.01,2013-09-20 20:50:00,
2013-09-20 13:51:00,70.9,60.2,29.56,West,270,3.6,9.6,69,0.00,,,0.00,VWS V14.01,2013-09-20 20:51:00,
2013-09-20 13:52:00,70.9,60.2,29.56,NW,315,3.1,9.6,69,0.00,,,0.00,VWS V14.01,2013-09-20 20:52:00,
2013-09-20 13:53:00,71.2,60.6,29.56,WSW,248,4.9,9.6,69,0.00,,,0.00,VWS V14.01,2013-09-20 20:53:00,
2013-09-20 13:54:00,71.2,60.6,29.56,WSW,248,7.6,9.8,69,0.00,,,0.00,VWS V14.01,2013-09-20 20:54:00,
2013-09-20 13:55:00,70.9,60.2,29.56,West,270,4.7,9.8,69,0.00,,,0.00,VWS V14.01,2013-09-20 20:55:00,
2013-09-20 13:56:00,70.9,60.2,29.56,WSW,248,12.1,12.1,69,0.00,,,0.00,VWS V14.01,2013-09-20 20:56:00,
2013-09-20 13:57:00,70.3,60.1,29.56,WNW,292,7.6,12.1,70,0.00,,,0.00,VWS V14.01,2013-09-20 20:57:00,
2013-09-20 13:58:00,70.3,60.1,29.56,WNW,292,7.6,12.1,70,0.00,,,0.00,VWS V14.01,2013-09-20 20:58:00,
2013-09-20 13:59:00,70.3,60.1,29.56,WNW,292,7.6,12.1,70,0.00,,,0.00,VWS V14.01,2013-09-20 20:59:00,
2013-09-20 14:00:00,70.0,60.2,29.56,WNW,292,8.1,12.1,71,0.00,,,0.00,VWS V14.01,2013-09-20 21:00:00,
2013-09-20 14:01:00,70.0,60.2,29.56,West,270,5.4,8.1,71,0.00,,,0.00,VWS V14.01,2013-09-20 21:01:00,
2013-09-20 14:02:00,70.3,60.5,29.56,WSW,248,6.3,8.1,71,0.00,,,0.00,VWS V14.01,2013-09-20 21:02:00,
2013-09-20 14:03:00,70.3,60.5,29.56,WSW,248,7.6,8.1,71,0.00,,,0.00,VWS V14.01,2013-09-20 21:03:00,
2013-09-20 14:04:00,70.3,60.5,29.56,West,270,6.5,8.1,71,0.00,,,0.00,VWS V14.01,2013-09-20 21:04:00,
2013-09-20 14:05:00,70.3,60.5,29.56,SW,225,6.0,7.6,71,0.00,,,0.00,VWS V14.01,2013-09-20 21:05:00,
2013-09-20 14:06:00,70.3,60.5,29.56,SW,225,6.0,7.6,71,0.00,,,0.00,VWS V14.01,2013-09-20 21:06:00,
2013-09-20 14:07:00,71.4,60.7,29.56,WSW,248,8.7,8.7,69,0.00,,,0.00,VWS V14.01,2013-09-20 21:07:00,
2013-09-20 14:08:00,71.4,60.7,29.56,WSW,248,14.5,14.5,69,0.00,,,0.00,VWS V14.01,2013-09-20 21:08:00,
2013-09-20 14:09:00,71.4,60.7,29.56,SW,225,5.6,14.5,69,0.00,,,0.00,VWS V14.01,2013-09-20 21:09:00,
2013-09-20 14:10:00,71.1,60.4,29.56,WSW,248,8.1,14.5,69,0.00,,,0.00,VWS V14.01,2013-09-20 21:10:00,
2013-09-20 14:11:00,71.1,60.4,29.56,West,270,10.3,14.5,69,0.00,,,0.00,VWS V14.01,2013-09-20 21:11:00,
2013-09-20 14:12:00,71.6,60.5,29.56,SW,225,10.3,14.5,68,0.00,,,0.00,VWS V14.01,2013-09-20 21:12:00,
2013-09-20 14:13:00,71.6,60.5,29.56,SW,225,12.1,12.1,68,0.00,,,0.00,VWS V14.01,2013-09-20 21:13:00,
2013-09-20 14:14:00,71.1,60.0,29.56,WNW,292,5.8,12.1,68,0.00,,,0.00,VWS V14.01,2013-09-20 21:14:00,
2013-09-20 14:15:00,71.1,60.0,29.56,West,270,13.0,13.0,68,0.00,,,0.00,VWS V14.01,2013-09-20 21:15:00,
2013-09-20 14:16:00,71.1,60.0,29.56,West,270,13.0,13.0,68,0.00,,,0.00,VWS V14.01,2013-09-20 21:16:00,
2013-09-20 14:17:00,71.1,60.0,29.56,WSW,248,6.0,13.0,68,0.00,,,0.00,VWS V14.01,2013-09-20 21:17:00,
2013-09-20 14:18:00,70.5,60.3,29.56,WSW,248,4.0,13.0,70,0.00,,,0.00,VWS V14.01,2013-09-20 21:18:00,
2013-09-20 14:19:00,70.5,60.3,29.56,West,270,7.8,13.0,70,0.00,,,0.00,VWS V14.01,2013-09-20 21:19:00,
2013-09-20 14:20:00,70.7,60.5,29.56,SSW,202,8.1,8.1,70,0.00,,,0.00,VWS V14.01,2013-09-20 21:20:00,
2013-09-20 14:21:00,70.7,60.5,29.56,SSW,202,8.1,8.1,70,0.00,,,0.00,VWS V14.01,2013-09-20 21:21:00,
2013-09-20 14:22:00,70.7,60.5,29.56,SW,225,4.3,9.8,70,0.00,,,0.00,VWS V14.01,2013-09-20 21:22:00,
2013-09-20 14:23:00,70.5,60.3,29.56,SSW,202,12.3,12.3,70,0.00,,,0.00,VWS V14.01,2013-09-20 21:23:00,
2013-09-20 14:24:00,70.5,60.3,29.56,West,270,8.1,12.3,70,0.00,,,0.00,VWS V14.01,2013-09-20 21:24:00,
2013-09-20 14:25:00,70.5,60.3,29.56,WSW,248,9.4,12.3,70,0.00,,,0.00,VWS V14.01,2013-09-20 21:25:00,
2013-09-20 14:26:00,70.5,60.3,29.56,WSW,248,6.0,12.3,70,0.00,,,0.00,VWS V14.01,2013-09-20 21:26:00,
2013-09-20 14:27:00,70.9,60.6,29.56,SW,225,15.2,15.2,70,0.00,,,0.00,VWS V14.01,2013-09-20 21:27:00,
2013-09-20 14:28:00,70.0,60.2,29.56,WSW,248,7.6,15.2,71,0.00,,,0.00,VWS V14.01,2013-09-20 21:28:00,
2013-09-20 14:29:00,70.0,60.2,29.56,WSW,248,7.6,15.2,71,0.00,,,0.00,VWS V14.01,2013-09-20 21:29:00,
2013-09-20 14:30:00,69.8,60.0,29.56,SW,225,5.8,15.2,71,0.00,,,0.00,VWS V14.01,2013-09-20 21:30:00,
2013-09-20 14:31:00,69.8,60.0,29.56,SW,225,5.8,15.2,71,0.00,,,0.00,VWS V14.01,2013-09-20 21:31:00,
2013-09-20 14:32:00,69.8,60.0,29.56,SW,225,5.8,15.2,71,0.00,,,0.00,VWS V14.01,2013-09-20 21:32:00,
2013-09-20 14:33:00,69.8,60.0,29.56,SW,225,5.8,7.6,71,0.00,,,0.00,VWS V14.01,2013-09-20 21:33:00,
2013-09-20 14:34:00,69.4,60.0,29.56,SW,225,5.8,7.6,72,0.00,,,0.00,VWS V14.01,2013-09-20 21:34:00,
2013-09-20 14:35:00,69.1,60.1,29.56,West,270,12.1,12.1,73,0.00,,,0.00,VWS V14.01,2013-09-20 21:35:00,
2013-09-20 14:36:00,69.1,60.1,29.56,WSW,248,10.5,12.1,73,0.00,,,0.00,VWS V14.01,2013-09-20 21:36:00,
2013-09-20 14:37:00,68.9,60.3,29.56,WSW,248,10.5,12.1,74,0.00,,,0.00,VWS V14.01,2013-09-20 21:37:00,
2013-09-20 14:38:00,68.9,60.3,29.56,SW,225,7.8,12.1,74,0.00,,,0.00,VWS V14.01,2013-09-20 21:38:00,
2013-09-20 14:39:00,68.9,60.3,29.56,SW,225,8.7,12.1,74,0.00,,,0.00,VWS V14.01,2013-09-20 21:39:00,
2013-09-20 14:40:00,68.9,60.3,29.56,WSW,248,8.5,10.5,74,0.00,,,0.00,VWS V14.01,2013-09-20 21:40:00,
2013-09-20 14:41:00,68.9,60.3,29.56,WNW,292,6.3,10.5,74,0.00,,,0.00,VWS V14.01,2013-09-20 21:41:00,
2013-09-20 14:42:00,68.9,60.3,29.56,WSW,248,5.4,8.7,74,0.00,,,0.00,VWS V14.01,2013-09-20 21:42:00,
2013-09-20 14:43:00,69.3,60.6,29.56,SSW,202,17.9,17.9,74,0.00,,,0.00,VWS V14.01,2013-09-20 21:43:00,
2013-09-20 14:44:00,69.4,60.4,29.56,WSW,248,4.0,17.9,73,0.00,,,0.00,VWS V14.01,2013-09-20 21:44:00,
2013-09-20 14:45:00,69.4,60.4,29.56,WSW,248,10.1,17.9,73,0.00,,,0.00,VWS V14.01,2013-09-20 21:45:00,
2013-09-20 14:46:00,69.4,60.4,29.56,SW,225,9.4,17.9,73,0.00,,,0.00,VWS V14.01,2013-09-20 21:46:00,
2013-09-20 14:47:00,69.4,60.4,29.56,SW,225,9.4,17.9,73,0.00,,,0.00,VWS V14.01,2013-09-20 21:47:00,
2013-09-20 14:48:00,69.8,60.8,29.56,SW,225,9.4,10.1,73,0.00,,,0.00,VWS V14.01,2013-09-20 21:48:00,
2013-09-20 14:49:00,69.8,60.8,29.56,SSW,202,10.5,10.5,73,0.00,,,0.00,VWS V14.01,2013-09-20 21:49:00,
2013-09-20 14:50:00,69.8,60.4,29.56,SSW,202,10.5,10.5,72,0.00,,,0.00,VWS V14.01,2013-09-20 21:50:00,
2013-09-20 14:51:00,69.8,60.4,29.56,WSW,248,8.1,10.5,72,0.00,,,0.00,VWS V14.01,2013-09-20 21:51:00,
2013-09-20 14:52:00,69.8,60.4,29.56,SW,225,9.0,10.5,72,0.00,,,0.00,VWS V14.01,2013-09-20 21:52:00,
2013-09-20 14:53:00,70.0,60.5,29.56,SSW,202,8.5,10.5,72,0.00,,,0.00,VWS V14.01,2013-09-20 21:53:00,
2013-09-20 14:54:00,70.0,60.5,29.56,SW,225,7.4,10.5,72,0.00,,,0.00,VWS V14.01,2013-09-20 21:54:00,
2013-09-20 14:55:00,70.3,60.5,29.56,SW,225,6.0,9.0,71,0.00,,,0.00,VWS V14.01,2013-09-20 21:55:00,
2013-09-20 14:56:00,70.3,60.5,29.56,WSW,248,8.5,9.0,71,0.00,,,0.00,VWS V14.01,2013-09-20 21:56:00,
2013-09-20 14:57:00,70.0,60.2,29.56,WSW,248,10.3,10.3,71,0.00,,,0.00,VWS V14.01,2013-09-20 21:57:00,
2013-09-20 14:58:00,70.2,60.3,29.56,NW,315,7.2,10.3,71,0.00,,,0.00,VWS V14.01,2013-09-20 21:58:00,
2013-09-20 14:59:00,70.2,60.3,29.56,SW,225,13.0,13.0,71,0.00,,,0.00,VWS V14.01,2013-09-20 21:59:00,
2013-09-20 15:00:00,69.8,60.4,29.56,WSW,248,6.5,13.0,72,0.00,,,0.00,VWS V14.01,2013-09-20 22:00:00,
2013-09-20 15:01:00,69.8,60.4,29.56,WSW,248,6.5,13.0,72,0.00,,,0.00,VWS V14.01,2013-09-20 22:01:00,
2013-09-20 15:02:00,70.2,61.1,29.56,WSW,248,7.2,13.0,73,0.00,,,0.00,VWS V14.01,2013-09-20 22:02:00,
2013-09-20 15:03:00,70.2,61.1,29.56,West,270,12.8,13.0,73,0.00,,,0.00,VWS V14.01,2013-09-20 22:03:00,
2013-09-20 15:04:00,69.6,61.0,29.56,SSW,202,7.4,12.8,74,0.00,,,0.00,VWS V14.01,2013-09-20 22:04:00,
2013-09-20 15:05:00,69.6,61.0,29.56,SSW,202,7.4,12.8,74,0.00,,,0.00,VWS V14.01,2013-09-20 22:05:00,
2013-09-20 15:06:00,69.6,61.0,29.56,WSW,248,4.3,12.8,74,0.00,,,0.00,VWS V14.01,2013-09-20 22:06:00,
2013-09-20 15:07:00,69.6,61.0,29.56,WSW,248,4.3,12.8,74,0.00,,,0.00,VWS V14.01,2013-09-20 22:07:00,
2013-09-20 15:08:00,69.6,61.0,29.56,WSW,248,4.3,12.8,74,0.00,,,0.00,VWS V14.01,2013-09-20 22:08:00,
2013-09-20 15:09:00,71.6,61.7,29.56,SSW,202,4.9,7.4,71,0.00,,,0.00,VWS V14.01,2013-09-20 22:09:00,
2013-09-20 15:10:00,72.9,62.5,29.56,NW,315,1.6,4.9,70,0.00,,,0.00,VWS V14.01,2013-09-20 22:10:00,
2013-09-20 15:11:00,72.9,62.5,29.56,South,180,2.9,4.9,70,0.00,,,0.00,VWS V14.01,2013-09-20 22:11:00,
2013-09-20 15:12:00,72.9,62.5,29.56,West,270,4.3,4.9,70,0.00,,,0.00,VWS V14.01,2013-09-20 22:12:00,
2013-09-20 15:13:00,72.5,60.9,29.56,WSW,248,6.5,6.5,67,0.00,,,0.00,VWS V14.01,2013-09-20 22:13:00,
2013-09-20 15:14:00,72.7,61.5,29.56,NNW,338,4.3,6.5,68,0.00,,,0.00,VWS V14.01,2013-09-20 22:14:00,
2013-09-20 15:15:00,72.7,61.5,29.56,WSW,248,6.3,6.5,68,0.00,,,0.00,VWS V14.01,2013-09-20 22:15:00,
2013-09-20 15:16:00,72.7,61.5,29.56,WSW,248,6.3,6.5,68,0.00,,,0.00,VWS V14.01,2013-09-20 22:16:00,
2013-09-20 15:17:00,72.7,61.5,29.56,WSW,248,9.6,9.6,68,0.00,,,0.00,VWS V14.01,2013-09-20 22:17:00,
2013-09-20 15:18:00,72.5,60.9,29.56,SW,225,8.7,9.6,67,0.00,,,0.00,VWS V14.01,2013-09-20 22:18:00,
2013-09-20 15:19:00,72.5,60.9,29.56,SW,225,6.3,9.6,67,0.00,,,0.00,VWS V14.01,2013-09-20 22:19:00,
2013-09-20 15:20:00,72.5,60.9,29.56,West,270,8.1,9.6,67,0.00,,,0.00,VWS V14.01,2013-09-20 22:20:00,
2013-09-20 15:21:00,72.5,60.9,29.56,WNW,292,10.3,10.3,67,0.00,,,0.00,VWS V14.01,2013-09-20 22:21:00,
2013-09-20 15:22:00,72.5,60.9,29.56,WNW,292,10.3,10.3,67,0.00,,,0.00,VWS V14.01,2013-09-20 22:22:00,
2013-09-20 15:23:00,73.2,61.2,29.56,WSW,248,8.7,10.3,66,0.00,,,0.00,VWS V14.01,2013-09-20 22:23:00,
2013-09-20 15:24:00,73.2,61.2,29.56,WNW,292,8.5,10.3,66,0.00,,,0.00,VWS V14.01,2013-09-20 22:24:00,
2013-09-20 15:25:00,73.0,60.6,29.56,WNW,292,8.5,10.3,65,0.00,,,0.00,VWS V14.01,2013-09-20 22:25:00,
2013-09-20 15:26:00,73.0,60.6,29.56,WSW,248,9.8,10.3,65,0.00,,,0.00,VWS V14.01,2013-09-20 22:26:00,
2013-09-20 15:27:00,72.9,60.8,29.56,WSW,248,8.1,9.8,66,0.00,,,0.00,VWS V14.01,2013-09-20 22:27:00,
2013-09-20 15:28:00,72.1,60.6,29.56,WNW,292,10.1,10.1,67,0.00,,,0.00,VWS V14.01,2013-09-20 22:28:00,
2013-09-20 15:29:00,72.1,60.6,29.56,SSW,202,7.6,10.1,67,0.00,,,0.00,VWS V14.01,2013-09-20 22:29:00,
2013-09-20 15:30:00,72.1,60.6,29.56,SW,225,6.5,10.1,67,0.00,,,0.00,VWS V14.01,2013-09-20 22:30:00,
2013-09-20 15:31:00,72.1,60.6,29.56,SW,225,6.5,10.1,67,0.00,,,0.00,VWS V14.01,2013-09-20 22:31:00,
2013-09-20 15:32:00,73.4,61.4,29.56,WNW,292,0.0,10.1,66,0.00,,,0.00,VWS V14.01,2013-09-20 22:32:00,
2013-09-20 15:33:00,73.4,61.4,29.56,WSW,248,5.4,6.7,66,0.00,,,0.00,VWS V14.01,2013-09-20 22:33:00,
2013-09-20 15:34:00,74.3,61.8,29.56,WNW,292,2.7,6.7,65,0.00,,,0.00,VWS V14.01,2013-09-20 22:34:00,
2013-09-20 15:35:00,74.3,61.3,29.56,WSW,248,9.8,9.8,64,0.00,,,0.00,VWS V14.01,2013-09-20 22:35:00,
2013-09-20 15:36:00,74.3,61.3,29.56,NNW,338,6.0,9.8,64,0.00,,,0.00,VWS V14.01,2013-09-20 22:36:00,
2013-09-20 15:37:00,74.3,61.3,29.56,West,270,4.0,9.8,64,0.00,,,0.00,VWS V14.01,2013-09-20 22:37:00,
2013-09-20 15:38:00,74.3,61.3,29.56,NW,315,5.4,9.8,64,0.00,,,0.00,VWS V14.01,2013-09-20 22:38:00,
2013-09-20 15:39:00,73.9,60.6,29.56,SW,225,9.6,9.6,63,0.00,,,0.00,VWS V14.01,2013-09-20 22:39:00,
2013-09-20 15:40:00,73.9,60.6,29.56,WSW,248,9.8,9.8,63,0.00,,,0.00,VWS V14.01,2013-09-20 22:40:00,
2013-09-20 15:41:00,74.7,61.7,29.56,WSW,248,9.8,9.8,64,0.00,,,0.00,VWS V14.01,2013-09-20 22:41:00,
2013-09-20 15:42:00,74.7,61.7,29.56,SSW,202,7.6,9.8,64,0.00,,,0.00,VWS V14.01,2013-09-20 22:42:00,
2013-09-20 15:43:00,75.4,61.5,29.56,WSW,248,5.4,9.8,62,0.00,,,0.00,VWS V14.01,2013-09-20 22:43:00,
2013-09-20 15:44:00,75.6,60.7,29.56,WSW,248,5.4,9.8,60,0.00,,,0.00,VWS V14.01,2013-09-20 22:44:00,
2013-09-20 15:45:00,75.6,60.7,29.56,SW,225,7.2,7.6,60,0.00,,,0.00,VWS V14.01,2013-09-20 22:45:00,
2013-09-20 15:46:00,75.9,61.0,29.56,SW,225,5.8,7.6,60,0.00,,,0.00,VWS V14.01,2013-09-20 22:46:00,
2013-09-20 15:47:00,75.9,61.0,29.56,SW,225,5.8,7.2,60,0.00,,,0.00,VWS V14.01,2013-09-20 22:47:00,
2013-09-20 15:48:00,75.6,60.2,29.56,WSW,248,11.0,11.0,59,0.00,,,0.00,VWS V14.01,2013-09-20 22:48:00,
2013-09-20 15:49:00,75.6,60.2,29.56,WSW,248,6.0,11.0,59,0.00,,,0.00,VWS V14.01,2013-09-20 22:49:00,
2013-09-20 15:50:00,75.2,59.9,29.56,SW,225,5.4,11.0,59,0.00,,,0.00,VWS V14.01,2013-09-20 22:50:00,
2013-09-20 15:51:00,75.2,59.9,29.56,WSW,248,10.1,11.0,59,0.00,,,0.00,VWS V14.01,2013-09-20 22:51:00,
2013-09-20 15:52:00,75.2,59.9,29.56,WNW,292,10.3,10.3,59,0.00,,,0.00,VWS V14.01,2013-09-20 22:52:00,
2013-09-20 15:53:00,74.8,60.0,29.56,WNW,292,10.3,10.3,60,0.00,,,0.00,VWS V14.01,2013-09-20 22:53:00,
2013-09-20 15:54:00,74.8,60.0,29.56,WNW,292,10.3,10.3,60,0.00,,,0.00,VWS V14.01,2013-09-20 22:54:00,
2013-09-20 15:55:00,74.8,60.0,29.56,WNW,292,10.3,10.3,60,0.00,,,0.00,VWS V14.01,2013-09-20 22:55:00,
2013-09-20 15:56:00,74.8,60.0,29.56,WNW,292,10.3,10.3,60,0.00,,,0.00,VWS V14.01,2013-09-20 22:56:00,
2013-09-20 15:57:00,75.0,60.2,29.56,WSW,248,8.5,10.3,60,0.00,,,0.00,VWS V14.01,2013-09-20 22:57:00,
2013-09-20 15:58:00,75.0,60.2,29.56,SSE,158,2.7,10.3,60,0.00,,,0.00,VWS V14.01,2013-09-20 22:58:00,
2013-09-20 15:59:00,75.7,60.4,29.56,West,270,10.1,10.3,59,0.00,,,0.00,VWS V14.01,2013-09-20 22:59:00,
2013-09-20 16:00:00,75.9,60.6,29.56,SW,225,5.8,10.1,59,0.00,,,0.00,VWS V14.01,2013-09-20 23:00:00,
2013-09-20 16:01:00,75.9,60.6,29.56,SSW,202,4.3,10.1,59,0.00,,,0.00,VWS V14.01,2013-09-20 23:01:00,
2013-09-20 16:02:00,76.1,60.3,29.56,WSW,248,6.0,10.1,58,0.00,,,0.00,VWS V14.01,2013-09-20 23:02:00,
2013-09-20 16:03:00,76.1,60.3,29.56,WSW,248,11.9,11.9,58,0.00,,,0.00,VWS V14.01,2013-09-20 23:03:00,
2013-09-20 16:04:00,75.0,58.8,29.56,WSW,248,10.3,11.9,57,0.00,,,0.00,VWS V14.01,2013-09-20 23:04:00,
2013-09-20 16:05:00,74.5,59.2,29.53,WNW,292,2.7,11.9,59,0.00,,,0.00,VWS V14.01,2013-09-20 23:05:00,
2013-09-20 16:06:00,74.5,59.2,29.53,NNW,338,5.8,11.9,59,0.00,,,0.00,VWS V14.01,2013-09-20 23:06:00,
2013-09-20 16:07:00,74.5,59.2,29.53,SW,225,5.6,11.9,59,0.00,,,0.00,VWS V14.01,2013-09-20 23:07:00,
2013-09-20 16:08:00,74.5,59.2,29.53,SSW,202,10.3,10.3,59,0.00,,,0.00,VWS V14.01,2013-09-20 23:08:00,
2013-09-20 16:09:00,75.0,59.7,29.53,NNW,338,4.7,10.3,59,0.00,,,0.00,VWS V14.01,2013-09-20 23:09:00,
2013-09-20 16:10:00,75.0,59.7,29.53,West,270,5.4,10.3,59,0.00,,,0.00,VWS V14.01,2013-09-20 23:10:00,
2013-09-20 16:11:00,74.8,59.6,29.53,West,270,9.8,10.3,59,0.00,,,0.00,VWS V14.01,2013-09-20 23:11:00,
2013-09-20 16:12:00,74.8,59.6,29.53,West,270,8.1,10.3,59,0.00,,,0.00,VWS V14.01,2013-09-20 23:12:00,
2013-09-20 16:13:00,73.9,59.2,29.53,SSW,202,7.4,9.8,60,0.00,,,0.00,VWS V14.01,2013-09-20 23:13:00,
2013-09-20 16:14:00,73.9,59.7,29.53,SW,225,4.7,9.8,61,0.00,,,0.00,VWS V14.01,2013-09-20 23:14:00,
2013-09-20 16:15:00,73.9,59.7,29.53,WSW,248,9.8,9.8,61,0.00,,,0.00,VWS V14.01,2013-09-20 23:15:00,
2013-09-20 16:16:00,73.9,59.7,29.53,WSW,248,7.8,9.8,61,0.00,,,0.00,VWS V14.01,2013-09-20 23:16:00,
2013-09-20 16:17:00,73.9,59.7,29.53,WSW,248,7.4,9.8,61,0.00,,,0.00,VWS V14.01,2013-09-20 23:17:00,
2013-09-20 16:18:00,73.8,59.5,29.53,SW,225,9.8,9.8,61,0.00,,,0.00,VWS V14.01,2013-09-20 23:18:00,
2013-09-20 16:19:00,73.8,59.5,29.53,NW,315,5.4,9.8,61,0.00,,,0.00,VWS V14.01,2013-09-20 23:19:00,
2013-09-20 16:20:00,73.6,59.8,29.53,SSW,202,8.7,9.8,62,0.00,,,0.00,VWS V14.01,2013-09-20 23:20:00,
2013-09-20 16:21:00,73.6,59.8,29.53,WSW,248,9.0,9.8,62,0.00,,,0.00,VWS V14.01,2013-09-20 23:21:00,
2013-09-20 16:22:00,73.6,59.8,29.53,West,270,6.0,9.8,62,0.00,,,0.00,VWS V14.01,2013-09-20 23:22:00,
2013-09-20 16:23:00,72.9,59.5,29.53,West,270,12.5,12.5,63,0.00,,,0.00,VWS V14.01,2013-09-20 23:23:00,
2013-09-20 16:24:00,72.9,59.5,29.53,WSW,248,10.3,12.5,63,0.00,,,0.00,VWS V14.01,2013-09-20 23:24:00,
2013-09-20 16:31:00,71.2,59.7,29.53,WSW,248,8.7,8.7,67,0.00,,,0.00,VWS V14.01,2013-09-20 23:31:00,
2013-09-20 16:32:00,71.2,59.7,29.53,West,270,7.4,8.7,67,0.00,,,0.00,VWS V14.01,2013-09-20 23:32:00,
2013-09-20 16:33:00,71.2,59.7,29.53,WSW,248,10.3,10.3,67,0.00,,,0.00,VWS V14.01,2013-09-20 23:33:00,
2013-09-20 16:34:00,70.9,59.4,29.53,WSW,248,6.3,10.3,67,0.00,,,0.00,VWS V14.01,2013-09-20 23:34:00,
2013-09-20 16:35:00,70.9,59.4,29.53,WSW,248,7.4,10.3,67,0.00,,,0.00,VWS V14.01,2013-09-20 23:35:00,
2013-09-20 16:36:00,70.9,59.4,29.53,SW,225,5.6,10.3,67,0.00,,,0.00,VWS V14.01,2013-09-20 23:36:00,
2013-09-20 16:37:00,70.5,59.9,29.53,SW,225,5.6,10.3,69,0.00,,,0.00,VWS V14.01,2013-09-20 23:37:00,
2013-09-20 16:38:00,70.5,59.9,29.53,WSW,248,10.3,10.3,69,0.00,,,0.00,VWS V14.01,2013-09-20 23:38:00,
2013-09-20 16:39:00,70.3,59.7,29.53,WSW,248,5.8,10.3,69,0.00,,,0.00,VWS V14.01,2013-09-20 23:39:00,
2013-09-20 16:40:00,70.3,59.7,29.53,WSW,248,5.6,10.3,69,0.00,,,0.00,VWS V14.01,2013-09-20 23:40:00,
2013-09-20 16:41:00,70.3,60.1,29.53,WSW,248,4.7,10.3,70,0.00,,,0.00,VWS V14.01,2013-09-20 23:41:00,
2013-09-20 16:42:00,70.3,60.1,29.53,West,270,10.5,10.5,70,0.00,,,0.00,VWS V14.01,2013-09-20 23:42:00,
2013-09-20 16:43:00,70.0,60.5,29.53,West,270,10.5,10.5,72,0.00,,,0.00,VWS V14.01,2013-09-20 23:43:00,
2013-09-20 16:44:00,69.8,60.4,29.53,West,270,10.5,10.5,72,0.00,,,0.00,VWS V14.01,2013-09-20 23:44:00,
2013-09-20 16:45:00,69.8,60.4,29.53,SW,225,6.5,10.5,72,0.00,,,0.00,VWS V14.01,2013-09-20 23:45:00,
2013-09-20 16:46:00,69.6,60.6,29.53,WSW,248,5.6,10.5,73,0.00,,,0.00,VWS V14.01,2013-09-20 23:46:00,
2013-09-20 16:47:00,69.6,60.6,29.53,WSW,248,4.9,10.5,73,0.00,,,0.00,VWS V14.01,2013-09-20 23:47:00,
2013-09-20 16:48:00,69.4,60.4,29.53,WNW,292,7.2,7.2,73,0.00,,,0.00,VWS V14.01,2013-09-20 23:48:00,
2013-09-20 16:49:00,69.4,60.4,29.53,SSE,158,5.6,7.2,73,0.00,,,0.00,VWS V14.01,2013-09-20 23:49:00,
2013-09-20 16:50:00,69.4,60.4,29.53,SSW,202,2.0,7.2,73,0.00,,,0.00,VWS V14.01,2013-09-20 23:50:00,
2013-09-20 16:51:00,69.6,60.6,29.53,SW,225,6.3,7.2,73,0.00,,,0.00,VWS V14.01,2013-09-20 23:51:00,
2013-09-20 16:52:00,69.6,60.6,29.53,SW,225,6.3,7.2,73,0.00,,,0.00,VWS V14.01,2013-09-20 23:52:00,
2013-09-20 16:53:00,69.4,60.4,29.53,SW,225,12.1,12.1,73,0.00,,,0.00,VWS V14.01,2013-09-20 23:53:00,
2013-09-20 16:54:00,69.4,60.4,29.53,WSW,248,9.8,12.1,73,0.00,,,0.00,VWS V14.01,2013-09-20 23:54:00,
2013-09-20 16:55:00,69.8,60.4,29.53,NNW,338,6.5,12.1,72,0.00,,,0.00,VWS V14.01,2013-09-20 23:55:00,
2013-09-20 16:56:00,69.8,60.4,29.53,West,270,8.1,12.1,72,0.00,,,0.00,VWS V14.01,2013-09-20 23:56:00,
2013-09-20 16:57:00,69.8,60.4,29.53,SW,225,13.4,13.4,72,0.00,,,0.00,VWS V14.01,2013-09-20 23:57:00,
2013-09-20 16:58:00,69.8,60.4,29.53,SW,225,12.3,13.4,72,0.00,,,0.00,VWS V14.01,2013-09-20 23:58:00,
2013-09-20 16:59:00,69.1,60.1,29.53,SSW,202,7.2,13.4,73,0.00,,,0.00,VWS V14.01,2013-09-20 23:59:00,
2013-09-20 17:00:00,69.1,60.5,29.53,SW,225,9.8,13.4,74,0.00,,,0.00,VWS V14.01,2013-09-21 00:00:00,
2013-09-20 17:01:00,69.1,60.5,29.53,WSW,248,7.6,12.3,74,0.00,,,0.00,VWS V14.01,2013-09-21 00:01:00,
2013-09-20 17:02:00,69.1,60.5,29.53,WSW,248,6.5,9.8,74,0.00,,,0.00,VWS V14.01,2013-09-21 00:02:00,
2013-09-20 17:03:00,69.1,60.5,29.53,SSW,202,9.8,9.8,74,0.00,,,0.00,VWS V14.01,2013-09-21 00:03:00,
2013-09-20 17:04:00,69.3,61.0,29.53,WSW,248,2.9,9.8,75,0.00,,,0.00,VWS V14.01,2013-09-21 00:04:00,
2013-09-20 17:05:00,69.3,61.0,29.53,WSW,248,2.9,9.8,75,0.00,,,0.00,VWS V14.01,2013-09-21 00:05:00,
2013-09-20 17:06:00,69.8,61.2,29.53,WSW,248,8.7,9.8,74,0.00,,,0.00,VWS V14.01,2013-09-21 00:06:00,
2013-09-20 17:07:00,69.8,61.2,29.53,WSW,248,8.7,9.8,74,0.00,,,0.00,VWS V14.01,2013-09-21 00:07:00,
2013-09-20 17:08:00,69.8,61.2,29.53,SW,225,5.4,8.7,74,0.00,,,0.00,VWS V14.01,2013-09-21 00:08:00,
2013-09-20 17:09:00,69.6,61.0,29.53,WSW,248,3.4,8.7,74,0.00,,,0.00,VWS V14.01,2013-09-21 00:09:00,
2013-09-20 17:10:00,69.6,61.0,29.53,WSW,248,12.3,12.3,74,0.00,,,0.00,VWS V14.01,2013-09-21 00:10:00,
2013-09-20 17:11:00,69.4,60.8,29.53,SW,225,6.5,12.3,74,0.00,,,0.00,VWS V14.01,2013-09-21 00:11:00,
2013-09-20 17:12:00,69.4,60.8,29.53,SW,225,6.5,12.3,74,0.00,,,0.00,VWS V14.01,2013-09-21 00:12:00,
2013-09-20 17:13:00,69.4,60.8,29.53,SW,225,6.5,12.3,74,0.00,,,0.00,VWS V14.01,2013-09-21 00:13:00,
2013-09-20 17:14:00,69.4,60.8,29.53,SW,225,6.5,12.3,74,0.00,,,0.00,VWS V14.01,2013-09-21 00:14:00,
2013-09-20 17:15:00,69.4,60.8,29.53,SW,225,6.5,6.5,74,0.00,,,0.00,VWS V14.01,2013-09-21 00:15:00,
2013-09-20 17:16:00,69.4,60.8,29.53,SSW,202,6.0,10.5,74,0.00,,,0.00,VWS V14.01,2013-09-21 00:16:00,
2013-09-20 17:17:00,69.4,60.8,29.53,SSW,202,6.0,10.5,74,0.00,,,0.00,VWS V14.01,2013-09-21 00:17:00,
2013-09-20 17:18:00,69.6,61.0,29.53,WSW,248,10.3,10.5,74,0.00,,,0.00,VWS V14.01,2013-09-21 00:18:00,
2013-09-20 17:19:00,69.6,61.0,29.53,West,270,5.8,10.5,74,0.00,,,0.00,VWS V14.01,2013-09-21 00:19:00,
2013-09-20 17:20:00,69.6,61.0,29.53,West,270,10.3,10.3,74,0.00,,,0.00,VWS V14.01,2013-09-21 00:20:00,
2013-09-20 17:21:00,69.4,61.2,29.53,WSW,248,8.7,10.3,75,0.00,,,0.00,VWS V14.01,2013-09-21 00:21:00,
2013-09-20 17:22:00,69.4,61.2,29.53,WSW,248,8.7,10.3,75,0.00,,,0.00,VWS V14.01,2013-09-21 00:22:00,
2013-09-20 17:23:00,69.1,60.8,29.53,SW,225,8.5,10.3,75,0.00,,,0.00,VWS V14.01,2013-09-21 00:23:00,
2013-09-20 17:24:00,69.1,60.8,29.53,WSW,248,8.1,8.7,75,0.00,,,0.00,VWS V14.01,2013-09-21 00:24:00,
2013-09-20 17:25:00,69.1,60.8,29.53,SW,225,6.3,8.7,75,0.00,,,0.00,VWS V14.01,2013-09-21 00:25:00,
2013-09-20 17:26:00,69.1,60.8,29.53,SW,225,6.3,8.7,75,0.00,,,0.00,VWS V14.01,2013-09-21 00:26:00,
2013-09-20 17:27:00,69.1,60.8,29.53,WSW,248,6.3,8.7,75,0.00,,,0.00,VWS V14.01,2013-09-21 00:27:00,
2013-09-20 17:28:00,69.1,60.8,29.53,WSW,248,12.1,12.1,75,0.00,,,0.00,VWS V14.01,2013-09-21 00:28:00,
2013-09-20 17:29:00,69.4,61.2,29.53,WSW,248,10.1,12.1,75,0.00,,,0.00,VWS V14.01,2013-09-21 00:29:00,
2013-09-20 17:30:00,68.5,60.7,29.53,WNW,292,9.2,12.1,76,0.00,,,0.00,VWS V14.01,2013-09-21 00:30:00,
2013-09-20 17:31:00,68.5,60.7,29.53,West,270,4.3,12.1,76,0.00,,,0.00,VWS V14.01,2013-09-21 00:31:00,
2013-09-20 17:32:00,68.4,60.9,29.53,West,270,4.3,10.1,77,0.00,,,0.00,VWS V14.01,2013-09-21 00:32:00,
2013-09-20 17:33:00,68.4,60.9,29.53,WSW,248,4.3,9.2,77,0.00,,,0.00,VWS V14.01,2013-09-21 00:33:00,
2013-09-20 17:34:00,68.4,60.9,29.53,WSW,248,4.3,9.2,77,0.00,,,0.00,VWS V14.01,2013-09-21 00:34:00,
2013-09-20 17:35:00,68.4,60.9,29.53,WSW,248,6.3,8.5,77,0.00,,,0.00,VWS V14.01,2013-09-21 00:35:00,
2013-09-20 17:36:00,68.7,61.6,29.53,SW,225,8.5,12.3,78,0.00,,,0.00,VWS V14.01,2013-09-21 00:36:00,
2013-09-20 17:37:00,68.5,61.4,29.53,SW,225,8.5,12.3,78,0.00,,,0.00,VWS V14.01,2013-09-21 00:37:00,
2013-09-20 17:38:00,68.5,61.4,29.53,SSW,202,6.0,12.3,78,0.00,,,0.00,VWS V14.01,2013-09-21 00:38:00,
2013-09-20 17:39:00,68.2,61.4,29.53,West,270,7.8,12.3,79,0.00,,,0.00,VWS V14.01,2013-09-21 00:39:00,
2013-09-20 17:40:00,68.2,61.4,29.53,WSW,248,12.8,12.8,79,0.00,,,0.00,VWS V14.01,2013-09-21 00:40:00,
2013-09-20 17:41:00,68.0,61.2,29.53,SSW,202,3.4,12.8,79,0.00,,,0.00,VWS V14.01,2013-09-21 00:41:00,
2013-09-20 17:42:00,68.0,61.2,29.53,WSW,248,13.2,13.2,79,0.00,,,0.00,VWS V14.01,2013-09-21 00:42:00,
2013-09-20 17:43:00,67.8,61.4,29.53,WSW,248,11.0,13.2,80,0.00,,,0.00,VWS V14.01,2013-09-21 00:43:00,
2013-09-20 17:44:00,67.8,61.4,29.53,West,270,9.6,13.2,80,0.00,,,0.00,VWS V14.01,2013-09-21 00:44:00,
2013-09-20 17:45:00,67.3,60.9,29.53,SW,225,4.7,13.2,80,0.00,,,0.00,VWS V14.01,2013-09-21 00:45:00,
2013-09-20 17:46:00,67.3,60.9,29.53,WSW,248,11.0,11.0,80,0.00,,,0.00,VWS V14.01,2013-09-21 00:46:00,
2013-09-20 17:47:00,67.3,60.9,29.53,WSW,248,11.0,11.0,80,0.00,,,0.00,VWS V14.01,2013-09-21 00:47:00,
2013-09-20 17:48:00,67.1,61.1,29.53,WSW,248,5.4,11.0,81,0.00,,,0.00,VWS V14.01,2013-09-21 00:48:00,
2013-09-20 17:49:00,67.1,61.1,29.53,WSW,248,5.6,11.0,81,0.00,,,0.00,VWS V14.01,2013-09-21 00:49:00,
2013-09-20 17:50:00,67.1,61.1,29.53,SSW,202,6.3,11.0,81,0.00,,,0.00,VWS V14.01,2013-09-21 00:50:00,
2013-09-20 17:51:00,67.1,61.4,29.53,SSW,202,5.4,6.3,82,0.00,,,0.00,VWS V14.01,2013-09-21 00:51:00,
2013-09-20 17:52:00,67.1,61.4,29.53,WSW,248,4.3,6.3,82,0.00,,,0.00,VWS V14.01,2013-09-21 00:52:00,
2013-09-20 17:53:00,67.1,61.4,29.53,WSW,248,4.3,6.3,82,0.00,,,0.00,VWS V14.01,2013-09-21 00:53:00,
2013-09-20 17:54:00,67.1,61.4,29.53,South,180,4.0,6.3,82,0.00,,,0.00,VWS V14.01,2013-09-21 00:54:00,
2013-09-20 17:55:00,67.1,61.4,29.53,SW,225,7.4,7.4,82,0.00,,,0.00,VWS V14.01,2013-09-21 00:55:00,
2013-09-20 17:56:00,67.1,61.4,29.53,SSW,202,4.9,7.4,82,0.00,,,0.00,VWS V14.01,2013-09-21 00:56:00,
2013-09-20 17:57:00,67.1,61.4,29.53,SW,225,6.3,7.4,82,0.00,,,0.00,VWS V14.01,2013-09-21 00:57:00,
2013-09-20 17:58:00,67.1,61.4,29.53,SW,225,4.3,7.4,82,0.00,,,0.00,VWS V14.01,2013-09-21 00:58:00,
2013-09-20 17:59:00,67.1,61.4,29.53,SW,225,4.3,7.4,82,0.00,,,0.00,VWS V14.01,2013-09-21 00:59:00,
2013-09-20 18:00:00,66.9,61.2,29.53,WNW,292,3.4,6.3,82,0.00,,,0.00,VWS V14.01,2013-09-21 01:00:00,
2013-09-20 18:01:00,66.9,61.2,29.53,WSW,248,4.7,8.7,82,0.00,,,0.00,VWS V14.01,2013-09-21 01:01:00,
2013-09-20 18:02:00,66.9,61.6,29.53,WSW,248,4.7,8.7,83,0.00,,,0.00,VWS V14.01,2013-09-21 01:02:00,
2013-09-20 18:03:00,66.9,61.6,29.53,WSW,248,3.1,8.7,83,0.00,,,0.00,VWS V14.01,2013-09-21 01:03:00,
2013-09-20 18:04:00,66.9,61.6,29.53,SSW,202,5.6,8.7,83,0.00,,,0.00,VWS V14.01,2013-09-21 01:04:00,
2013-09-20 18:05:00,66.9,61.6,29.53,WSW,248,6.7,6.7,83,0.00,,,0.00,VWS V14.01,2013-09-21 01:05:00,
2013-09-20 18:06:00,66.7,61.4,29.53,WSW,248,5.6,8.7,83,0.00,,,0.00,VWS V14.01,2013-09-21 01:06:00,
2013-09-20 18:07:00,66.6,61.2,29.53,SSW,202,10.3,10.3,83,0.00,,,0.00,VWS V14.01,2013-09-21 01:07:00,
2013-09-20 18:08:00,66.6,61.2,29.53,SW,225,8.1,10.3,83,0.00,,,0.00,VWS V14.01,2013-09-21 01:08:00,
2013-09-20 18:09:00,66.6,61.2,29.53,WSW,248,3.4,10.3,83,0.00,,,0.00,VWS V14.01,2013-09-21 01:09:00,
2013-09-20 18:10:00,66.6,61.2,29.53,SW,225,4.9,10.3,83,0.00,,,0.00,VWS V14.01,2013-09-21 01:10:00,
2013-09-20 18:11:00,66.6,61.2,29.53,WSW,248,2.7,8.1,83,0.00,,,0.00,VWS V14.01,2013-09-21 01:11:00,
2013-09-20 18:12:00,66.6,61.2,29.53,WSW,248,6.5,8.1,83,0.00,,,0.00,VWS V14.01,2013-09-21 01:12:00,
2013-09-20 18:13:00,66.6,61.2,29.53,WSW,248,5.4,6.5,83,0.00,,,0.00,VWS V14.01,2013-09-21 01:13:00,
2013-09-20 18:14:00,66.6,61.2,29.53,South,180,8.1,8.1,83,0.00,,,0.00,VWS V14.01,2013-09-21 01:14:00,
2013-09-20 18:15:00,66.6,61.2,29.53,SSW,202,8.7,8.7,83,0.00,,,0.00,VWS V14.01,2013-09-21 01:15:00,
2013-09-20 18:16:00,66.6,61.2,29.53,WSW,248,5.4,8.7,83,0.00,,,0.00,VWS V14.01,2013-09-21 01:16:00,
2013-09-20 18:17:00,66.6,61.2,29.53,WSW,248,5.4,8.7,83,0.00,,,0.00,VWS V14.01,2013-09-21 01:17:00,
2013-09-20 18:18:00,66.7,61.4,29.53,West,270,6.5,8.7,83,0.00,,,0.00,VWS V14.01,2013-09-21 01:18:00,
2013-09-20 18:19:00,66.7,61.4,29.53,WSW,248,7.2,8.7,83,0.00,,,0.00,VWS V14.01,2013-09-21 01:19:00,
2013-09-20 18:20:00,66.7,61.4,29.53,SW,225,6.5,7.2,83,0.00,,,0.00,VWS V14.01,2013-09-21 01:20:00,
2013-09-20 18:21:00,66.6,61.2,29.53,NNW,338,3.4,7.2,83,0.00,,,0.00,VWS V14.01,2013-09-21 01:21:00,
2013-09-20 18:22:00,66.6,61.2,29.53,WSW,248,6.5,7.2,83,0.00,,,0.00,VWS V14.01,2013-09-21 01:22:00,
2013-09-20 18:23:00,66.6,61.2,29.53,WSW,248,6.5,6.5,83,0.00,,,0.00,VWS V14.01,2013-09-21 01:23:00,
2013-09-20 18:24:00,66.6,61.2,29.53,SSW,202,5.8,6.5,83,0.00,,,0.00,VWS V14.01,2013-09-21 01:24:00,
2013-09-20 18:25:00,66.4,61.1,29.53,WSW,248,7.8,7.8,83,0.00,,,0.00,VWS V14.01,2013-09-21 01:25:00,
2013-09-20 18:26:00,66.4,61.1,29.53,SSW,202,7.8,7.8,83,0.00,,,0.00,VWS V14.01,2013-09-21 01:26:00,
2013-09-20 18:27:00,66.4,61.1,29.53,WSW,248,9.6,9.6,83,0.00,,,0.00,VWS V14.01,2013-09-21 01:27:00,
2013-09-20 18:28:00,66.4,61.1,29.53,WNW,292,2.9,9.6,83,0.00,,,0.00,VWS V14.01,2013-09-21 01:28:00,
2013-09-20 18:29:00,66.4,61.1,29.53,WSW,248,6.0,9.6,83,0.00,,,0.00,VWS V14.01,2013-09-21 01:29:00,
2013-09-20 18:30:00,66.4,61.1,29.53,SSW,202,3.1,9.6,83,0.00,,,0.00,VWS V14.01,2013-09-21 01:30:00,
2013-09-20 18:31:00,66.4,61.1,29.53,SW,225,2.2,6.0,83,0.00,,,0.00,VWS V14.01,2013-09-21 01:31:00,
2013-09-20 18:32:00,66.4,61.1,29.53,SW,225,2.2,6.0,83,0.00,,,0.00,VWS V14.01,2013-09-21 01:32:00,
2013-09-20 18:33:00,66.4,61.1,29.53,WSW,248,8.1,8.1,83,0.00,,,0.00,VWS V14.01,2013-09-21 01:33:00,
2013-09-20 18:34:00,66.4,61.1,29.53,WSW,248,1.6,8.1,83,0.00,,,0.00,VWS V14.01,2013-09-21 01:34:00,
2013-09-20 18:35:00,66.4,61.1,29.53,SW,225,4.0,8.1,83,0.00,,,0.00,VWS V14.01,2013-09-21 01:35:00,
2013-09-20 18:36:00,66.4,61.1,29.53,SSW,202,4.7,4.7,83,0.00,,,0.00,VWS V14.01,2013-09-21 01:36:00,
2013-09-20 18:37:00,66.4,61.1,29.53,WSW,248,7.4,7.4,83,0.00,,,0.00,VWS V14.01,2013-09-21 01:37:00,
2013-09-20 18:38:00,66.4,61.1,29.53,WSW,248,11.0,11.0,83,0.00,,,0.00,VWS V14.01,2013-09-21 01:38:00,
2013-09-20 18:39:00,66.2,60.9,29.53,WSW,248,6.3,11.0,83,0.00,,,0.00,VWS V14.01,2013-09-21 01:39:00,
2013-09-20 18:40:00,66.2,60.9,29.53,WSW,248,5.6,11.0,83,0.00,,,0.00,VWS V14.01,2013-09-21 01:40:00,
2013-09-20 18:41:00,66.2,60.9,29.53,WSW,248,6.7,11.0,83,0.00,,,0.00,VWS V14.01,2013-09-21 01:41:00,
2013-09-20 18:42:00,66.2,60.9,29.53,SSE,158,8.1,8.1,83,0.00,,,0.00,VWS V14.01,2013-09-21 01:42:00,
2013-09-20 18:43:00,66.2,60.9,29.53,SSE,158,8.1,8.1,83,0.00,,,0.00,VWS V14.01,2013-09-21 01:43:00,
2013-09-20 18:44:00,66.2,60.9,29.53,SW,225,7.4,8.1,83,0.00,,,0.00,VWS V14.01,2013-09-21 01:44:00,
2013-09-20 18:45:00,66.0,61.0,29.53,West,270,3.1,8.1,84,0.00,,,0.00,VWS V14.01,2013-09-21 01:45:00,
2013-09-20 18:46:00,66.0,61.0,29.53,WSW,248,5.4,8.1,84,0.00,,,0.00,VWS V14.01,2013-09-21 01:46:00,
2013-09-20 18:47:00,66.0,61.0,29.53,WSW,248,5.4,7.4,84,0.00,,,0.00,VWS V14.01,2013-09-21 01:47:00,
2013-09-20 18:48:00,66.0,61.0,29.53,SW,225,4.9,5.4,84,0.00,,,0.00,VWS V14.01,2013-09-21 01:48:00,
2013-09-20 18:49:00,66.0,61.0,29.53,SW,225,4.9,5.4,84,0.00,,,0.00,VWS V14.01,2013-09-21 01:49:00,
2013-09-20 18:50:00,66.0,61.0,29.53,SSW,202,4.9,5.4,84,0.00,,,0.00,VWS V14.01,2013-09-21 01:50:00,
2013-09-20 18:51:00,66.0,61.0,29.53,SSW,202,4.9,5.4,84,0.00,,,0.00,VWS V14.01,2013-09-21 01:51:00,
2013-09-20 18:52:00,66.0,61.0,29.53,SSW,202,4.9,5.4,84,0.00,,,0.00,VWS V14.01,2013-09-21 01:52:00,
2013-09-20 18:53:00,66.0,61.0,29.53,WSW,248,9.8,9.8,84,0.00,,,0.00,VWS V14.01,2013-09-21 01:53:00,
2013-09-20 18:54:00,66.0,61.0,29.53,WSW,248,9.8,9.8,84,0.00,,,0.00,VWS V14.01,2013-09-21 01:54:00,
2013-09-20 18:55:00,65.8,60.9,29.53,WSW,248,4.3,9.8,84,0.00,,,0.00,VWS V14.01,2013-09-21 01:55:00,
2013-09-20 18:56:00,65.8,60.9,29.53,WSW,248,2.0,9.8,84,0.00,,,0.00,VWS V14.01,2013-09-21 01:56:00,
2013-09-20 18:57:00,65.8,60.9,29.53,WSW,248,2.0,9.8,84,0.00,,,0.00,VWS V14.01,2013-09-21 01:57:00,
2013-09-20 18:58:00,65.8,60.9,29.53,SSW,202,1.3,5.6,84,0.00,,,0.00,VWS V14.01,2013-09-21 01:58:00,
2013-09-20 18:59:00,66.0,61.0,29.53,SSW,202,1.3,5.6,84,0.00,,,0.00,VWS V14.01,2013-09-21 01:59:00,
2013-09-20 19:00:00,66.0,61.0,29.53,SW,225,2.7,5.6,84,0.00,,,0.00,VWS V14.01,2013-09-21 02:00:00,
2013-09-20 19:01:00,66.0,61.0,29.53,West,270,2.9,2.9,84,0.00,,,0.00,VWS V14.01,2013-09-21 02:01:00,
2013-09-20 19:02:00,65.8,60.9,29.53,WNW,292,2.7,2.9,84,0.00,,,0.00,VWS V14.01,2013-09-21 02:02:00,
2013-09-20 19:03:00,65.8,60.9,29.53,WSW,248,4.9,4.9,84,0.00,,,0.00,VWS V14.01,2013-09-21 02:03:00,
2013-09-20 19:04:00,65.8,60.9,29.53,SSW,202,5.4,5.4,84,0.00,,,0.00,VWS V14.01,2013-09-21 02:04:00,
2013-09-20 19:05:00,65.8,60.9,29.53,SSW,202,2.9,5.4,84,0.00,,,0.00,VWS V14.01,2013-09-21 02:05:00,
2013-09-20 19:06:00,65.8,60.9,29.56,SW,225,4.0,5.4,84,0.00,,,0.00,VWS V14.01,2013-09-21 02:06:00,
2013-09-20 19:07:00,65.8,60.9,29.56,SW,225,5.6,5.6,84,0.00,,,0.00,VWS V14.01,2013-09-21 02:07:00,
2013-09-20 19:08:00,65.7,60.7,29.56,SSW,202,5.8,5.8,84,0.00,,,0.00,VWS V14.01,2013-09-21 02:08:00,
2013-09-20 19:09:00,65.7,60.7,29.56,SW,225,4.9,5.8,84,0.00,,,0.00,VWS V14.01,2013-09-21 02:09:00,
2013-09-20 19:10:00,65.7,60.7,29.56,WSW,248,2.0,5.8,84,0.00,,,0.00,VWS V14.01,2013-09-21 02:10:00,
2013-09-20 19:11:00,65.7,60.7,29.56,SSW,202,3.4,5.8,84,0.00,,,0.00,VWS V14.01,2013-09-21 02:11:00,
2013-09-20 19:12:00,65.7,60.7,29.56,SSW,202,3.4,5.8,84,0.00,,,0.00,VWS V14.01,2013-09-21 02:12:00,
2013-09-20 19:13:00,65.5,60.5,29.56,SSW,202,3.4,4.9,84,0.00,,,0.00,VWS V14.01,2013-09-21 02:13:00,
2013-09-20 19:14:00,65.5,60.5,29.56,SSW,202,2.9,3.4,84,0.00,,,0.00,VWS V14.01,2013-09-21 02:14:00,
2013-09-20 19:15:00,65.5,60.5,29.56,SSW,202,2.9,3.4,84,0.00,,,0.00,VWS V14.01,2013-09-21 02:15:00,
2013-09-20 19:16:00,65.5,60.5,29.56,SW,225,4.0,8.5,84,0.00,,,0.00,VWS V14.01,2013-09-21 02:16:00,
2013-09-20 19:17:00,65.5,60.5,29.56,SW,225,7.2,8.5,84,0.00,,,0.00,VWS V14.01,2013-09-21 02:17:00,
2013-09-20 19:18:00,65.5,60.9,29.56,West,270,1.6,8.5,85,0.00,,,0.00,VWS V14.01,2013-09-21 02:18:00,
2013-09-20 19:19:00,65.5,60.9,29.56,SSW,202,2.0,8.5,85,0.00,,,0.00,VWS V14.01,2013-09-21 02:19:00,
2013-09-20 19:20:00,65.5,60.9,29.56,SW,225,2.9,8.5,85,0.00,,,0.00,VWS V14.01,2013-09-21 02:20:00,
2013-09-20 19:21:00,65.3,60.7,29.56,SSW,202,6.3,7.2,85,0.00,,,0.00,VWS V14.01,2013-09-21 02:21:00,
2013-09-20 19:22:00,65.3,60.7,29.56,SSW,202,8.1,8.1,85,0.00,,,0.00,VWS V14.01,2013-09-21 02:22:00,
2013-09-20 19:23:00,65.3,60.7,29.56,WSW,248,2.0,8.1,85,0.00,,,0.00,VWS V14.01,2013-09-21 02:23:00,
2013-09-20 19:24:00,65.3,60.7,29.56,SSW,202,1.6,8.1,85,0.00,,,0.00,VWS V14.01,2013-09-21 02:24:00,
2013-09-20 19:25:00,65.3,60.7,29.56,WSW,248,4.0,8.1,85,0.00,,,0.00,VWS V14.01,2013-09-21 02:25:00,
2013-09-20 19:26:00,65.3,60.7,29.56,WSW,248,2.9,4.0,85,0.00,,,0.00,VWS V14.01,2013-09-21 02:26:00,
2013-09-20 19:27:00,65.3,60.7,29.56,WSW,248,2.9,4.0,85,0.00,,,0.00,VWS V14.01,2013-09-21 02:27:00,
2013-09-20 19:28:00,65.3,60.7,29.56,SW,225,2.9,4.0,85,0.00,,,0.00,VWS V14.01,2013-09-21 02:28:00,
2013-09-20 19:29:00,65.3,60.7,29.56,SSW,202,1.6,4.0,85,0.00,,,0.00,VWS V14.01,2013-09-21 02:29:00,
2013-09-20 19:30:00,65.3,60.7,29.56,WSW,248,4.0,4.0,85,0.00,,,0.00,VWS V14.01,2013-09-21 02:30:00,
2013-09-20 19:31:00,65.3,60.7,29.56,SSW,202,3.8,4.0,85,0.00,,,0.00,VWS V14.01,2013-09-21 02:31:00,
2013-09-20 19:32:00,65.3,60.7,29.56,SSW,202,1.3,4.0,85,0.00,,,0.00,VWS V14.01,2013-09-21 02:32:00,
2013-09-20 19:33:00,65.3,60.7,29.56,SW,225,4.9,4.9,85,0.00,,,0.00,VWS V14.01,2013-09-21 02:33:00,
2013-09-20 19:34:00,65.3,60.7,29.56,WSW,248,3.6,4.9,85,0.00,,,0.00,VWS V14.01,2013-09-21 02:34:00,
2013-09-20 19:35:00,65.3,60.7,29.56,SW,225,5.6,5.6,85,0.00,,,0.00,VWS V14.01,2013-09-21 02:35:00,
2013-09-20 19:36:00,65.1,60.5,29.56,West,270,3.4,5.6,85,0.00,,,0.00,VWS V14.01,2013-09-21 02:36:00,
2013-09-20 19:37:00,65.1,60.5,29.56,West,270,1.6,5.6,85,0.00,,,0.00,VWS V14.01,2013-09-21 02:37:00,
2013-09-20 19:38:00,65.1,60.5,29.56,WSW,248,1.3,5.6,85,0.00,,,0.00,VWS V14.01,2013-09-21 02:38:00,
2013-09-20 19:39:00,65.1,60.5,29.56,WSW,248,2.0,5.6,85,0.00,,,0.00,VWS V14.01,2013-09-21 02:39:00,
2013-09-20 19:40:00,65.1,60.5,29.56,WSW,248,1.6,3.4,85,0.00,,,0.00,VWS V14.01,2013-09-21 02:40:00,
2013-09-20 19:41:00,65.1,60.5,29.56,WSW,248,1.6,2.0,85,0.00,,,0.00,VWS V14.01,2013-09-21 02:41:00,
2013-09-20 19:42:00,65.1,60.5,29.56,WSW,248,1.6,2.0,85,0.00,,,0.00,VWS V14.01,2013-09-21 02:42:00,
2013-09-20 19:43:00,65.1,60.5,29.56,WSW,248,1.6,2.0,85,0.00,,,0.00,VWS V14.01,2013-09-21 02:43:00,
2013-09-20 19:44:00,65.1,60.5,29.56,WSW,248,1.6,2.0,85,0.00,,,0.00,VWS V14.01,2013-09-21 02:44:00,
2013-09-20 19:45:00,65.1,60.5,29.56,WSW,248,1.6,2.0,85,0.00,,,0.00,VWS V14.01,2013-09-21 02:45:00,
2013-09-20 19:46:00,65.1,60.5,29.56,WSW,248,1.6,1.6,85,0.00,,,0.00,VWS V14.01,2013-09-21 02:46:00,
2013-09-20 19:47:00,65.1,60.5,29.56,WSW,248,3.8,3.8,85,0.00,,,0.00,VWS V14.01,2013-09-21 02:47:00,
2013-09-20 19:48:00,65.1,60.5,29.56,SW,225,5.6,5.6,85,0.00,,,0.00,VWS V14.01,2013-09-21 02:48:00,
2013-09-20 19:49:00,65.1,60.5,29.56,South,180,5.4,5.6,85,0.00,,,0.00,VWS V14.01,2013-09-21 02:49:00,
2013-09-20 19:50:00,65.1,60.5,29.56,SW,225,3.6,5.6,85,0.00,,,0.00,VWS V14.01,2013-09-21 02:50:00,
2013-09-20 19:51:00,65.1,60.5,29.56,SSW,202,3.4,5.6,85,0.00,,,0.00,VWS V14.01,2013-09-21 02:51:00,
2013-09-20 19:52:00,65.1,60.5,29.56,SW,225,4.0,5.6,85,0.00,,,0.00,VWS V14.01,2013-09-21 02:52:00,
2013-09-20 19:53:00,65.1,60.5,29.56,SW,225,4.0,5.6,85,0.00,,,0.00,VWS V14.01,2013-09-21 02:53:00,
2013-09-20 19:54:00,65.1,60.5,29.56,SW,225,1.6,5.4,85,0.00,,,0.00,VWS V14.01,2013-09-21 02:54:00,
2013-09-20 19:55:00,64.9,60.3,29.56,SSW,202,5.8,5.8,85,0.00,,,0.00,VWS V14.01,2013-09-21 02:55:00,
2013-09-20 19:56:00,64.9,60.3,29.56,West,270,3.4,5.8,85,0.00,,,0.00,VWS V14.01,2013-09-21 02:56:00,
2013-09-20 19:57:00,64.9,60.3,29.56,West,270,3.4,5.8,85,0.00,,,0.00,VWS V14.01,2013-09-21 02:57:00,
2013-09-20 19:58:00,64.9,60.3,29.56,WSW,248,5.4,7.6,85,0.00,,,0.00,VWS V14.01,2013-09-21 02:58:00,
2013-09-20 19:59:00,64.9,60.3,29.56,SSW,202,3.4,7.6,85,0.00,,,0.00,VWS V14.01,2013-09-21 02:59:00,
2013-09-20 20:00:00,64.9,60.3,29.56,North,0,3.6,7.6,85,0.00,,,0.00,VWS V14.01,2013-09-21 03:00:00,
2013-09-20 20:01:00,64.9,60.3,29.56,SSW,202,2.7,5.4,85,0.00,,,0.00,VWS V14.01,2013-09-21 03:01:00,
2013-09-20 20:02:00,64.9,60.3,29.56,SSW,202,2.7,5.4,85,0.00,,,0.00,VWS V14.01,2013-09-21 03:02:00,
2013-09-20 20:03:00,64.9,60.3,29.56,SSW,202,2.7,3.6,85,0.00,,,0.00,VWS V14.01,2013-09-21 03:03:00,
2013-09-20 20:04:00,64.9,60.3,29.56,North,0,2.2,3.6,85,0.00,,,0.00,VWS V14.01,2013-09-21 03:04:00,
2013-09-20 20:05:00,64.9,60.3,29.56,WSW,248,1.6,2.7,85,0.00,,,0.00,VWS V14.01,2013-09-21 03:05:00,
2013-09-20 20:06:00,64.9,60.3,29.56,SSW,202,3.6,4.0,85,0.00,,,0.00,VWS V14.01,2013-09-21 03:06:00,
2013-09-20 20:07:00,64.9,60.3,29.56,SSW,202,3.6,4.0,85,0.00,,,0.00,VWS V14.01,2013-09-21 03:07:00,
2013-09-20 20:08:00,64.9,60.3,29.56,SSW,202,1.6,4.0,85,0.00,,,0.00,VWS V14.01,2013-09-21 03:08:00,
2013-09-20 20:09:00,64.9,60.0,29.56,SSW,202,3.8,4.0,84,0.00,,,0.00,VWS V14.01,2013-09-21 03:09:00,
2013-09-20 20:10:00,64.9,60.0,29.56,SW,225,5.6,5.6,84,0.00,,,0.00,VWS V14.01,2013-09-21 03:10:00,
2013-09-20 20:11:00,64.8,60.2,29.56,SW,225,2.7,5.6,85,0.00,,,0.00,VWS V14.01,2013-09-21 03:11:00,
2013-09-20 20:12:00,64.8,60.2,29.56,SW,225,5.4,5.6,85,0.00,,,0.00,VWS V14.01,2013-09-21 03:12:00,
2013-09-20 20:13:00,64.8,60.2,29.56,SSW,202,3.6,5.6,85,0.00,,,0.00,VWS V14.01,2013-09-21 03:13:00,
2013-09-20 20:14:00,64.8,60.2,29.56,WSW,248,2.5,5.6,85,0.00,,,0.00,VWS V14.01,2013-09-21 03:14:00,
2013-09-20 20:15:00,64.8,60.2,29.56,SSW,202,4.7,5.4,85,0.00,,,0.00,VWS V14.01,2013-09-21 03:15:00,
2013-09-20 20:16:00,64.8,60.2,29.56,SSW,202,8.5,8.5,85,0.00,,,0.00,VWS V14.01,2013-09-21 03:16:00,
2013-09-20 20:17:00,64.8,60.2,29.56,SSW,202,5.6,8.5,85,0.00,,,0.00,VWS V14.01,2013-09-21 03:17:00,
2013-09-20 20:18:00,64.8,60.2,29.56,SSW,202,3.8,8.5,85,0.00,,,0.00,VWS V14.01,2013-09-21 03:18:00,
2013-09-20 20:19:00,64.8,60.2,29.56,WNW,292,2.9,8.5,85,0.00,,,0.00,VWS V14.01,2013-09-21 03:19:00,
2013-09-20 20:21:00,64.8,59.8,29.56,WSW,248,3.1,3.8,84,0.00,,,0.00,VWS V14.01,2013-09-21 03:21:00,
2013-09-20 20:22:00,64.8,59.8,29.56,WSW,248,3.1,3.8,84,0.00,,,0.00,VWS V14.01,2013-09-21 03:22:00,
2013-09-20 20:23:00,64.8,59.8,29.56,SW,225,4.0,4.0,84,0.00,,,0.00,VWS V14.01,2013-09-21 03:23:00,
2013-09-20 20:24:00,64.8,60.2,29.56,WSW,248,9.0,9.0,85,0.00,,,0.00,VWS V14.01,2013-09-21 03:24:00,
2013-09-20 20:25:00,64.8,60.2,29.56,SSW,202,7.6,9.0,85,0.00,,,0.00,VWS V14.01,2013-09-21 03:25:00,
2013-09-20 20:26:00,64.8,60.2,29.56,SSW,202,7.6,9.0,85,0.00,,,0.00,VWS V14.01,2013-09-21 03:26:00,
2013-09-20 20:27:00,64.8,60.2,29.56,SSW,202,2.7,9.0,85,0.00,,,0.00,VWS V14.01,2013-09-21 03:27:00,
2013-09-20 20:28:00,64.8,60.2,29.56,South,180,1.6,7.6,85,0.00,,,0.00,VWS V14.01,2013-09-21 03:28:00,
2013-09-20 20:29:00,64.8,59.8,29.56,South,180,1.3,7.6,84,0.00,,,0.00,VWS V14.01,2013-09-21 03:29:00,
2013-09-20 20:30:00,64.8,59.8,29.56,NW,315,2.2,7.6,84,0.00,,,0.00,VWS V14.01,2013-09-21 03:30:00,
2013-09-20 20:31:00,64.8,59.8,29.56,NW,315,2.2,2.2,84,0.00,,,0.00,VWS V14.01,2013-09-21 03:31:00,
2013-09-20 20:32:00,64.8,59.8,29.56,SSW,202,2.2,2.2,84,0.00,,,0.00,VWS V14.01,2013-09-21 03:32:00,
2013-09-20 20:33:00,64.8,59.8,29.56,SSW,202,1.6,2.2,84,0.00,,,0.00,VWS V14.01,2013-09-21 03:33:00,
2013-09-20 20:34:00,64.8,59.8,29.56,WSW,248,3.8,3.8,84,0.00,,,0.00,VWS V14.01,2013-09-21 03:34:00,
2013-09-20 20:35:00,64.8,59.8,29.56,South,180,2.9,3.8,84,0.00,,,0.00,VWS V14.01,2013-09-21 03:35:00,
2013-09-20 20:36:00,64.8,59.8,29.56,South,180,0.9,3.8,84,0.00,,,0.00,VWS V14.01,2013-09-21 03:36:00,
2013-09-20 20:37:00,64.8,59.8,29.56,South,180,0.9,3.8,84,0.00,,,0.00,VWS V14.01,2013-09-21 03:37:00,
2013-09-20 20:38:00,64.8,59.8,29.56,ESE,112,2.5,3.8,84,0.00,,,0.00,VWS V14.01,2013-09-21 03:38:00,
2013-09-20 20:39:00,64.6,59.6,29.56,SSW,202,3.4,3.4,84,0.00,,,0.00,VWS V14.01,2013-09-21 03:39:00,
2013-09-20 20:40:00,64.6,59.6,29.56,South,180,2.9,3.4,84,0.00,,,0.00,VWS V14.01,2013-09-21 03:40:00,
2013-09-20 20:41:00,64.6,59.6,29.56,South,180,3.4,3.4,84,0.00,,,0.00,VWS V14.01,2013-09-21 03:41:00,
2013-09-20 20:42:00,64.6,59.6,29.56,West,270,1.3,3.4,84,0.00,,,0.00,VWS V14.01,2013-09-21 03:42:00,
2013-09-20 20:43:00,64.4,59.5,29.56,SSW,202,2.7,3.4,84,0.00,,,0.00,VWS V14.01,2013-09-21 03:43:00,
2013-09-20 20:44:00,64.4,59.5,29.56,SSW,202,2.5,3.4,84,0.00,,,0.00,VWS V14.01,2013-09-21 03:44:00,
2013-09-20 20:45:00,64.4,59.8,29.56,SSW,202,4.3,4.3,85,0.00,,,0.00,VWS V14.01,2013-09-21 03:45:00,
2013-09-20 20:46:00,64.4,59.8,29.56,SSW,202,3.6,4.3,85,0.00,,,0.00,VWS V14.01,2013-09-21 03:46:00,
2013-09-20 20:47:00,64.4,59.8,29.56,South,180,3.4,4.3,85,0.00,,,0.00,VWS V14.01,2013-09-21 03:47:00,
2013-09-20 20:48:00,64.4,59.8,29.56,South,180,2.5,4.3,85,0.00,,,0.00,VWS V14.01,2013-09-21 03:48:00,
2013-09-20 20:49:00,64.4,59.8,29.56,SSE,158,2.9,3.6,85,0.00,,,0.00,VWS V14.01,2013-09-21 03:49:00,
2013-09-20 20:50:00,64.2,59.6,29.56,SSW,202,1.1,3.4,85,0.00,,,0.00,VWS V14.01,2013-09-21 03:50:00,
2013-09-20 20:51:00,64.2,59.6,29.56,WSW,248,4.9,4.9,85,0.00,,,0.00,VWS V14.01,2013-09-21 03:51:00,
2013-09-20 20:52:00,64.2,59.6,29.56,WSW,248,4.9,4.9,85,0.00,,,0.00,VWS V14.01,2013-09-21 03:52:00,
2013-09-20 20:53:00,64.2,59.6,29.56,SW,225,3.6,4.9,85,0.00,,,0.00,VWS V14.01,2013-09-21 03:53:00,
2013-09-20 20:54:00,64.2,60.0,29.56,SW,225,2.7,4.9,86,0.00,,,0.00,VWS V14.01,2013-09-21 03:54:00,
2013-09-20 20:55:00,64.2,59.6,29.56,WSW,248,2.9,4.9,85,0.00,,,0.00,VWS V14.01,2013-09-21 03:55:00,
2013-09-20 20:56:00,64.2,59.6,29.56,SW,225,1.1,3.6,85,0.00,,,0.00,VWS V14.01,2013-09-21 03:56:00,
2013-09-20 20:57:00,64.2,60.0,29.56,SSE,158,2.7,2.9,86,0.00,,,0.00,VWS V14.01,2013-09-21 03:57:00,
2013-09-20 20:58:00,64.2,60.0,29.56,SW,225,3.4,3.4,86,0.00,,,0.00,VWS V14.01,2013-09-21 03:58:00,
2013-09-20 20:59:00,64.2,60.0,29.56,WSW,248,3.1,3.4,86,0.00,,,0.00,VWS V14.01,2013-09-21 03:59:00,
2013-09-20 21:00:00,64.2,60.0,29.56,SW,225,4.0,4.0,86,0.00,,,0.00,VWS V14.01,2013-09-21 04:00:00,
2013-09-20 21:01:00,64.2,60.0,29.56,WNW,292,3.6,4.0,86,0.00,,,0.00,VWS V14.01,2013-09-21 04:01:00,
2013-09-20 21:02:00,64.2,60.0,29.56,SSE,158,1.6,4.0,86,0.00,,,0.00,VWS V14.01,2013-09-21 04:02:00,
2013-09-20 21:03:00,64.2,60.0,29.56,South,180,2.0,4.0,86,0.00,,,0.00,VWS V14.01,2013-09-21 04:03:00,
2013-09-20 21:04:00,64.2,60.0,29.56,SSW,202,0.0,4.0,86,0.00,,,0.00,VWS V14.01,2013-09-21 04:04:00,
2013-09-20 21:05:00,64.2,60.0,29.56,SSW,202,1.1,4.0,86,0.00,,,0.00,VWS V14.01,2013-09-21 04:05:00,
2013-09-20 21:06:00,64.0,59.8,29.56,South,180,2.5,2.5,86,0.00,,,0.00,VWS V14.01,2013-09-21 04:06:00,
2013-09-20 21:07:00,64.0,59.8,29.56,WNW,292,3.1,3.1,86,0.00,,,0.00,VWS V14.01,2013-09-21 04:07:00,
2013-09-20 21:08:00,64.0,59.8,29.56,WSW,248,0.0,3.1,86,0.00,,,0.00,VWS V14.01,2013-09-21 04:08:00,
2013-09-20 21:09:00,64.0,59.8,29.56,WSW,248,2.9,3.1,86,0.00,,,0.00,VWS V14.01,2013-09-21 04:09:00,
2013-09-20 21:10:00,64.0,59.8,29.56,WSW,248,1.1,3.1,86,0.00,,,0.00,VWS V14.01,2013-09-21 04:10:00,
2013-09-20 21:11:00,64.0,59.8,29.56,WSW,248,2.0,2.9,86,0.00,,,0.00,VWS V14.01,2013-09-21 04:11:00,
2013-09-20 21:12:00,64.0,59.8,29.56,SW,225,2.2,2.9,86,0.00,,,0.00,VWS V14.01,2013-09-21 04:12:00,
2013-09-20 21:13:00,64.0,59.8,29.56,South,180,1.6,2.2,86,0.00,,,0.00,VWS V14.01,2013-09-21 04:13:00,
2013-09-20 21:14:00,64.0,59.8,29.56,South,180,0.0,2.2,86,0.00,,,0.00,VWS V14.01,2013-09-21 04:14:00,
2013-09-20 21:15:00,64.0,59.8,29.56,SSE,158,0.0,2.2,86,0.00,,,0.00,VWS V14.01,2013-09-21 04:15:00,
2013-09-20 21:16:00,64.0,59.8,29.56,SSE,158,0.0,2.2,86,0.00,,,0.00,VWS V14.01,2013-09-21 04:16:00,
2013-09-20 21:17:00,64.0,59.8,29.56,SSE,158,0.0,1.6,86,0.00,,,0.00,VWS V14.01,2013-09-21 04:17:00,
2013-09-20 21:18:00,63.9,59.6,29.56,SSE,158,0.0,0.0,86,0.00,,,0.00,VWS V14.01,2013-09-21 04:18:00,
2013-09-20 21:19:00,63.9,59.6,29.56,SSW,202,2.5,2.5,86,0.00,,,0.00,VWS V14.01,2013-09-21 04:19:00,
2013-09-20 21:20:00,64.0,60.1,29.56,South,180,3.6,3.6,87,0.00,,,0.00,VWS V14.01,2013-09-21 04:20:00,
2013-09-20 21:21:00,64.0,60.1,29.56,SSW,202,2.5,3.6,87,0.00,,,0.00,VWS V14.01,2013-09-21 04:21:00,
2013-09-20 21:22:00,63.9,59.9,29.56,South,180,6.5,6.5,87,0.00,,,0.00,VWS V14.01,2013-09-21 04:22:00,
2013-09-20 21:23:00,63.9,59.9,29.56,SW,225,8.7,8.7,87,0.00,,,0.00,VWS V14.01,2013-09-21 04:23:00,
2013-09-20 21:24:00,64.0,60.1,29.56,WSW,248,4.9,8.7,87,0.00,,,0.00,VWS V14.01,2013-09-21 04:24:00,
2013-09-20 21:25:00,64.0,60.1,29.56,SSW,202,4.3,8.7,87,0.00,,,0.00,VWS V14.01,2013-09-21 04:25:00,
2013-09-20 21:26:00,64.0,60.1,29.56,SSW,202,2.9,8.7,87,0.00,,,0.00,VWS V14.01,2013-09-21 04:26:00,
2013-09-20 21:27:00,64.0,60.1,29.56,SSE,158,3.4,8.7,87,0.00,,,0.00,VWS V14.01,2013-09-21 04:27:00,
2013-09-20 21:28:00,64.0,60.1,29.56,SSW,202,2.7,4.9,87,0.00,,,0.00,VWS V14.01,2013-09-21 04:28:00,
2013-09-20 21:29:00,63.9,59.9,29.56,WSW,248,1.6,4.3,87,0.00,,,0.00,VWS V14.01,2013-09-21 04:29:00,
2013-09-20 21:30:00,63.9,59.9,29.56,WSW,248,3.8,3.8,87,0.00,,,0.00,VWS V14.01,2013-09-21 04:30:00,
2013-09-20 21:31:00,63.9,60.2,29.56,NNW,338,1.3,3.8,88,0.00,,,0.00,VWS V14.01,2013-09-21 04:31:00,
2013-09-20 21:32:00,63.9,60.2,29.56,NNW,338,1.3,3.8,88,0.00,,,0.00,VWS V14.01,2013-09-21 04:32:00,
2013-09-20 21:33:00,63.9,60.2,29.56,SSW,202,1.3,3.8,88,0.00,,,0.00,VWS V14.01,2013-09-21 04:33:00,
2013-09-20 21:34:00,63.9,60.2,29.56,SW,225,3.6,3.8,88,0.00,,,0.00,VWS V14.01,2013-09-21 04:34:00,
2013-09-20 21:35:00,63.9,60.2,29.56,South,180,3.6,3.6,88,0.00,,,0.00,VWS V14.01,2013-09-21 04:35:00,
2013-09-20 21:36:00,63.9,60.2,29.56,SSW,202,2.7,3.6,88,0.00,,,0.00,VWS V14.01,2013-09-21 04:36:00,
2013-09-20 21:37:00,63.9,60.2,29.56,SW,225,3.6,3.6,88,0.00,,,0.00,VWS V14.01,2013-09-21 04:37:00,
2013-09-20 21:38:00,63.9,60.2,29.56,East,90,9.6,9.6,88,0.00,,,0.00,VWS V14.01,2013-09-21 04:38:00,
2013-09-20 21:39:00,63.9,60.6,29.56,East,90,9.6,9.6,89,0.00,,,0.00,VWS V14.01,2013-09-21 04:39:00,
2013-09-20 21:40:00,63.9,60.6,29.56,SW,225,1.6,9.6,89,0.00,,,0.00,VWS V14.01,2013-09-21 04:40:00,
2013-09-20 21:41:00,63.9,60.6,29.56,SW,225,1.6,9.6,89,0.00,,,0.00,VWS V14.01,2013-09-21 04:41:00,
2013-09-20 21:42:00,63.9,60.6,29.56,WSW,248,8.7,9.6,89,0.00,,,0.00,VWS V14.01,2013-09-21 04:42:00,
2013-09-20 21:43:00,63.9,60.6,29.56,WNW,292,2.7,9.6,89,0.00,,,0.00,VWS V14.01,2013-09-21 04:43:00,
2013-09-20 21:44:00,63.9,60.6,29.56,SW,225,1.6,8.7,89,0.00,,,0.00,VWS V14.01,2013-09-21 04:44:00,
2013-09-20 21:45:00,63.9,60.6,29.56,SW,225,3.6,8.7,89,0.00,,,0.00,VWS V14.01,2013-09-21 04:45:00,
2013-09-20 21:46:00,63.9,60.9,29.56,South,180,3.4,3.6,90,0.00,,,0.00,VWS V14.01,2013-09-21 04:46:00,
2013-09-20 21:47:00,63.9,60.9,29.56,SW,225,4.5,4.5,90,0.00,,,0.00,VWS V14.01,2013-09-21 04:47:00,
2013-09-20 21:48:00,63.9,60.9,29.56,SW,225,3.1,4.5,90,0.00,,,0.00,VWS V14.01,2013-09-21 04:48:00,
2013-09-20 21:49:00,63.9,60.9,29.56,SW,225,2.2,4.5,90,0.00,,,0.00,VWS V14.01,2013-09-21 04:49:00,
2013-09-20 21:50:00,63.9,60.9,29.56,SW,225,0.9,4.5,90,0.00,,,0.00,VWS V14.01,2013-09-21 04:50:00,
2013-09-20 21:51:00,63.9,60.9,29.56,SW,225,7.6,7.6,90,0.00,,,0.00,VWS V14.01,2013-09-21 04:51:00,
2013-09-20 21:52:00,63.9,60.9,29.56,WSW,248,2.0,7.6,90,0.00,,,0.00,VWS V14.01,2013-09-21 04:52:00,
2013-09-20 21:53:00,63.9,60.9,29.56,East,90,1.3,7.6,90,0.00,,,0.00,VWS V14.01,2013-09-21 04:53:00,
2013-09-20 21:54:00,63.9,60.9,29.56,WNW,292,2.2,7.6,90,0.00,,,0.00,VWS V14.01,2013-09-21 04:54:00,
2013-09-20 21:55:00,63.9,60.9,29.56,NE,45,2.9,7.6,90,0.00,,,0.00,VWS V14.01,2013-09-21 04:55:00,
2013-09-20 21:56:00,63.9,60.9,29.56,NE,45,2.0,2.9,90,0.00,,,0.00,VWS V14.01,2013-09-21 04:56:00,
2013-09-20 21:57:00,63.9,60.9,29.56,SSW,202,1.6,2.9,90,0.00,,,0.00,VWS V14.01,2013-09-21 04:57:00,
2013-09-20 21:59:00,63.9,60.9,29.56,SSW,202,2.7,2.9,90,0.00,,,0.00,VWS V14.01,2013-09-21 04:59:00,
2013-09-20 22:00:00,63.9,60.9,29.56,SSW,202,3.4,3.4,90,0.00,,,0.00,VWS V14.01,2013-09-21 05:00:00,
2013-09-20 22:01:00,63.9,60.9,29.56,SSE,158,2.2,3.4,90,0.00,,,0.00,VWS V14.01,2013-09-21 05:01:00,
2013-09-20 22:02:00,63.9,60.9,29.56,WSW,248,0.0,3.4,90,0.00,,,0.00,VWS V14.01,2013-09-21 05:02:00,
2013-09-20 22:03:00,63.9,60.9,29.56,SW,225,0.0,3.4,90,0.00,,,0.00,VWS V14.01,2013-09-21 05:03:00,
2013-09-20 22:04:00,63.9,60.9,29.56,WSW,248,2.0,3.4,90,0.00,,,0.00,VWS V14.01,2013-09-21 05:04:00,
2013-09-20 22:05:00,63.9,60.9,29.56,SW,225,1.6,3.4,90,0.00,,,0.00,VWS V14.01,2013-09-21 05:05:00,
2013-09-20 22:06:00,63.9,60.9,29.56,WSW,248,1.3,3.4,90,0.00,,,0.00,VWS V14.01,2013-09-21 05:06:00,
2013-09-20 22:07:00,63.9,60.9,29.56,WSW,248,1.1,3.4,90,0.00,,,0.00,VWS V14.01,2013-09-21 05:07:00,
2013-09-20 22:08:00,63.9,60.9,29.56,SSW,202,2.2,2.2,90,0.00,,,0.00,VWS V14.01,2013-09-21 05:08:00,
2013-09-20 22:09:00,63.9,60.9,29.56,SW,225,3.1,3.1,90,0.00,,,0.00,VWS V14.01,2013-09-21 05:09:00,
2013-09-20 22:10:00,64.0,61.0,29.56,SW,225,5.6,5.6,90,0.00,,,0.00,VWS V14.01,2013-09-21 05:10:00,
2013-09-20 22:11:00,64.0,61.0,29.56,WSW,248,3.1,5.6,90,0.00,,,0.00,VWS V14.01,2013-09-21 05:11:00,
2013-09-20 22:12:00,64.0,61.0,29.56,South,180,3.4,5.6,90,0.00,,,0.00,VWS V14.01,2013-09-21 05:12:00,
2013-09-20 22:13:00,64.0,61.0,29.56,West,270,4.3,5.6,90,0.00,,,0.00,VWS V14.01,2013-09-21 05:13:00,
2013-09-20 22:14:00,64.0,61.0,29.56,SSW,202,3.1,4.3,90,0.00,,,0.00,VWS V14.01,2013-09-21 05:14:00,
2013-09-20 22:15:00,64.0,61.0,29.56,WNW,292,0.9,4.3,90,0.00,,,0.00,VWS V14.01,2013-09-21 05:15:00,
2013-09-20 22:16:00,64.0,61.0,29.56,West,270,0.9,4.3,90,0.00,,,0.00,VWS V14.01,2013-09-21 05:16:00,
2013-09-20 22:17:00,64.2,61.2,29.56,SW,225,4.9,4.9,90,0.00,,,0.00,VWS V14.01,2013-09-21 05:17:00,
2013-09-20 22:18:00,64.2,61.2,29.56,WSW,248,2.7,4.9,90,0.00,,,0.00,VWS V14.01,2013-09-21 05:18:00,
2013-09-20 22:21:00,64.2,61.2,29.56,SW,225,2.0,5.6,90,0.00,,,0.00,VWS V14.01,2013-09-21 05:21:00,
2013-09-20 22:22:00,64.2,61.2,29.56,SW,225,2.0,5.6,90,0.00,,,0.00,VWS V14.01,2013-09-21 05:22:00,
2013-09-20 22:23:00,64.2,61.2,29.56,SW,225,5.4,5.6,90,0.00,,,0.00,VWS V14.01,2013-09-21 05:23:00,
2013-09-20 22:24:00,64.2,61.2,29.56,NNW,338,1.3,5.6,90,0.00,,,0.00,VWS V14.01,2013-09-21 05:24:00,
2013-09-20 22:25:00,64.2,61.2,29.56,WSW,248,1.3,5.4,90,0.00,,,0.00,VWS V14.01,2013-09-21 05:25:00,
2013-09-20 22:26:00,64.2,61.2,29.56,SSE,158,0.9,5.4,90,0.00,,,0.00,VWS V14.01,2013-09-21 05:26:00,
2013-09-20 22:27:00,64.2,61.2,29.56,SSW,202,5.8,5.8,90,0.00,,,0.00,VWS V14.01,2013-09-21 05:27:00,
2013-09-20 22:28:00,64.2,61.2,29.56,WSW,248,3.4,5.8,90,0.00,,,0.00,VWS V14.01,2013-09-21 05:28:00,
2013-09-20 22:29:00,64.2,61.2,29.56,SSW,202,5.6,5.8,90,0.00,,,0.00,VWS V14.01,2013-09-21 05:29:00,
2013-09-20 22:30:00,64.2,61.2,29.56,SW,225,4.3,5.8,90,0.00,,,0.00,VWS V14.01,2013-09-21 05:30:00,
2013-09-20 22:31:00,64.2,61.2,29.56,WSW,248,2.0,5.8,90,0.00,,,0.00,VWS V14.01,2013-09-21 05:31:00,
2013-09-20 22:32:00,64.0,61.0,29.56,SW,225,2.7,5.6,90,0.00,,,0.00,VWS V14.01,2013-09-21 05:32:00,
2013-09-20 22:33:00,64.0,61.0,29.56,ENE,68,1.3,5.6,90,0.00,,,0.00,VWS V14.01,2013-09-21 05:33:00,
2013-09-20 22:34:00,64.0,61.0,29.56,WNW,292,2.0,2.7,90,0.00,,,0.00,VWS V14.01,2013-09-21 05:34:00,
2013-09-20 22:35:00,64.0,61.0,29.56,WNW,292,0.0,2.7,90,0.00,,,0.00,VWS V14.01,2013-09-21 05:35:00,
2013-09-20 22:36:00,63.9,60.6,29.56,NW,315,2.9,2.9,89,0.00,,,0.00,VWS V14.01,2013-09-21 05:36:00,
2013-09-20 22:37:00,63.9,60.6,29.56,SSW,202,0.0,2.9,89,0.00,,,0.00,VWS V14.01,2013-09-21 05:37:00,
2013-09-20 22:38:00,63.9,60.6,29.56,South,180,0.0,2.9,89,0.00,,,0.00,VWS V14.01,2013-09-21 05:38:00,
2013-09-20 22:39:00,63.9,60.6,29.56,South,180,0.0,2.9,89,0.00,,,0.00,VWS V14.01,2013-09-21 05:39:00,
2013-09-20 22:40:00,63.9,60.6,29.56,South,180,0.0,2.9,89,0.00,,,0.00,VWS V14.01,2013-09-21 05:40:00,
2013-09-20 22:41:00,63.7,60.4,29.56,South,180,0.0,0.0,89,0.00,,,0.00,VWS V14.01,2013-09-21 05:41:00,
2013-09-20 22:42:00,63.7,60.4,29.56,South,180,1.3,1.3,89,0.00,,,0.00,VWS V14.01,2013-09-21 05:42:00,
2013-09-20 22:43:00,63.7,60.4,29.56,SE,135,1.6,1.6,89,0.00,,,0.00,VWS V14.01,2013-09-21 05:43:00,
2013-09-20 22:44:00,63.7,60.4,29.56,NNE,22,0.9,1.6,89,0.00,,,0.00,VWS V14.01,2013-09-21 05:44:00,
2013-09-20 22:45:00,63.7,60.7,29.56,NNE,22,3.1,3.1,90,0.00,,,0.00,VWS V14.01,2013-09-21 05:45:00,
2013-09-20 22:46:00,63.7,60.7,29.56,WNW,292,1.3,3.1,90,0.00,,,0.00,VWS V14.01,2013-09-21 05:46:00,
2013-09-20 22:47:00,63.7,60.7,29.56,NNE,22,0.0,1.3,90,0.00,,,0.00,VWS V14.01,2013-09-21 05:47:00,
2013-09-20 22:48:00,63.7,60.7,29.56,ENE,68,1.3,1.3,90,0.00,,,0.00,VWS V14.01,2013-09-21 05:48:00,
2013-09-20 22:49:00,63.7,60.7,29.56,ENE,68,1.1,1.3,90,0.00,,,0.00,VWS V14.01,2013-09-21 05:49:00,
2013-09-20 22:50:00,63.7,60.7,29.56,ESE,112,4.9,4.9,90,0.00,,,0.00,VWS V14.01,2013-09-21 05:50:00,
2013-09-20 22:51:00,63.7,60.7,29.56,WSW,248,2.5,4.9,90,0.00,,,0.00,VWS V14.01,2013-09-21 05:51:00,
2013-09-20 22:52:00,63.9,60.9,29.56,NNE,22,0.0,4.9,90,0.00,,,0.00,VWS V14.01,2013-09-21 05:52:00,
2013-09-20 22:53:00,63.9,60.9,29.56,NW,315,2.2,2.5,90,0.00,,,0.00,VWS V14.01,2013-09-21 05:53:00,
2013-09-20 22:54:00,63.9,60.9,29.56,NW,315,0.0,2.2,90,0.00,,,0.00,VWS V14.01,2013-09-21 05:54:00,
2013-09-20 22:55:00,63.9,60.9,29.56,SSE,158,1.1,2.2,90,0.00,,,0.00,VWS V14.01,2013-09-21 05:55:00,
2013-09-20 22:56:00,63.9,60.9,29.56,South,180,1.6,1.6,90,0.00,,,0.00,VWS V14.01,2013-09-21 05:56:00,
2013-09-20 22:57:00,63.9,60.9,29.56,SE,135,2.5,2.5,90,0.00,,,0.00,VWS V14.01,2013-09-21 05:57:00,
2013-09-20 22:58:00,63.9,60.9,29.56,SSE,158,3.6,3.6,90,0.00,,,0.00,VWS V14.01,2013-09-21 05:58:00,
2013-09-20 22:59:00,63.9,60.6,29.56,South,180,0.0,3.6,89,0.00,,,0.00,VWS V14.01,2013-09-21 05:59:00,
2013-09-20 23:00:00,63.9,60.6,29.56,SSW,202,2.2,3.6,89,0.00,,,0.00,VWS V14.01,2013-09-21 06:00:00,
2013-09-20 23:01:00,63.9,60.6,29.56,SE,135,2.7,3.1,89,0.00,,,0.00,VWS V14.01,2013-09-21 06:01:00,
2013-09-20 23:02:00,63.9,60.6,29.56,East,90,2.2,2.7,89,0.00,,,0.00,VWS V14.01,2013-09-21 06:02:00,
2013-09-20 23:03:00,63.9,60.6,29.56,ESE,112,6.5,6.5,89,0.00,,,0.00,VWS V14.01,2013-09-21 06:03:00,
2013-09-20 23:04:00,63.9,60.6,29.56,South,180,0.9,6.5,89,0.00,,,0.00,VWS V14.01,2013-09-21 06:04:00,
2013-09-20 23:05:00,63.9,60.6,29.56,ESE,112,1.3,6.5,89,0.00,,,0.00,VWS V14.01,2013-09-21 06:05:00,
2013-09-20 23:06:00,64.0,60.7,29.56,ESE,112,1.3,1.3,89,0.00,,,0.00,VWS V14.01,2013-09-21 06:06:00,
2013-09-20 23:07:00,64.0,60.7,29.56,SSE,158,0.9,1.3,89,0.00,,,0.00,VWS V14.01,2013-09-21 06:07:00,
2013-09-20 23:08:00,64.0,60.7,29.56,SSE,158,0.9,1.3,89,0.00,,,0.00,VWS V14.01,2013-09-21 06:08:00,
2013-09-20 23:09:00,64.0,60.7,29.56,SSW,202,2.9,2.9,89,0.00,,,0.00,VWS V14.01,2013-09-21 06:09:00,
2013-09-20 23:10:00,64.2,60.9,29.56,South,180,3.1,3.1,89,0.00,,,0.00,VWS V14.01,2013-09-21 06:10:00,
2013-09-20 23:11:00,64.2,60.6,29.56,SSE,158,3.1,3.1,88,0.00,,,0.00,VWS V14.01,2013-09-21 06:11:00,
2013-09-20 23:12:00,64.2,60.6,29.56,SW,225,2.7,3.1,88,0.00,,,0.00,VWS V14.01,2013-09-21 06:12:00,
2013-09-20 23:13:00,64.2,60.6,29.56,South,180,3.1,3.1,88,0.00,,,0.00,VWS V14.01,2013-09-21 06:13:00,
2013-09-20 23:14:00,64.2,60.6,29.56,South,180,1.1,3.1,88,0.00,,,0.00,VWS V14.01,2013-09-21 06:14:00,
2013-09-20 23:15:00,64.2,60.6,29.56,SSW,202,4.0,4.0,88,0.00,,,0.00,VWS V14.01,2013-09-21 06:15:00,
2013-09-20 23:16:00,64.2,60.6,29.56,South,180,5.4,5.4,88,0.00,,,0.00,VWS V14.01,2013-09-21 06:16:00,
2013-09-20 23:17:00,64.2,60.6,29.56,SSW,202,3.4,5.4,88,0.00,,,0.00,VWS V14.01,2013-09-21 06:17:00,
2013-09-20 23:18:00,64.2,60.3,29.56,SSW,202,3.4,5.4,87,0.00,,,0.00,VWS V14.01,2013-09-21 06:18:00,
2013-09-20 23:19:00,64.2,60.3,29.56,SSE,158,3.8,5.4,87,0.00,,,0.00,VWS V14.01,2013-09-21 06:19:00,
2013-09-20 23:20:00,64.4,60.5,29.56,SSE,158,3.8,5.4,87,0.00,,,0.00,VWS V14.01,2013-09-21 06:20:00,
2013-09-20 23:21:00,64.4,60.5,29.56,SE,135,3.4,3.8,87,0.00,,,0.00,VWS V14.01,2013-09-21 06:21:00,
2013-09-20 23:22:00,64.4,60.1,29.56,SSE,158,4.0,4.0,86,0.00,,,0.00,VWS V14.01,2013-09-21 06:22:00,
2013-09-20 23:23:00,64.4,60.1,29.56,South,180,3.1,4.0,86,0.00,,,0.00,VWS V14.01,2013-09-21 06:23:00,
2013-09-20 23:24:00,64.4,60.1,29.56,SSW,202,8.1,8.1,86,0.00,,,0.00,VWS V14.01,2013-09-21 06:24:00,
2013-09-20 23:25:00,64.4,60.1,29.56,South,180,3.1,8.1,86,0.00,,,0.00,VWS V14.01,2013-09-21 06:25:00,
2013-09-20 23:26:00,64.4,60.1,29.56,SSE,158,5.6,8.1,86,0.00,,,0.00,VWS V14.01,2013-09-21 06:26:00,
2013-09-20 23:27:00,64.4,60.1,29.56,SSE,158,3.6,8.1,86,0.00,,,0.00,VWS V14.01,2013-09-21 06:27:00,
2013-09-20 23:28:00,64.4,60.1,29.56,SE,135,5.8,5.8,86,0.00,,,0.00,VWS V14.01,2013-09-21 06:28:00,
2013-09-20 23:29:00,64.4,60.1,29.56,SSE,158,4.3,5.8,86,0.00,,,0.00,VWS V14.01,2013-09-21 06:29:00,
2013-09-20 23:30:00,64.4,59.8,29.56,South,180,3.1,5.8,85,0.00,,,0.00,VWS V14.01,2013-09-21 06:30:00,
2013-09-20 23:31:00,64.4,59.8,29.56,SSW,202,4.3,5.8,85,0.00,,,0.00,VWS V14.01,2013-09-21 06:31:00,
2013-09-20 23:32:00,64.6,60.0,29.56,SSE,158,3.6,4.3,85,0.00,,,0.00,VWS V14.01,2013-09-21 06:32:00,
2013-09-20 23:33:00,64.6,60.0,29.56,SSE,158,3.4,4.3,85,0.00,,,0.00,VWS V14.01,2013-09-21 06:33:00,
2013-09-20 23:34:00,64.6,60.0,29.56,SSW,202,2.5,4.3,85,0.00,,,0.00,VWS V14.01,2013-09-21 06:34:00,
2013-09-20 23:35:00,64.6,60.0,29.56,SSW,202,3.1,3.6,85,0.00,,,0.00,VWS V14.01,2013-09-21 06:35:00,
2013-09-20 23:36:00,64.6,60.0,29.56,SSW,202,3.6,3.6,85,0.00,,,0.00,VWS V14.01,2013-09-21 06:36:00,
2013-09-20 23:37:00,64.6,60.0,29.56,South,180,0.0,3.6,85,0.00,,,0.00,VWS V14.01,2013-09-21 06:37:00,
2013-09-20 23:38:00,64.6,60.0,29.56,South,180,2.0,3.6,85,0.00,,,0.00,VWS V14.01,2013-09-21 06:38:00,
2013-09-20 23:39:00,64.6,60.0,29.56,SSE,158,0.9,3.6,85,0.00,,,0.00,VWS V14.01,2013-09-21 06:39:00,
2013-09-20 23:40:00,64.6,60.0,29.56,SSW,202,1.3,3.6,85,0.00,,,0.00,VWS V14.01,2013-09-21 06:40:00,
2013-09-20 23:41:00,64.6,60.0,29.56,SSW,202,2.2,2.2,85,0.00,,,0.00,VWS V14.01,2013-09-21 06:41:00,
2013-09-20 23:42:00,64.6,60.0,29.56,SSW,202,0.0,2.2,85,0.00,,,0.00,VWS V14.01,2013-09-21 06:42:00,
2013-09-20 23:43:00,64.6,60.0,29.56,SSW,202,2.7,2.7,85,0.00,,,0.00,VWS V14.01,2013-09-21 06:43:00,
2013-09-20 23:44:00,64.6,60.0,29.56,SSW,202,3.8,3.8,85,0.00,,,0.00,VWS V14.01,2013-09-21 06:44:00,
2013-09-20 23:45:00,64.6,60.0,29.56,South,180,4.3,4.3,85,0.00,,,0.00,VWS V14.01,2013-09-21 06:45:00,
2013-09-20 23:46:00,64.6,59.6,29.56,SSW,202,5.4,5.4,84,0.00,,,0.00,VWS V14.01,2013-09-21 06:46:00,
2013-09-20 23:47:00,64.6,59.6,29.56,South,180,3.4,5.4,84,0.00,,,0.00,VWS V14.01,2013-09-21 06:47:00,
2013-09-20 23:48:00,64.6,59.6,29.56,SSW,202,0.9,5.4,84,0.00,,,0.00,VWS V14.01,2013-09-21 06:48:00,
2013-09-20 23:49:00,64.6,59.6,29.56,SW,225,2.9,5.4,84,0.00,,,0.00,VWS V14.01,2013-09-21 06:49:00,
2013-09-20 23:50:00,64.6,59.6,29.56,SW,225,2.9,5.4,84,0.00,,,0.00,VWS V14.01,2013-09-21 06:50:00,
2013-09-20 23:51:00,64.6,59.6,29.56,SW,225,2.9,5.4,84,0.00,,,0.00,VWS V14.01,2013-09-21 06:51:00,
2013-09-20 23:52:00,64.6,59.6,29.56,SW,225,6.3,6.3,84,0.00,,,0.00,VWS V14.01,2013-09-21 06:52:00,
2013-09-20 23:53:00,64.6,59.6,29.53,SW,225,3.4,6.3,84,0.00,,,0.00,VWS V14.01,2013-09-21 06:53:00,
2013-09-20 23:54:00,64.6,59.6,29.53,South,180,2.0,6.3,84,0.00,,,0.00,VWS V14.01,2013-09-21 06:54:00,
2013-09-20 23:55:00,64.6,59.6,29.53,South,180,1.6,6.3,84,0.00,,,0.00,VWS V14.01,2013-09-21 06:55:00,
2013-09-20 23:56:00,64.6,59.6,29.53,SSE,158,3.6,3.6,84,0.00,,,0.00,VWS V14.01,2013-09-21 06:56:00,
2013-09-20 23:57:00,64.6,59.6,29.53,South,180,2.9,3.6,84,0.00,,,0.00,VWS V14.01,2013-09-21 06:57:00,
2013-09-20 23:58:00,64.8,59.8,29.53,South,180,2.0,3.6,84,0.00,,,0.00,VWS V14.01,2013-09-21 06:58:00,
2013-09-20 23:59:00,64.8,59.8,29.53,South,180,1.3,3.6,84,0.00,,,0.00,VWS V14.01,2013-09-21 06:59:00,